[[{"header":{"parameterUnit":"m.s-1","parameterCategory":1,"la1":30.6,"la2":28.766,"lo1":-90.7593,"lo2":-88.6598,"dy":0.0162,"dx":0.0183,"nx":116,"ny":114,"refTime":"2024-04-22T12:00:00:Z","depth":0,"parameterNumber":2,"parameterNumberName":"U-component_of_WINDS"},"data":[0.0,0.0,0.0,0.0,0.0,0.0,0.0,0.0,0.0,0.0,0.0,0.0,0.0,0.0,0.0,0.0,0.0,0.0,0.0,0.0,0.0,0.0,0.0,0.0,0.0,0.0,0.0,0.0,0.0,0.0,0.0,0.0,0.0,0.0,0.0,0.0,0.0,0.0,0.0,0.0,0.0,0.0,0.0,0.0,0.0,0.0,0.0,0.0,0.0,0.0,0.0,0.0,0.0,0.0,0.0,0.0,0.0,0.0,0.0,0.0,0.0,0.0,0.0,0.0,0.0,0.0,0.0,0.0,0.0,0.0,0.0,0.0,0.0,0.0,0.0,0.0,0.0,0.0,0.0,0.0,0.0,0.0,0.0,0.0,0.0,0.0,0.0,0.0,0.0,0.0,0.0,0.0,0.0,0.0,0.0,0.0,0.0,0.0,0.0,0.0,0.0,0.0,0.0,0.0,0.0,0.0,0.0,0.0,0.0,0.0,0.0,0.0,0.0,0.0,0.0,0.0,0.0,0.0,0.0,0.0,0.0,0.0,0.0,0.0,0.0,0.0,0.0,0.0,0.0,0.0,0.0,0.0,0.0,0.0,0.0,0.0,0.0,0.0,0.0,0.0,0.0,0.0,0.0,0.0,0.0,0.0,0.0,0.0,0.0,0.0,0.0,0.0,0.0,0.0,0.0,0.0,0.0,0.0,0.0,0.0,0.0,0.0,0.0,0.0,0.0,0.0,0.0,0.0,0.0,0.0,0.0,0.0,0.0,0.0,0.0,0.0,0.0,0.0,0.0,0.0,0.0,0.0,0.0,0.0,0.0,0.0,0.0,0.0,0.0,0.0,0.0,0.0,0.0,0.0,0.0,0.0,0.0,0.0,0.0,0.0,0.0,0.0,0.0,0.0,0.0,0.0,0.0,0.0,0.0,0.0,0.0,0.0,0.0,0.0,0.0,0.0,0.0,0.0,0.0,0.0,0.0,0.0,0.0,0.0,0.0,0.0,0.0,0.0,0.0,0.0,0.0,0.0,0.0,0.0,0.0,0.0,0.0,0.0,0.0,0.0,0.0,0.0,0.0,0.0,0.0,0.0,0.0,0.0,0.0,0.0,0.0,0.0,0.0,0.0,0.0,0.0,0.0,0.0,0.0,0.0,0.0,0.0,0.0,0.0,0.0,0.0,0.0,0.0,0.0,0.0,0.0,0.0,0.0,0.0,0.0,0.0,0.0,0.0,0.0,0.0,0.0,0.0,0.0,0.0,0.0,0.0,0.0,0.0,0.0,0.0,0.0,0.0,0.0,0.0,0.0,0.0,0.0,0.0,0.0,0.0,0.0,0.0,0.0,0.0,0.0,0.0,0.0,0.0,0.0,0.0,0.0,0.0,0.0,0.0,0.0,0.0,0.0,0.0,0.0,0.0,0.0,0.0,0.0,0.0,0.0,0.0,0.0,0.0,0.0,0.0,0.0,0.0,0.0,0.0,0.0,0.0,0.0,0.0,0.0,0.0,0.0,0.0,0.0,0.0,0.0,0.0,0.0,0.0,0.0,0.0,0.0,0.0,0.0,0.0,0.0,0.0,0.0,0.0,0.0,0.0,0.0,0.0,0.0,0.0,0.0,0.0,0.0,0.0,0.0,0.0,0.0,0.0,0.0,0.0,0.0,0.0,0.0,0.0,0.0,0.0,0.0,0.0,0.0,0.0,0.0,0.0,0.0,0.0,0.0,0.0,0.0,0.0,0.0,0.0,0.0,0.0,0.0,0.0,0.0,0.0,0.0,0.0,0.0,0.0,0.0,0.0,0.0,0.0,0.0,0.0,0.0,0.0,0.0,0.0,0.0,0.0,0.0,0.0,0.0,0.0,0.0,0.0,0.0,0.0,0.0,0.0,0.0,0.0,0.0,0.0,0.0,0.0,0.0,0.0,0.0,0.0,0.0,0.0,0.0,0.0,0.0,0.0,0.0,0.0,0.0,0.0,0.0,0.0,0.0,0.0,0.0,0.0,0.0,0.0,0.0,0.0,0.0,0.0,0.0,0.0,0.0,0.0,0.0,0.0,0.0,0.0,0.0,0.0,0.0,0.0,0.0,0.0,0.0,0.0,0.0,0.0,0.0,0.0,0.0,0.0,0.0,0.0,0.0,0.0,0.0,0.0,0.0,0.0,0.0,0.0,0.0,0.0,0.0,0.0,0.0,0.0,0.0,0.0,0.0,0.0,0.0,0.0,0.0,0.0,0.0,0.0,0.0,0.0,0.0,0.0,0.0,0.0,0.0,0.0,0.0,0.0,0.0,0.0,0.0,0.0,0.0,0.0,0.0,0.0,0.0,0.0,0.0,0.0,0.0,0.0,0.0,0.0,0.0,0.0,0.0,0.0,0.0,0.0,0.0,0.0,0.0,0.0,0.0,0.0,0.0,0.0,0.0,0.0,0.0,0.0,0.0,0.0,0.0,0.0,0.0,0.0,0.0,0.0,0.0,0.0,0.0,0.0,0.0,0.0,0.0,0.0,0.0,0.0,0.0,0.0,0.0,0.0,0.0,0.0,0.0,0.0,0.0,0.0,0.0,0.0,0.0,0.0,0.0,0.0,0.0,0.0,0.0,0.0,0.0,0.0,0.0,0.0,0.0,0.0,0.0,0.0,0.0,0.0,0.0,0.0,0.0,0.0,0.0,0.0,0.0,0.0,0.0,0.0,0.0,0.0,0.0,0.0,0.0,0.0,0.0,0.0,0.0,0.0,0.0,0.0,0.0,0.0,0.0,0.0,0.0,0.0,0.0,0.0,0.0,0.0,0.0,0.0,0.0,0.0,0.0,0.0,0.0,0.0,0.0,0.0,0.0,0.0,0.0,0.0,0.0,0.0,0.0,0.0,0.0,0.0,0.0,0.0,0.0,0.0,0.0,0.0,0.0,0.0,0.0,0.0,0.0,0.0,0.0,0.0,0.0,0.0,0.0,0.0,0.0,0.0,0.0,0.0,0.0,0.0,0.0,0.0,0.0,0.0,0.0,0.0,0.0,0.0,0.0,0.0,0.0,0.0,0.0,0.0,0.0,0.0,0.0,0.0,0.0,0.0,0.0,0.0,0.0,0.0,0.0,0.0,0.0,0.0,0.0,0.0,0.0,0.0,0.0,0.0,0.0,0.0,0.0,0.0,0.0,0.0,0.0,0.0,0.0,0.0,0.0,0.0,0.0,0.0,0.0,0.0,0.0,0.0,0.0,0.0,0.0,0.0,0.0,0.0,0.0,0.0,0.0,0.0,0.0,0.0,0.0,0.0,0.0,0.0,0.0,0.0,0.0,0.0,0.0,0.0,0.0,0.0,0.0,0.0,0.0,0.0,0.0,0.0,0.0,0.0,0.0,0.0,0.0,0.0,0.0,0.0,0.0,0.0,0.0,0.0,0.0,0.0,0.0,0.0,0.0,0.0,0.0,0.0,0.0,0.0,0.0,0.0,0.0,0.0,0.0,0.0,0.0,0.0,0.0,0.0,0.0,0.0,0.0,0.0,0.0,0.0,0.0,0.0,0.0,0.0,0.0,0.0,0.0,0.0,0.0,0.0,0.0,0.0,0.0,0.0,0.0,0.0,0.0,0.0,0.0,0.0,0.0,0.0,0.0,0.0,0.0,0.0,0.0,0.0,0.0,0.0,0.0,0.0,0.0,0.0,0.0,0.0,0.0,0.0,0.0,0.0,0.0,0.0,0.0,0.0,0.0,0.0,0.0,0.0,0.0,0.0,0.0,0.0,0.0,0.0,0.0,0.0,0.0,0.0,0.0,0.0,0.0,0.0,0.0,0.0,0.0,0.0,0.0,0.0,0.0,0.0,0.0,0.0,0.0,0.0,0.0,0.0,0.0,0.0,0.0,0.0,0.0,0.0,0.0,0.0,0.0,0.0,0.0,0.0,0.0,0.0,0.0,0.0,0.0,0.0,0.0,0.0,0.0,0.0,0.0,0.0,0.0,0.0,0.0,0.0,0.0,0.0,0.0,0.0,0.0,0.0,0.0,0.0,0.0,0.0,0.0,0.0,0.0,0.0,0.0,0.0,0.0,0.0,0.0,0.0,0.0,0.0,0.0,0.0,0.0,0.0,0.0,0.0,0.0,0.0,0.0,0.0,0.0,0.0,0.0,0.0,0.0,0.0,0.0,0.0,0.0,0.0,0.0,0.0,0.0,0.0,0.0,0.0,0.0,0.0,0.0,0.0,0.0,0.0,0.0,0.0,0.0,0.0,0.0,0.0,0.0,0.0,0.0,0.0,0.0,0.0,0.0,0.0,0.0,0.0,0.0,0.0,0.0,0.0,0.0,0.0,0.0,0.0,0.0,0.0,0.0,0.0,0.0,0.0,0.0,0.0,0.0,0.0,0.0,0.0,0.0,0.0,0.0,0.0,0.0,0.0,0.0,0.0,0.0,0.0,0.0,0.0,0.0,0.0,0.0,0.0,0.0,0.0,0.0,0.0,0.0,0.0,0.0,0.0,0.0,0.0,0.0,0.0,0.0,0.0,0.0,0.0,0.0,0.0,0.0,0.0,0.0,0.0,0.0,0.0,0.0,0.0,0.0,0.0,0.0,0.0,0.0,0.0,0.0,0.0,0.0,0.0,0.0,0.0,0.0,0.0,0.0,0.0,0.0,0.0,0.0,0.0,0.0,0.0,0.0,0.0,0.0,0.0,0.0,0.0,0.0,0.0,0.0,0.0,0.0,0.0,0.0,0.0,0.0,0.0,0.0,0.0,0.0,0.0,0.0,0.0,0.0,0.0,0.0,0.0,0.0,0.0,0.0,0.0,0.0,0.0,0.0,0.0,0.0,0.0,0.0,0.0,0.0,0.0,0.0,0.0,0.0,0.0,0.0,0.0,0.0,0.0,0.0,0.0,0.0,0.0,0.0,0.0,0.0,0.0,0.0,0.0,0.0,0.0,0.0,0.0,0.0,0.0,0.0,0.0,0.0,0.0,0.0,0.0,0.0,0.0,0.0,0.0,0.0,0.0,0.0,0.0,0.0,0.0,0.0,0.0,0.0,0.0,0.0,0.0,0.0,0.0,0.0,0.0,0.0,0.0,0.0,0.0,0.0,0.0,0.0,0.0,0.0,0.0,0.0,0.0,0.0,0.0,0.0,0.0,0.0,0.0,0.0,0.0,0.0,0.0,0.0,0.0,0.0,0.0,0.0,0.0,0.0,0.0,0.0,0.0,0.0,0.0,0.0,0.0,0.0,0.0,0.0,0.0,0.0,0.0,0.0,0.0,0.0,0.0,0.0,0.0,0.0,0.0,0.0,0.0,0.0,0.0,0.0,0.0,0.0,0.0,0.0,0.0,0.0,0.0,0.0,0.0,0.0,0.0,0.0,0.0,0.0,0.0,0.0,0.0,0.0,0.0,0.0,0.0,0.0,0.0,0.0,0.0,0.0,0.0,0.0,0.0,0.0,0.0,0.0,0.0,0.0,0.0,0.0,0.0,0.0,0.0,0.0,0.0,0.0,0.0,0.0,0.0,0.0,0.0,0.0,0.0,0.0,0.0,0.0,0.0,0.0,0.0,0.0,0.0,0.0,0.0,0.0,0.0,0.0,0.0,0.0,0.0,0.0,0.0,0.0,0.0,0.0,0.0,0.0,0.0,0.0,0.0,0.0,0.0,0.0,0.0,0.0,0.0,0.0,0.0,0.0,0.0,0.0,0.0,0.0,0.0,0.0,0.0,0.0,0.0,0.0,0.0,0.0,0.0,0.0,0.0,0.0,0.0,0.0,0.0,0.0,0.0,0.0,0.0,0.0,0.0,0.0,0.0,0.0,0.0,0.0,0.0,0.0,0.0,0.0,0.0,0.0,0.0,0.0,0.0,0.0,0.0,0.0,0.0,0.0,0.0,0.0,0.0,0.0,0.0,0.0,0.0,0.0,0.0,0.0,0.0,0.0,0.0,0.0,0.0,0.0,0.0,0.0,0.0,0.0,0.0,0.0,0.0,0.0,0.0,0.0,0.0,0.0,0.0,0.0,0.0,0.0,0.0,0.0,0.0,0.0,0.0,0.0,0.0,0.0,0.0,0.0,0.0,0.0,0.0,0.0,0.0,0.0,0.0,0.0,0.0,0.0,0.0,0.0,0.0,-4.3073,-4.2986,0.0,0.0,0.0,0.0,0.0,0.0,0.0,0.0,0.0,0.0,0.0,0.0,0.0,0.0,0.0,0.0,0.0,0.0,0.0,0.0,0.0,0.0,0.0,-4.2986,-4.2986,-4.2986,-4.2986,-4.2986,-4.2986,-4.2986,0.0,0.0,0.0,0.0,0.0,0.0,-4.2615,-4.2615,-4.2007,-4.1605,-4.1275,-4.0752,-4.035,-4.0074,0.0,0.0,0.0,0.0,0.0,0.0,0.0,0.0,0.0,0.0,0.0,0.0,0.0,0.0,0.0,0.0,0.0,0.0,0.0,0.0,0.0,0.0,0.0,0.0,0.0,0.0,0.0,0.0,0.0,0.0,0.0,0.0,0.0,0.0,0.0,0.0,0.0,0.0,0.0,0.0,0.0,0.0,0.0,0.0,0.0,0.0,0.0,0.0,0.0,0.0,0.0,0.0,0.0,0.0,0.0,0.0,0.0,0.0,0.0,0.0,0.0,0.0,0.0,0.0,0.0,0.0,0.0,0.0,0.0,0.0,-4.3184,-4.3184,0.0,0.0,0.0,0.0,0.0,0.0,0.0,0.0,0.0,0.0,0.0,0.0,0.0,0.0,0.0,0.0,0.0,0.0,0.0,0.0,0.0,-4.2986,-4.2986,-4.2986,-4.2986,-4.2986,-4.2986,-4.2986,-4.2986,-4.2986,-4.2986,-4.2986,-4.2986,-4.2986,-4.2986,-4.2986,-4.2986,-4.2986,-4.259,-4.2057,-4.1576,-4.153,-4.1229,-4.0777,-4.0224,0.0,0.0,0.0,0.0,0.0,0.0,0.0,0.0,0.0,0.0,0.0,0.0,0.0,0.0,0.0,0.0,0.0,0.0,0.0,0.0,0.0,0.0,0.0,0.0,0.0,0.0,0.0,0.0,0.0,0.0,0.0,0.0,0.0,0.0,0.0,0.0,0.0,0.0,0.0,0.0,0.0,0.0,0.0,0.0,0.0,0.0,0.0,0.0,0.0,0.0,0.0,0.0,0.0,0.0,0.0,0.0,0.0,0.0,0.0,0.0,0.0,0.0,0.0,-4.3628,-4.3517,-4.3844,-4.3572,-4.3406,-4.3265,-4.3406,-4.3462,-4.3295,-4.3073,0.0,0.0,0.0,0.0,0.0,0.0,0.0,0.0,0.0,0.0,0.0,0.0,0.0,0.0,0.0,0.0,0.0,0.0,0.0,-4.2986,-4.2986,-4.2986,-4.2986,-4.2986,-4.2986,-4.2986,-4.2986,-4.2986,-4.2986,-4.2986,-4.2986,-4.2986,-4.2986,-4.2986,-4.2986,-4.2986,-4.2911,-4.2836,-4.276,-4.2313,-4.2062,-4.1961,-4.1354,-4.0852,-4.04,0.0,0.0,0.0,0.0,0.0,0.0,0.0,0.0,0.0,0.0,0.0,0.0,0.0,0.0,0.0,0.0,0.0,0.0,0.0,0.0,0.0,0.0,0.0,0.0,0.0,0.0,0.0,0.0,0.0,0.0,0.0,0.0,0.0,0.0,0.0,0.0,0.0,0.0,0.0,0.0,0.0,-4.2986,-4.2986,0.0,0.0,0.0,0.0,0.0,0.0,0.0,0.0,0.0,0.0,0.0,0.0,0.0,-4.3517,-4.3844,-4.3844,-4.3708,-4.3517,-4.3462,-4.3406,-4.3462,-4.3708,-4.3929,-4.4094,-4.3929,0.0,-4.3017,-4.3042,0.0,0.0,0.0,0.0,0.0,0.0,0.0,0.0,0.0,0.0,0.0,0.0,0.0,0.0,0.0,0.0,0.0,0.0,0.0,0.0,0.0,-4.2986,-4.2986,-4.2986,-4.2986,-4.2986,-4.2986,-4.2986,-4.2986,-4.2986,-4.2986,-4.2986,-4.2986,-4.2986,-4.2986,-4.2986,-4.2986,-4.2986,-4.2961,-4.2791,-4.2665,-4.2665,-4.2359,-4.1781,-4.0924,-4.0924,0.0,0.0,0.0,0.0,0.0,0.0,0.0,0.0,0.0,0.0,0.0,0.0,0.0,0.0,0.0,0.0,0.0,0.0,0.0,0.0,0.0,0.0,0.0,0.0,0.0,0.0,0.0,0.0,0.0,0.0,0.0,0.0,0.0,0.0,0.0,0.0,0.0,0.0,0.0,-4.2986,-4.3073,-4.3184,-4.324,-4.324,0.0,0.0,0.0,0.0,0.0,0.0,0.0,0.0,0.0,-4.3572,-4.3462,-4.3406,-4.3376,-4.3734,-4.3887,-4.3888,-4.3888,-4.4041,-4.4345,-4.4709,-4.4848,-4.4766,-4.4991,-4.4822,-4.4376,-4.3406,-4.3073,-4.3184,0.0,0.0,0.0,0.0,-4.3073,-4.3184,0.0,0.0,0.0,0.0,0.0,0.0,0.0,0.0,0.0,0.0,0.0,0.0,-4.2986,-4.2986,-4.2986,-4.2986,-4.2986,-4.2986,-4.2986,-4.2986,-4.2986,-4.2986,-4.2986,-4.2986,-4.2986,-4.2986,-4.2986,-4.2986,-4.2986,-4.2986,-4.2986,-4.2986,-4.2986,-4.2986,-4.2986,-4.2434,-4.1555,-4.1555,-4.1229,-4.0674,0.0,0.0,0.0,0.0,0.0,0.0,0.0,0.0,0.0,0.0,0.0,0.0,0.0,0.0,0.0,0.0,0.0,0.0,0.0,0.0,0.0,0.0,0.0,0.0,0.0,0.0,0.0,0.0,0.0,0.0,0.0,0.0,0.0,0.0,0.0,0.0,0.0,-4.2986,-4.3073,-4.3295,-4.3295,-4.3295,0.0,0.0,0.0,0.0,0.0,0.0,-4.3295,-4.3478,-4.3609,-4.3498,-4.365,-4.3613,-4.3388,-4.3919,-4.4291,-4.4472,-4.4472,-4.4757,-4.5221,-4.5393,-4.5393,-4.5196,-4.5597,-4.5679,-4.54,-4.4136,-4.3726,-4.3838,-4.3613,-4.3726,-4.395,-4.3613,-4.3582,-4.3695,0.0,0.0,0.0,0.0,0.0,0.0,0.0,0.0,0.0,0.0,0.0,-4.2986,-4.2986,-4.2986,-4.2986,-4.2986,-4.2986,-4.2986,-4.2986,-4.2986,-4.2986,-4.2986,-4.2986,-4.2986,-4.2986,-4.2986,-4.2986,-4.2986,-4.2986,-4.2986,-4.2986,-4.2986,-4.2986,-4.2986,-4.2986,-4.2715,-4.2162,-4.2162,-4.1806,-4.125,-4.125,0.0,0.0,0.0,0.0,0.0,0.0,0.0,0.0,0.0,0.0,0.0,0.0,0.0,0.0,0.0,0.0,0.0,0.0,0.0,0.0,0.0,0.0,0.0,0.0,0.0,0.0,0.0,0.0,0.0,0.0,0.0,0.0,0.0,0.0,0.0,0.0,0.0,0.0,-4.3042,-4.3042,0.0,0.0,0.0,0.0,-4.2986,-4.324,-4.3295,-4.3042,-4.3827,-4.4105,-4.3822,-4.4267,-4.4543,-4.4543,-4.489,-4.503,-4.5055,-4.5055,-4.5253,-4.5565,-4.5279,-4.5253,-4.5482,-4.5253,-4.5164,-4.5164,-4.54,-4.5317,-4.5005,-4.5005,-4.5202,-4.5431,-4.5119,-4.5202,-4.5431,0.0,0.0,0.0,0.0,0.0,-4.2986,-4.2986,-4.2986,-4.2986,-4.2986,-4.2986,-4.2986,-4.2986,-4.2986,-4.2986,-4.2986,-4.2986,-4.2986,-4.2986,-4.2986,-4.2986,-4.2986,-4.2986,-4.2986,-4.2986,-4.2986,-4.2986,-4.2986,-4.2986,-4.2986,-4.2986,-4.2986,-4.2986,-4.2986,-4.2986,-4.2861,-4.274,-4.274,-4.2359,-4.1856,-4.1856,-4.1656,0.0,0.0,0.0,0.0,0.0,0.0,0.0,0.0,0.0,0.0,0.0,0.0,0.0,0.0,0.0,0.0,0.0,0.0,0.0,0.0,0.0,0.0,0.0,0.0,0.0,0.0,0.0,0.0,0.0,0.0,0.0,0.0,0.0,0.0,0.0,0.0,0.0,-4.324,-4.3129,0.0,-4.324,-4.34,-4.3514,-4.3514,-4.3929,-4.4155,-4.4041,-4.4332,-4.4457,-4.4342,-4.4691,-4.4969,-4.5171,-4.5639,-4.6053,-4.6431,-4.6824,-4.7206,-4.7503,-4.7718,-4.7838,-4.7718,-4.8017,-4.8076,-4.7863,-4.7983,-4.6754,-4.4792,-4.4792,-4.485,-4.4991,-4.5048,-4.5164,-4.5336,0.0,0.0,0.0,0.0,0.0,-4.2986,-4.2986,-4.2986,-4.2986,-4.2986,-4.2986,-4.2986,-4.2986,-4.2986,-4.2986,-4.2986,-4.2986,-4.2986,-4.2986,-4.2986,-4.2986,-4.2986,-4.2986,-4.2986,-4.2986,-4.2986,-4.2986,-4.2986,-4.2986,-4.2986,-4.2986,-4.2986,-4.2986,-4.2986,-4.2986,-4.2986,-4.2986,-4.2986,-4.276,-4.2489,-4.2489,-4.2208,-4.1932,0.0,0.0,0.0,0.0,0.0,0.0,0.0,0.0,0.0,0.0,0.0,0.0,0.0,0.0,0.0,0.0,0.0,0.0,0.0,0.0,0.0,0.0,0.0,0.0,0.0,0.0,0.0,0.0,0.0,0.0,0.0,0.0,0.0,0.0,-4.2986,-4.3148,-4.3493,-4.335,-4.3425,-4.3771,-4.3979,-4.4091,-4.4091,-4.4418,-4.4618,-4.4618,-4.4995,-4.5196,-4.5196,-4.5725,-4.6162,-4.6301,-4.6636,-4.7075,-4.7529,-4.8074,-4.8477,-4.8734,-4.926,-4.9362,-4.9175,-4.961,-4.9672,-4.945,-4.945,-4.8186,-4.6276,-4.5993,-4.5986,-4.6045,-4.6163,-4.6222,-4.6281,0.0,0.0,0.0,0.0,0.0,-4.2986,-4.2986,-4.2986,-4.2986,-4.2986,-4.2986,-4.2986,-4.2986,-4.2986,-4.2986,-4.2986,-4.2986,-4.2986,-4.2986,-4.2986,-4.2986,-4.2986,-4.2986,-4.2986,-4.2986,-4.2986,-4.2986,-4.2986,-4.2986,-4.2986,-4.2986,-4.2986,-4.2986,-4.2986,-4.2986,-4.2986,-4.2986,-4.2986,-4.2986,-4.2986,-4.2986,-4.2986,-4.2986,0.0,0.0,0.0,0.0,0.0,0.0,0.0,0.0,0.0,0.0,0.0,0.0,0.0,0.0,0.0,0.0,0.0,0.0,0.0,0.0,0.0,0.0,0.0,0.0,0.0,0.0,0.0,0.0,0.0,0.0,0.0,0.0,0.0,-4.3087,-4.3011,-4.3212,-4.3765,-4.3815,-4.4041,-4.4568,-4.4644,-4.4669,-4.4669,-4.4694,-4.4719,-4.4719,-4.5773,-4.6351,-4.6351,-4.738,-4.7933,-4.7958,-4.7983,-4.8133,-4.8469,-4.8775,-4.9027,-4.928,-4.9581,-4.9705,-4.9705,-4.9705,-4.9705,-4.9705,-4.9705,-4.9705,-4.9604,-4.8786,-4.864,-4.8887,-4.8578,-4.8429,-4.8404,0.0,0.0,0.0,-4.2986,-4.2986,-4.2986,-4.2986,-4.2986,-4.2986,-4.2986,-4.2986,-4.2986,-4.2986,-4.2986,-4.2986,-4.2986,-4.2986,-4.2986,-4.2986,-4.2986,-4.2986,-4.2986,-4.2986,-4.2986,-4.2986,-4.2986,-4.2986,-4.2986,-4.2986,-4.2986,-4.2986,-4.2986,-4.2986,-4.2986,-4.2986,-4.2986,-4.2986,-4.2986,-4.2986,-4.2986,-4.2986,-4.2986,-4.2986,0.0,0.0,0.0,0.0,0.0,0.0,0.0,0.0,0.0,0.0,0.0,0.0,0.0,0.0,0.0,0.0,0.0,0.0,0.0,0.0,0.0,0.0,0.0,0.0,0.0,0.0,0.0,0.0,0.0,0.0,0.0,-4.4292,-4.4192,-4.3664,-4.3915,-4.4217,-4.4367,-4.4392,-4.4468,-4.4618,-4.4995,-4.5422,-4.5824,-4.6225,-4.6602,-4.6979,-4.7305,-4.7481,-4.7481,-4.8159,-4.8736,-4.9138,-4.9515,-5.0006,-5.0499,-5.0821,-5.1028,-5.1093,-5.1376,-5.1583,-5.1583,-5.1583,-5.1714,-5.1883,-5.1648,-5.1714,-5.1716,-4.995,-4.9204,-4.9251,-4.9376,-4.9466,-4.9412,0.0,0.0,0.0,-4.2986,-4.2986,-4.2986,-4.2986,-4.2986,-4.2986,-4.2986,-4.2986,-4.2986,-4.2986,-4.2986,-4.2986,-4.2986,-4.2986,-4.2986,-4.2986,-4.2986,-4.2986,-4.2986,-4.2986,-4.2986,-4.2986,-4.2986,-4.2986,-4.2986,-4.2986,-4.2986,-4.2986,-4.2986,-4.2986,-4.2986,-4.2986,-4.2986,-4.2986,-4.2986,-4.2986,-4.2986,-4.2986,-4.2986,-4.2986,-4.2986,-4.2986,-4.2986,-4.2986,-4.2986,-4.2986,-4.2986,0.0,0.0,0.0,0.0,0.0,0.0,0.0,0.0,0.0,0.0,0.0,0.0,0.0,0.0,0.0,0.0,0.0,0.0,0.0,0.0,0.0,0.0,0.0,0.0,-4.4819,-4.4869,-4.4543,-4.4568,-4.4719,-4.497,-4.4995,-4.5171,-4.5623,-4.5974,-4.6401,-4.6928,-4.728,-4.7682,-4.8234,-4.8485,-4.8736,-4.8962,-4.9515,-5.0032,-5.0554,-5.0685,-5.1078,-5.1712,-5.2006,-5.22,-5.2399,-5.2654,-5.289,-5.3023,-5.2689,-5.2756,-5.3089,-5.2689,-5.2756,-5.2895,0.0,0.0,0.0,0.0,-5.0576,-5.0647,0.0,0.0,-4.2986,-4.2986,-4.2986,-4.2986,-4.2986,-4.2986,-4.2986,-4.2986,-4.2986,-4.2986,-4.2986,-4.2986,-4.2986,-4.2986,-4.2986,-4.2986,-4.2986,-4.2986,-4.2986,-4.2986,-4.2986,-4.2986,-4.2986,-4.2986,-4.2986,-4.2986,-4.2986,-4.2986,-4.2986,-4.2986,-4.2986,-4.2986,-4.2986,-4.2986,-4.2986,-4.2986,-4.2986,-4.2986,-4.2986,-4.2986,-4.2986,-4.2986,-4.2986,-4.2986,-4.2986,-4.2986,-4.2986,-4.2986,0.0,0.0,0.0,0.0,0.0,0.0,0.0,0.0,0.0,0.0,0.0,0.0,0.0,0.0,0.0,0.0,0.0,0.0,0.0,0.0,0.0,0.0,0.0,0.0,-4.5246,-4.5573,-4.5573,-4.5196,-4.5095,-4.5623,-4.5673,-4.6075,-4.7129,-4.723,-4.7456,-4.8058,-4.8109,-4.8385,-4.9012,-4.9515,0.0,0.0,0.0,-5.1573,-5.1813,-5.1623,-5.1848,-5.2327,-5.2597,-5.2851,-5.3212,-5.3385,-5.3614,-5.3929,-5.3204,-5.3136,-5.3546,-5.3136,-5.3204,-5.3376,-5.2352,-5.1946,-5.1854,-5.1497,-5.1605,-5.1844,0.0,-4.2986,-4.2986,-4.2986,-4.2986,-4.2986,-4.2986,-4.2986,-4.2986,-4.2986,-4.2986,-4.2986,-4.2986,-4.2986,-4.2986,-4.2986,-4.2986,-4.2986,-4.2986,-4.2986,-4.2986,-4.2986,-4.2986,-4.2986,-4.2986,-4.2986,-4.2986,-4.2986,-4.2986,-4.2986,-4.2986,-4.2986,-4.2986,-4.2986,-4.2986,-4.2986,-4.2986,-4.2986,-4.2986,-4.2986,-4.2986,-4.2986,-4.2986,-4.2986,-4.2986,-4.2986,-4.2986,-4.2986,-4.2986,-4.2986,-4.2986,-4.2986,-4.2986,-4.2986,0.0,0.0,0.0,0.0,0.0,0.0,0.0,0.0,0.0,0.0,0.0,0.0,0.0,0.0,0.0,0.0,0.0,0.0,0.0,-4.5924,-4.6075,-4.615,-4.615,-4.6451,-4.6642,-4.6803,-4.6803,-4.7054,-4.7682,-4.7757,-4.8184,-4.9188,-4.9264,-4.9715,-5.0745,-5.0896,-5.0996,-5.1096,-5.1649,-5.195,-5.206,-5.2717,-5.2944,-5.2808,-5.3113,0.0,-5.2959,-5.3017,-5.3204,-5.3546,-5.3136,-5.3273,-5.3861,-5.3546,-5.341,-5.347,-5.2986,-5.2664,-5.2387,-5.1889,-5.191,-5.2134,0.0,-4.2986,-4.2986,-4.2986,-4.2986,-4.2986,-4.2986,-4.2986,-4.2986,-4.2986,-4.2986,-4.2986,-4.2986,-4.2986,-4.2986,-4.2986,-4.2986,-4.2986,-4.2986,-4.2986,-4.2986,-4.2986,-4.2986,-4.2986,-4.2986,-4.2986,-4.2986,-4.2986,-4.2986,-4.2986,-4.2986,-4.2986,-4.2986,-4.2986,-4.2986,-4.2986,-4.2986,-4.2986,-4.2986,-4.2986,-4.2986,-4.2986,-4.2986,-4.2986,-4.2986,-4.2986,-4.2986,-4.2986,-4.2986,-4.2986,-4.2986,-4.2986,-4.2986,-4.3073,-4.3184,0.0,0.0,0.0,0.0,0.0,0.0,0.0,0.0,0.0,0.0,0.0,0.0,0.0,0.0,-4.5221,-4.5799,0.0,-4.5999,-4.6276,-4.6301,-4.6401,-4.6677,-4.6954,-4.7068,-4.7068,-4.7355,-4.7732,-4.8284,-4.8586,-4.9113,-4.9941,-5.0268,-5.0795,-5.1649,-5.1699,-5.1825,-5.2101,-5.2581,-5.28,-5.28,-5.3283,-5.3478,-5.3452,-5.3478,-5.3478,-5.3452,-5.3273,-5.341,-5.3725,-5.3136,-5.3204,-5.3725,-5.3546,-5.341,-5.3179,-5.3284,-5.3047,-5.2725,-5.2447,-5.2548,-5.2842,0.0,-4.2986,-4.2986,-4.2986,-4.2986,-4.2986,-4.2986,-4.2986,-4.2986,-4.2986,-4.2986,-4.2986,-4.2986,-4.2986,-4.2986,-4.2986,-4.2986,-4.2986,-4.2986,-4.2986,-4.2986,-4.2986,-4.2986,-4.2986,-4.2986,-4.2986,-4.2986,-4.2986,-4.2986,-4.2986,-4.2986,-4.2986,-4.2986,-4.2986,-4.2986,-4.2986,-4.2986,-4.2986,-4.2986,-4.2986,-4.2986,-4.2986,-4.2986,-4.2986,-4.2986,-4.2986,-4.2986,-4.2986,-4.3042,-4.3073,-4.3042,-4.3042,-4.3406,-4.3406,-4.3406,-4.3657,-4.3738,0.0,0.0,0.0,0.0,0.0,0.0,0.0,0.0,-4.5027,-4.4945,-4.5522,-4.5648,-4.5773,-4.6225,-4.6301,-4.6301,-4.6301,-4.6401,-4.6627,-4.7079,-4.7305,-4.7481,-4.7606,-4.7983,-4.846,-4.9038,-4.959,-5.0142,-5.0695,-5.1172,-5.1674,-5.2226,-5.2277,-5.2477,-5.2904,-5.3204,-5.341,-5.341,-5.3478,-5.3614,-5.3793,-5.3614,-5.3614,-5.3793,-5.3546,-5.3546,-5.3725,-5.3136,-5.3067,-5.341,-5.341,-5.3204,-5.2929,-5.3273,-5.3204,-5.2929,-5.2929,-5.3136,-5.341,0.0,-4.2986,-4.2986,-4.2986,-4.2986,-4.2986,-4.2986,-4.2986,-4.2986,-4.2986,-4.2986,-4.2986,-4.2986,-4.2986,-4.2986,-4.2986,-4.2986,-4.2986,-4.2986,-4.2986,-4.2986,-4.2986,-4.2986,-4.2986,-4.2986,-4.2986,-4.2986,-4.2986,-4.2986,-4.2986,-4.2986,-4.2986,-4.2986,-4.2986,-4.2986,-4.2986,-4.2986,-4.2986,-4.2986,-4.2986,-4.2986,-4.2986,-4.2986,-4.2986,-4.2986,-4.2986,-4.2986,-4.2986,-4.3042,-4.3295,-4.3184,-4.324,-4.4778,-4.4235,-4.3295,-4.4481,-4.418,-4.3406,-4.3129,-4.3394,-4.4269,-4.6412,-4.5727,-4.4727,0.0,-4.5607,-4.5547,-4.61,-4.6225,-4.6225,-4.6301,-4.6301,-4.6301,-4.6301,-4.6728,-4.7054,-4.7068,-4.7983,-4.8761,-4.9264,-4.9364,-4.9615,-5.0167,-5.0745,-5.1322,-5.1875,-5.1975,-5.2251,-5.2804,-5.2829,-5.2854,-5.2929,-5.2929,-5.2998,-5.2998,-5.3341,-5.3341,-5.3067,-5.3341,-5.3341,-5.2998,-5.2998,-5.2998,-5.2998,-5.2929,-5.2929,-5.2998,-5.2998,-5.2929,-5.2929,-5.2929,-5.2929,-5.2929,-5.2929,-5.2929,-5.2998,0.0,-4.2986,-4.2986,-4.2986,-4.2986,-4.2986,-4.2986,-4.2986,-4.2986,-4.2986,-4.2986,-4.2986,-4.2986,-4.2986,-4.2986,-4.2986,-4.2986,-4.2986,-4.2986,-4.2986,-4.2986,-4.2986,-4.2986,-4.2986,-4.2986,-4.2986,-4.2986,-4.2986,-4.2986,-4.2986,-4.2986,-4.2986,-4.2986,-4.2986,-4.2986,-4.2986,-4.2986,-4.2986,-4.2986,-4.2986,-4.2986,-4.2986,-4.2986,-4.2986,-4.2986,-4.3042,-4.3184,-4.3572,0.0,-4.3738,-4.437,-4.5074,-4.4696,-4.5101,-4.5529,-4.4778,-4.5208,-4.5901,-4.5982,-4.6326,-4.6884,-4.7802,-4.7374,-4.6705,-4.666,-4.6425,-4.6263,-4.625,-4.6301,-4.6301,-4.6301,-4.6577,-4.6803,-4.6803,-4.723,-4.7707,-4.8033,-4.8761,-4.9464,-5.0017,-5.0645,-5.1021,-5.0921,-5.1423,-5.185,-5.2076,-5.2402,-5.2678,-5.2929,-5.2929,-5.2929,-5.2929,-5.3136,-5.3136,-5.2929,-5.3273,-5.3273,-5.2929,-5.3067,-5.3067,-5.2929,-5.2929,-5.2929,-5.2929,-5.2929,-5.2929,-5.2929,-5.2929,-5.2929,-5.2929,-5.2929,-5.2929,-5.2929,-5.2929,-5.2929,-5.2929,0.0,-4.2986,-4.2986,-4.2986,-4.2986,-4.2986,-4.2986,-4.2986,-4.2986,-4.2986,-4.2986,-4.2986,-4.2986,-4.2986,-4.2986,-4.2986,-4.2986,-4.2986,-4.2986,-4.2986,-4.2986,-4.2986,-4.2986,-4.2986,-4.2986,-4.2986,-4.2986,-4.2986,-4.2986,-4.2986,-4.2986,-4.2986,-4.2986,-4.2986,-4.2986,-4.2986,-4.2986,-4.2986,-4.2986,-4.2986,-4.2986,-4.2986,-4.2986,-4.2986,-4.2986,-4.3042,-4.324,-4.3713,-4.437,-4.4341,-4.5262,-4.6267,-4.5635,-4.6399,-4.7252,-4.6032,-4.6612,-4.7953,-4.9022,-4.9156,-4.9116,-4.9364,-4.8915,-4.8228,-4.7515,-4.7078,-4.6746,-4.6506,-4.6487,-4.6552,-4.6552,-4.6979,-4.7355,-4.7355,-4.7807,-4.8335,-4.8912,-4.9464,-5.0092,-5.0795,-5.1599,-5.2,-5.1749,-5.2101,-5.2327,-5.2327,-5.2703,-5.2929,-5.2929,-5.2929,-5.2929,-5.2929,-5.3204,-5.3204,-5.2929,-5.3204,-5.3204,-5.2929,-5.2929,-5.2929,-5.2929,-5.2929,-5.2929,-5.2929,-5.2929,-5.2929,-5.2929,-5.2929,-5.2929,-5.2929,-5.2929,-5.2929,-5.2929,-5.2929,-5.2929,-5.2929,0.0,0.0,-4.2986,-4.2986,-4.2986,-4.2986,-4.2986,-4.2986,-4.2986,-4.2986,-4.2986,-4.2986,-4.2986,-4.2986,-4.2986,-4.2986,-4.2986,-4.2986,-4.2986,-4.2986,-4.2986,-4.2986,-4.2986,-4.2986,-4.2986,-4.2986,-4.2986,-4.2986,-4.2986,-4.2986,-4.2986,-4.2986,-4.2986,-4.2986,-4.2986,-4.2986,-4.2986,-4.2986,-4.2986,-4.2986,-4.2986,-4.2986,-4.2986,-4.2986,-4.2986,-4.2986,-4.3042,-4.3184,-4.3657,-4.4967,-4.5502,-4.5979,-4.8596,-4.8368,-4.735,-4.8638,-4.8613,-4.8674,-5.1356,-5.101,-5.0157,-5.1315,-5.0296,-4.8736,-4.7912,-4.7257,-4.6806,-4.6806,-4.6935,-4.7043,-4.7043,-4.7531,-4.7883,-4.7883,-4.836,-4.8937,-4.949,-5.0042,-5.0795,-5.1925,-5.2076,-5.2302,-5.2829,-5.2904,-5.2904,-5.2904,-5.2929,-5.2929,-5.2929,-5.2929,-5.2929,-5.2929,-5.2929,-5.2929,-5.2929,-5.2929,-5.2929,-5.2929,-5.2929,-5.2929,-5.2929,-5.2929,-5.2929,-5.2929,-5.2929,-5.2929,-5.2929,-5.2929,-5.2929,-5.2929,-5.2929,-5.2929,-5.2929,-5.2929,-5.2929,-5.2929,0.0,0.0,0.0,0.0,0.0,-4.2986,-4.2986,-4.2986,-4.2986,-4.2986,-4.2986,0.0,0.0,0.0,0.0,0.0,-4.2986,-4.2986,-4.2986,-4.2986,-4.2986,-4.2986,-4.2986,-4.2986,-4.2986,-4.2986,-4.2986,-4.2986,-4.2986,-4.2986,-4.2986,-4.2986,-4.2986,-4.2986,-4.2986,-4.2986,-4.2986,-4.2986,-4.2986,-4.2986,-4.2986,-4.2986,-4.2986,-4.2986,-4.2986,-4.2986,0.0,-4.3547,-4.4453,-4.5688,-4.6816,-4.7763,-4.8396,-4.9141,-4.996,-5.072,-5.0904,-5.1184,-5.2807,-5.3217,-5.31,-5.2881,-5.2377,-5.1373,-4.9362,-4.8758,-4.8399,-4.7778,-4.7526,-4.7536,-4.7977,-4.8321,-4.8485,-4.8485,-4.9264,-4.9916,-5.0117,-5.0946,-5.1674,-5.2051,-5.2427,0.0,-5.2904,-5.2929,-5.2929,-5.2929,-5.2929,-5.2929,-5.2929,-5.2929,-5.2929,-5.2929,-5.2929,-5.2929,-5.2929,-5.3281,-5.3432,-5.3457,-5.3833,-5.4009,-5.4009,-5.4009,-5.4009,-5.4009,-5.4009,-5.3808,-5.3432,-5.3432,-5.3231,-5.2929,-5.2929,-5.2929,-5.2929,-5.2929,-5.2929,-5.2929,0.0,0.0,0.0,0.0,0.0,0.0,0.0,0.0,0.0,0.0,0.0,0.0,0.0,0.0,0.0,0.0,0.0,-4.2986,-4.2986,-4.2986,-4.2986,-4.2986,-4.2986,-4.2986,-4.2986,-4.2986,-4.2986,-4.2986,-4.2986,-4.2986,-4.2986,-4.2986,-4.2986,-4.2986,-4.2986,-4.2986,-4.2986,-4.2986,-4.2986,-4.2986,-4.2986,-4.2986,-4.2986,-4.2986,-4.2986,0.0,-4.3129,-4.3878,-4.5021,-4.6242,-4.7661,-4.8944,-4.9092,-5.0271,-5.169,-5.2326,-5.2712,-5.3085,-5.3909,-5.4547,-5.4722,-5.3652,-5.3413,-5.2857,-5.074,-5.0035,-4.9706,-4.9584,-4.8963,-4.861,-4.9312,-4.9379,-4.9266,-4.9339,-4.9967,-5.0569,-5.0971,-5.1649,-5.2176,-5.2377,-5.2703,-5.2929,0.0,-5.2929,-5.2929,-5.2929,-5.2929,-5.2929,-5.2929,-5.2929,-5.2929,-5.2929,-5.3105,-5.3206,-5.3206,-5.3733,-5.4009,-5.4009,-5.4386,-5.4561,-5.4561,-5.4561,-5.4561,-5.4561,-5.4561,-5.4361,-5.4009,-5.4009,-5.3683,-5.3206,-5.3206,-5.308,-5.2929,-5.2929,-5.2929,-5.2929,0.0,0.0,0.0,0.0,0.0,0.0,0.0,0.0,0.0,0.0,0.0,0.0,0.0,0.0,0.0,0.0,0.0,0.0,-4.2986,-4.2986,-4.2986,-4.2986,-4.2986,-4.2986,-4.2986,-4.2986,-4.2986,-4.2986,-4.2986,-4.2986,-4.2986,-4.2986,-4.2986,-4.2986,-4.2986,-4.2986,-4.2986,-4.2986,-4.2986,-4.2986,-4.2986,-4.2986,-4.2986,-4.2986,-4.2986,-4.3042,-4.3295,-4.4071,-4.5209,-4.663,-4.8088,-4.9513,-5.0852,-5.1708,-5.2468,-5.3506,-5.4022,-5.4351,-5.4726,-5.5006,-5.4926,-5.3808,-5.3466,-5.3203,-5.211,-5.1181,-5.0797,-5.196,-5.0949,-5.0178,-5.104,-5.0607,-5.0178,-5.0383,-5.0444,-5.0845,-5.195,-5.2126,-5.2352,-5.2854,-5.2929,-5.2929,-5.2929,-5.2929,-5.2929,-5.2929,-5.2929,-5.2929,-5.2929,-5.2929,-5.2929,-5.298,-5.3432,-5.3708,-5.3758,-5.431,-5.4612,-5.4637,-5.4637,-5.4637,-5.4637,-5.4637,-5.4637,-5.4637,-5.4637,-5.4708,-5.4612,-5.4612,-5.426,-5.3733,-5.3708,-5.3406,-5.2955,-5.2929,-5.2929,-5.2929,0.0,0.0,0.0,0.0,0.0,0.0,0.0,0.0,0.0,0.0,0.0,0.0,0.0,0.0,0.0,0.0,0.0,0.0,-4.2986,-4.2986,-4.2986,-4.2986,-4.2986,-4.2986,-4.2986,-4.2986,-4.2986,-4.2986,-4.2986,-4.2986,-4.2986,-4.2986,-4.2986,-4.2986,-4.2986,-4.2986,-4.2986,-4.2986,-4.2986,-4.2986,-4.2986,-4.2986,-4.2986,-4.2986,-4.2986,-4.3042,-4.3073,-4.3987,-4.5342,-4.6916,-4.8944,-5.0864,-5.1703,-5.2396,-5.3084,-5.3853,-5.4501,-5.497,-5.5048,-5.5158,-5.5128,-5.4794,-5.4743,-5.4554,-5.3864,-5.3528,-5.3104,-5.2318,-5.157,-5.1093,-5.0783,-5.0194,-4.996,-5.067,-5.0927,-5.1297,-5.2,-5.2452,-5.2779,-5.2904,-5.2929,-5.2929,-5.2929,-5.2929,-5.2929,-5.2929,-5.2929,-5.2929,-5.2929,-5.2929,-5.3105,-5.3482,-5.3632,-5.3909,-5.4336,-5.4888,-5.539,-5.5792,-5.5792,-5.5792,-5.5792,-5.5792,-5.5792,-5.5792,-5.5792,-5.5566,-5.5189,-5.5189,-5.4838,-5.431,-5.3884,-5.3632,-5.3457,-5.308,-5.2929,-5.2929,0.0,0.0,0.0,0.0,0.0,0.0,0.0,0.0,0.0,0.0,0.0,0.0,0.0,0.0,0.0,0.0,0.0,0.0,0.0,-4.2986,-4.2986,-4.2986,-4.2986,-4.2986,-4.2986,-4.2986,-4.2986,-4.2986,-4.2986,-4.2986,-4.2986,-4.2986,-4.2986,-4.2986,-4.2986,-4.2986,-4.2986,-4.2986,-4.2986,0.0,0.0,-4.2986,-4.2986,-4.2986,-4.2986,-4.2986,-4.2986,-4.4289,-4.6215,-4.7785,-4.9756,-5.1768,-5.2426,-5.3084,-5.3773,-5.4431,-5.491,-5.5179,-5.5179,-5.5179,-5.5179,-5.5179,-5.5418,-5.5564,-5.524,-5.5211,-5.495,-5.3915,-5.287,-5.1987,-5.1367,-5.0461,-5.0125,-5.0933,-5.1204,0.0,-5.2352,-5.2729,-5.2929,0.0,-5.2929,0.0,-5.2929,-5.2929,-5.2929,-5.2929,-5.2929,-5.303,-5.3256,-5.3256,-5.3507,-5.4059,-5.431,-5.4712,-5.529,-5.5591,-5.5917,-5.6219,-5.6219,-5.6219,-5.6219,-5.6219,-5.6219,-5.6219,-5.6219,-5.6043,-5.5742,-5.5742,-5.5415,-5.4888,-5.4561,-5.4135,-5.3658,-5.3381,-5.313,-5.2929,0.0,0.0,0.0,0.0,0.0,0.0,0.0,0.0,0.0,0.0,-4.2986,-4.2986,0.0,0.0,0.0,0.0,0.0,0.0,0.0,0.0,-4.2986,-4.2986,-4.2986,-4.2986,-4.2986,-4.2986,-4.2986,-4.2986,-4.2986,-4.2986,-4.2986,-4.2986,-4.2986,-4.2986,-4.2986,-4.2986,-4.2986,-4.2986,-4.2986,-4.2986,-4.2986,-4.2986,-4.2986,0.0,-4.2986,-4.2986,-4.3042,-4.4698,-4.7122,-4.8603,-5.0496,-5.2306,-5.2965,-5.3653,-5.4341,-5.4999,-5.5179,-5.5179,-5.5179,-5.5179,-5.5209,-5.5299,-5.5748,-5.6226,-5.6169,-5.6236,-5.6095,-5.5423,-5.4027,-5.2719,-5.2032,-5.0919,-5.0417,-5.133,0.0,-5.1749,-5.2779,-5.2929,-5.2929,-5.2929,-5.2929,-5.2929,-5.2929,-5.2929,-5.2929,-5.2929,-5.298,-5.3231,-5.3683,-5.3783,-5.4084,-5.4662,-5.5214,-5.5717,-5.6219,-5.6219,-5.6219,-5.6219,-5.6219,-5.6219,-5.6219,-5.6219,-5.6219,-5.6219,-5.6219,-5.6219,-5.6219,-5.6219,-5.5942,-5.5491,-5.5415,-5.4737,-5.3808,-5.3733,-5.3381,-5.2929,0.0,0.0,0.0,0.0,0.0,0.0,0.0,0.0,0.0,0.0,-4.2986,-4.2986,0.0,0.0,0.0,0.0,0.0,0.0,0.0,0.0,0.0,-4.2986,-4.2986,-4.2986,-4.2986,-4.2986,-4.2986,-4.2986,-4.2986,-4.2986,-4.2986,-4.2986,-4.2986,-4.2986,-4.2986,-4.2986,-4.2986,-4.2986,-4.2986,-4.2986,-4.2986,-4.2986,-4.2986,-4.2986,0.0,0.0,-4.324,-4.4398,-4.6085,-4.7989,-5.0254,-5.2306,-5.2965,-5.3653,-5.4341,-5.4999,-5.5179,-5.5179,-5.5179,-5.5179,-5.5329,-5.5867,-5.6077,-5.6125,-5.59,-5.6087,0.0,-5.3484,-5.2795,-5.2359,-5.1626,-5.0893,-5.0776,-5.2152,-5.2153,-5.2176,-5.2829,-5.2929,-5.2929,0.0,-5.2929,-5.2929,-5.2929,-5.2929,-5.2929,-5.2929,-5.3331,-5.3607,-5.3708,-5.416,-5.4662,-5.5239,-5.5792,-5.6118,-5.6219,-5.6219,-5.6219,-5.6219,-5.6219,-5.6219,-5.6219,-5.6219,-5.6219,-5.6219,-5.6219,-5.6219,-5.6219,-5.6219,-5.6168,-5.6018,-5.5566,-5.4988,-5.4361,-5.3884,-5.3381,-5.2929,0.0,0.0,0.0,0.0,0.0,0.0,0.0,-4.2986,-4.2986,-4.2986,-4.2986,-4.2986,-4.2986,-4.2986,-4.2986,0.0,0.0,0.0,0.0,0.0,0.0,-4.2986,-4.2986,-4.2986,-4.2986,-4.2986,-4.2986,-4.2986,0.0,-4.2986,-4.2986,-4.2986,-4.2986,-4.2986,-4.2986,-4.2986,-4.2986,-4.2986,-4.2986,-4.2986,-4.2986,-4.2986,-4.2986,-4.2986,0.0,0.0,-4.3129,-4.4277,-4.6008,-4.7713,-4.9984,-5.2267,-5.3396,-5.4192,-5.479,-5.5089,-5.5179,-5.5179,-5.5179,-5.5179,-5.5359,-5.6017,-5.6406,-5.6728,-5.6932,0.0,0.0,-5.3915,-5.3152,-5.248,-5.1124,-5.0842,-5.1188,-5.2153,-5.2236,-5.2302,-5.2854,-5.2929,-5.2929,-5.2929,-5.2929,-5.2929,-5.2929,-5.2929,-5.303,-5.3306,-5.3833,-5.416,-5.416,-5.4963,-5.5541,-5.5817,-5.6068,-5.6219,-5.6219,-5.6219,-5.6219,-5.6219,-5.6219,-5.6219,-5.6219,-5.6219,-5.6219,-5.6219,-5.6219,-5.6219,-5.6219,-5.6219,-5.6219,-5.6194,-5.5917,-5.5491,-5.4938,-5.4361,-5.3808,-5.3281,0.0,0.0,0.0,0.0,0.0,0.0,-4.2986,-4.2986,-4.2986,-4.2986,-4.2986,-4.2986,-4.2986,-4.2986,-4.2986,0.0,0.0,0.0,0.0,0.0,0.0,0.0,0.0,0.0,-4.2986,0.0,0.0,-4.2986,-4.2986,0.0,0.0,0.0,0.0,0.0,-4.2986,-4.2986,-4.2986,-4.2986,-4.2986,0.0,0.0,-4.2986,0.0,0.0,0.0,0.0,0.0,-4.4126,-4.5917,-4.7696,-4.9844,-5.207,-5.3841,-5.479,-5.5179,-5.5179,-5.5179,-5.5179,-5.5179,-5.5299,-5.5568,-5.6196,-5.6855,-5.7378,-5.7713,-5.7257,0.0,-5.4386,-5.3332,-5.2369,-5.0937,-5.1138,-5.1649,-5.2201,-5.2277,-5.2427,-5.2879,-5.2929,-5.2929,0.0,-5.2929,0.0,-5.2929,-5.303,0.0,-5.3658,-5.4336,-5.4787,-5.4913,-5.5742,-5.6219,-5.6219,-5.6219,-5.6219,-5.6219,-5.6219,-5.6219,-5.6219,-5.6219,-5.6219,-5.6219,-5.6219,-5.6219,-5.6219,-5.6219,-5.6219,-5.6219,-5.6219,-5.6219,-5.6219,-5.6219,-5.5867,-5.5315,-5.4762,-5.421,-5.3632,0.0,0.0,0.0,0.0,0.0,0.0,-4.2986,-4.2986,-4.2986,-4.2986,-4.2986,-4.2986,-4.2986,-4.2986,-4.2986,0.0,0.0,0.0,0.0,0.0,0.0,0.0,0.0,0.0,0.0,0.0,0.0,-4.2986,-4.2986,0.0,0.0,0.0,0.0,0.0,0.0,-4.2986,-4.2986,-4.2986,0.0,0.0,0.0,0.0,0.0,0.0,0.0,0.0,0.0,-4.3762,-4.5248,-4.8055,-4.9867,-5.1392,-5.4192,-5.5149,-5.5179,-5.5179,-5.5179,0.0,-5.5179,-5.5628,-5.6226,-5.6855,-5.7513,-5.7797,-5.7011,0.0,-5.4623,-5.3032,-5.1825,-5.1224,-5.1601,-5.185,-5.2201,-5.2754,-5.2854,-5.2879,-5.2929,-5.2929,-5.2929,-5.2929,0.0,0.0,-5.2929,-5.3356,-5.3658,-5.3708,-5.4712,-5.5541,-5.6043,-5.6168,-5.6219,-5.6219,-5.6219,-5.6219,-5.6219,-5.6219,-5.6219,-5.6219,-5.6219,-5.6219,-5.6219,-5.6219,-5.6219,-5.6219,-5.6219,-5.6219,-5.6219,-5.6219,-5.6219,-5.6219,-5.6219,-5.5867,-5.5315,-5.4762,-5.421,-5.3632,0.0,0.0,0.0,0.0,0.0,0.0,-4.2986,-4.2986,-4.2986,-4.2986,-4.2986,-4.2986,-4.2986,-4.2986,-4.2986,-4.2986,0.0,0.0,0.0,0.0,0.0,0.0,0.0,0.0,0.0,0.0,-4.2986,-4.2986,-4.2986,0.0,0.0,0.0,0.0,0.0,0.0,-4.2986,-4.2986,-4.2986,0.0,0.0,0.0,0.0,0.0,0.0,0.0,0.0,0.0,0.0,-4.5056,-4.7691,-4.8949,-4.9966,-5.3116,-5.4016,-5.4068,-5.4976,-5.5179,-5.5269,-5.5658,-5.5987,-5.6406,-5.7453,-5.7932,-5.8131,-5.8128,0.0,-5.4734,-5.4254,-5.2675,-5.1626,-5.2184,-5.2472,-5.2747,-5.3179,-5.3067,-5.2929,-5.2929,-5.2929,-5.2929,-5.2929,-5.2929,-5.2929,0.0,0.0,-5.3984,-5.4662,-5.544,-5.5968,-5.6194,-5.6219,-5.6219,-5.6219,-5.6219,-5.6219,-5.6219,-5.6219,-5.6219,-5.6219,-5.6219,-5.6219,-5.6219,-5.6219,-5.6219,-5.6219,-5.6219,-5.6219,-5.6219,-5.6219,-5.6219,-5.6219,-5.6219,-5.6068,-5.5767,-5.4888,-5.4411,-5.411,0.0,0.0,0.0,0.0,0.0,-4.2986,-4.2986,-4.2986,-4.2986,-4.2986,-4.2986,-4.2986,-4.2986,-4.2986,-4.2986,-4.2986,-4.2986,0.0,0.0,0.0,0.0,0.0,0.0,0.0,0.0,0.0,-4.2986,-4.2986,-4.2986,-4.2986,0.0,0.0,0.0,0.0,0.0,0.0,0.0,0.0,0.0,0.0,0.0,0.0,0.0,0.0,0.0,0.0,0.0,0.0,0.0,0.0,0.0,-4.9194,-5.2295,-5.3121,-5.3308,-5.4743,-5.5179,-5.5329,-5.6038,-5.6316,-5.6705,-5.7842,-5.8261,-5.8423,0.0,0.0,-5.4671,-5.4527,-5.2952,-5.1823,-5.238,-5.2689,-5.2998,-5.3273,-5.3067,-5.2929,-5.2929,-5.2929,-5.2929,-5.2929,0.0,-5.2929,-5.2929,-5.3557,-5.4411,-5.5541,-5.5993,-5.6219,-5.6219,-5.6219,-5.6219,-5.6219,-5.6219,-5.6219,-5.6219,-5.6219,-5.6219,-5.6219,-5.6219,-5.6219,-5.6219,-5.6219,-5.6219,-5.6219,-5.6219,-5.6219,-5.6219,-5.6219,-5.6219,-5.6219,-5.6219,-5.6219,-5.6068,-5.4963,-5.4561,-5.4411,0.0,0.0,0.0,0.0,0.0,-4.2986,-4.2986,-4.2986,-4.2986,-4.2986,-4.2986,-4.2986,-4.2986,-4.2986,-4.2986,-4.2986,-4.2986,0.0,0.0,0.0,0.0,0.0,0.0,0.0,0.0,0.0,-4.2986,-4.2986,-4.2986,-4.2986,-4.2986,-4.2986,-4.2986,-4.2986,0.0,0.0,0.0,0.0,0.0,0.0,0.0,0.0,-4.2986,0.0,0.0,0.0,0.0,0.0,0.0,0.0,0.0,0.0,0.0,-5.3016,-5.3308,-5.4743,-5.5179,-5.5329,-5.6038,-5.6615,-5.7244,-5.7962,-5.862,-5.8689,0.0,-5.5502,-5.4074,-5.3014,-5.2039,-5.1448,-5.2,-5.2553,-5.2929,-5.2929,-5.2929,-5.2929,-5.2929,-5.2929,-5.2929,0.0,-5.2929,-5.2929,-5.2929,-5.3909,-5.5013,-5.6118,-5.6219,-5.6219,-5.6219,-5.6219,-5.6219,-5.6219,-5.6219,-5.6219,-5.6219,-5.6219,-5.6219,-5.6219,-5.6219,-5.6219,-5.6219,-5.6219,-5.6219,-5.6219,-5.6219,-5.6219,-5.6219,-5.6219,-5.6219,-5.6219,-5.6219,-5.6219,-5.6068,-5.4963,-5.4561,-5.4411,0.0,0.0,0.0,0.0,0.0,0.0,-4.2986,-4.2986,-4.2986,-4.2986,-4.2986,-4.2986,-4.2986,-4.2986,-4.2986,-4.2986,-4.2986,0.0,0.0,0.0,0.0,0.0,0.0,0.0,0.0,-4.2986,-4.2986,-4.2986,-4.2986,-4.2986,-4.2986,-4.2986,-4.2986,-4.2986,-4.2986,-4.2986,0.0,0.0,0.0,0.0,0.0,-4.2986,-4.3011,0.0,0.0,0.0,0.0,0.0,0.0,0.0,0.0,0.0,0.0,0.0,0.0,-5.3174,-5.4406,-5.5418,-5.6496,-5.6944,-5.7363,-5.8501,-5.8128,-5.7608,-5.8221,-5.5415,-5.3152,-5.4677,-5.3048,-5.1641,-5.2843,-5.2941,-5.2998,-5.3273,-5.3067,-5.2929,-5.2929,-5.2929,0.0,-5.2929,-5.2929,-5.3231,-5.3984,-5.4361,-5.5013,-5.6118,-5.6219,-5.6219,-5.6219,-5.6219,-5.6219,-5.6219,-5.6219,-5.6219,-5.6219,-5.6219,-5.6219,-5.6219,-5.6219,-5.6219,-5.6219,-5.6219,-5.6219,-5.6219,-5.6219,-5.6219,-5.6219,-5.6219,-5.6219,-5.6219,-5.6219,-5.6219,-5.6068,-5.4963,-5.4561,-5.4411,0.0,0.0,0.0,0.0,0.0,0.0,-4.2986,-4.2986,-4.2986,-4.2986,-4.2986,-4.2986,-4.2986,-4.2986,-4.2986,-4.2986,-4.2986,0.0,0.0,0.0,0.0,0.0,0.0,0.0,-4.2986,-4.2986,-4.2986,-4.2986,-4.2986,-4.2986,-4.2986,-4.2986,-4.2986,-4.2986,-4.2986,-4.2986,0.0,0.0,0.0,0.0,-4.3212,-4.3288,-4.3338,0.0,0.0,0.0,0.0,0.0,0.0,0.0,0.0,0.0,0.0,0.0,0.0,0.0,-5.392,-5.4893,-5.6512,-5.704,-5.7404,-5.8668,-5.7749,-5.6792,-5.7804,-5.5057,-5.2819,-5.4566,-5.3166,-5.1942,-5.3053,-5.3067,-5.2998,-5.3204,-5.3067,-5.2929,-5.2929,-5.2929,-5.2929,-5.2929,-5.3105,-5.3582,-5.4486,-5.4762,-5.5239,-5.6143,-5.6219,-5.6219,-5.6219,-5.6219,-5.6219,-5.6219,-5.6219,-5.6219,-5.6219,-5.6219,-5.6219,-5.6219,-5.6219,-5.6219,-5.6219,-5.6219,-5.6219,-5.6219,-5.6219,-5.6219,0.0,-5.6219,-5.6219,-5.6219,-5.6219,-5.6219,-5.6068,-5.4963,-5.4561,-5.4411,0.0,0.0,0.0,0.0,0.0,0.0,0.0,-4.2986,-4.2986,-4.2986,-4.2986,-4.2986,-4.2986,-4.2986,-4.2986,-4.2986,-4.2986,0.0,0.0,0.0,0.0,0.0,0.0,0.0,-4.2986,-4.2986,-4.2986,-4.2986,-4.2986,-4.2986,-4.2986,-4.2986,-4.2986,-4.2986,-4.2986,-4.2986,-4.2986,-4.3011,0.0,0.0,-4.3639,-4.3865,0.0,0.0,0.0,0.0,0.0,0.0,0.0,0.0,0.0,0.0,0.0,0.0,0.0,0.0,0.0,0.0,0.0,-5.6888,-5.729,-5.8158,-5.7189,-5.5993,-5.6108,-5.4315,0.0,-5.3138,-5.2649,-5.2277,-5.2829,-5.2929,-5.2929,-5.2929,-5.2929,-5.2929,-5.2929,-5.2929,-5.2929,-5.2929,-5.3381,-5.3934,-5.4511,-5.5064,-5.5616,-5.6168,-5.6219,-5.6219,-5.6219,-5.6219,-5.6219,-5.6219,-5.6219,-5.6219,-5.6219,-5.6219,-5.6219,-5.6219,-5.6219,-5.6219,-5.6219,-5.6219,-5.6219,-5.6219,-5.6219,-5.6219,-5.6219,-5.6219,-5.6219,-5.6219,-5.6219,-5.6219,-5.6068,-5.4963,-5.4561,-5.4411,0.0,0.0,0.0,0.0,0.0,0.0,0.0,0.0,0.0,0.0,-4.2986,-4.2986,-4.2986,-4.2986,-4.2986,0.0,0.0,0.0,0.0,0.0,0.0,0.0,0.0,0.0,-4.2986,-4.2986,-4.2986,-4.2986,-4.2986,-4.2986,-4.2986,-4.2986,-4.2986,-4.2986,-4.2986,-4.2986,-4.3011,-4.3438,0.0,0.0,-4.4217,-4.4418,0.0,0.0,0.0,0.0,-4.5974,-4.62,0.0,0.0,0.0,0.0,0.0,0.0,0.0,0.0,-5.2285,-5.3347,-5.6029,0.0,-5.5706,-5.5505,-5.4208,-5.3368,0.0,-5.2811,-5.1432,-5.315,-5.2756,-5.2277,-5.2829,-5.2929,-5.2929,-5.2929,-5.2929,-5.2929,-5.2929,-5.2929,-5.2929,-5.2929,-5.3381,-5.3934,-5.4511,-5.5064,-5.5616,-5.6168,-5.6219,-5.6219,-5.6219,-5.6219,-5.6219,-5.6219,-5.6219,-5.6219,-5.6219,-5.6219,-5.6219,-5.6219,-5.6219,-5.6219,-5.6219,-5.6219,-5.6219,-5.6219,-5.6219,-5.6219,-5.6219,-5.6219,-5.6219,-5.6219,-5.6219,-5.6219,-5.6068,-5.4963,-5.4561,-5.4411,0.0,0.0,0.0,0.0,0.0,0.0,0.0,0.0,0.0,0.0,-4.2986,-4.2986,-4.2986,-4.2986,-4.2986,0.0,0.0,0.0,0.0,0.0,0.0,0.0,-4.2986,-4.2986,-4.2986,-4.2986,-4.2986,-4.2986,-4.2986,-4.2986,-4.2986,-4.2986,-4.2986,-4.2986,-4.3237,-4.3363,-4.3388,-4.394,-4.4192,-4.4242,-4.4794,0.0,0.0,0.0,0.0,0.0,-4.62,-4.6301,0.0,-4.6301,-4.6301,-4.6351,0.0,0.0,0.0,0.0,-5.1481,-5.2104,-5.4068,-5.453,-5.4555,-5.5007,-5.3429,-5.2174,-5.379,-5.2423,-5.1332,-5.3035,-5.292,-5.2578,-5.2879,-5.2929,-5.2929,-5.2929,-5.2929,-5.2929,-5.2929,-5.2929,-5.2929,-5.2929,-5.3607,-5.421,-5.4607,-5.529,-5.5892,-5.6194,-5.6219,-5.6219,-5.6219,-5.6219,-5.6219,-5.6219,-5.6219,-5.6219,-5.6219,-5.6219,-5.6219,-5.6219,-5.6219,-5.6219,-5.6219,-5.6219,-5.6219,-5.6219,-5.6219,-5.6219,-5.6219,-5.6219,-5.6219,-5.6219,-5.6219,-5.6068,-5.5742,-5.4888,-5.4386,-5.4059,0.0,0.0,0.0,0.0,0.0,0.0,0.0,0.0,0.0,0.0,0.0,0.0,0.0,0.0,0.0,0.0,0.0,0.0,0.0,0.0,0.0,-4.2986,-4.2986,-4.2986,-4.2986,-4.2986,-4.2986,-4.2986,-4.2986,-4.2986,-4.2986,-4.2986,-4.3011,-4.3137,-4.3689,-4.3915,-4.3966,-4.4518,-4.4744,-4.4794,-4.5372,0.0,0.0,0.0,0.0,0.0,0.0,0.0,0.0,-4.6301,-4.6376,-4.6527,-4.6979,0.0,0.0,0.0,0.0,0.0,-5.1918,-5.2666,-5.3483,-5.4679,-5.3214,-5.1803,-5.2971,-5.2242,-5.1579,-5.2711,-5.2909,-5.2929,-5.2929,-5.2929,-5.2929,-5.2929,-5.2929,-5.2929,-5.2929,-5.2929,-5.2929,-5.2929,-5.3909,-5.4561,-5.4561,-5.5566,-5.6219,-5.6219,-5.6219,-5.6219,-5.6219,-5.6219,-5.6219,-5.6219,-5.6219,-5.6219,-5.6219,-5.6219,-5.6219,-5.6219,-5.6219,-5.6219,-5.6219,-5.6219,-5.6219,-5.6219,-5.6219,-5.6219,-5.6219,-5.6219,-5.6219,-5.6219,-5.6219,-5.5867,-5.5315,-5.4762,-5.421,-5.3632,0.0,0.0,0.0,0.0,0.0,0.0,0.0,0.0,0.0,0.0,0.0,0.0,0.0,0.0,0.0,0.0,0.0,0.0,0.0,0.0,0.0,-4.2986,-4.2986,-4.2986,-4.2986,-4.2986,-4.2986,-4.2986,-4.2986,-4.2986,-4.2986,-4.2986,-4.3212,-4.3689,-4.4242,-4.4493,-4.4543,-4.5121,-4.5347,-4.5397,-4.5974,0.0,0.0,0.0,0.0,0.0,0.0,0.0,0.0,-4.6301,-4.6627,-4.7029,-4.7043,0.0,0.0,0.0,0.0,0.0,-5.2604,-5.257,-5.1642,-5.0753,-5.1042,-5.1268,-5.0436,-5.0771,-5.1339,-5.1538,-5.2287,-5.2929,-5.2929,-5.2929,-5.2929,-5.2929,-5.2929,-5.2929,-5.2929,-5.2929,-5.2929,-5.2929,-5.3909,-5.4561,-5.4561,-5.5566,-5.6219,-5.6219,-5.6219,-5.6219,-5.6219,-5.6219,-5.6219,-5.6219,-5.6219,-5.6219,-5.6219,-5.6219,-5.6219,-5.6219,-5.6219,-5.6219,-5.6219,-5.6219,-5.6219,-5.6219,-5.6219,-5.6219,-5.6219,-5.6219,-5.6219,-5.6219,-5.6219,-5.5867,-5.5315,-5.4762,-5.421,-5.3632,0.0,0.0,0.0,0.0,0.0,0.0,0.0,0.0,0.0,0.0,0.0,0.0,0.0,0.0,0.0,0.0,0.0,0.0,0.0,-4.2986,-4.2986,-4.2986,-4.2986,-4.2986,-4.2986,-4.2986,-4.2986,-4.2986,-4.2986,-4.3137,-4.3438,-4.374,-4.4016,-4.4267,-4.4844,-4.5095,-4.5121,-4.5698,-4.5924,-4.5949,0.0,0.0,0.0,0.0,0.0,0.0,0.0,0.0,0.0,0.0,-4.6928,-4.723,-4.7832,0.0,0.0,0.0,0.0,0.0,-5.1068,-5.1455,-5.1393,-5.079,-5.1079,-5.1471,-5.1202,-5.126,-5.1614,-5.2598,-5.2869,-5.2929,-5.2929,-5.2929,-5.2929,-5.2929,-5.2929,-5.2929,-5.2929,-5.2929,-5.2929,-5.2929,-5.3909,-5.4561,-5.4561,-5.5566,-5.6219,-5.6219,-5.6219,-5.6219,-5.6219,-5.6219,-5.6219,-5.6219,-5.6219,-5.6219,-5.6219,-5.6219,-5.6219,-5.6219,-5.6219,-5.6219,-5.6219,-5.6219,-5.6219,-5.6219,-5.6219,-5.6219,-5.6219,-5.6219,-5.6219,-5.6168,-5.5892,-5.544,-5.4838,-5.3984,-5.3507,-5.3256,0.0,0.0,0.0,0.0,0.0,0.0,0.0,0.0,0.0,0.0,0.0,0.0,0.0,0.0,0.0,0.0,0.0,0.0,0.0,-4.3363,-4.3363,-4.3363,-4.3363,-4.3313,-4.3162,-4.3162,-4.3237,-4.3363,-4.3363,-4.3589,-4.4016,-4.4568,-4.4819,-4.4844,-4.5422,-4.5673,-4.5698,-4.6125,-4.6301,-4.6301,0.0,0.0,0.0,0.0,0.0,0.0,0.0,0.0,0.0,0.0,0.0,0.0,0.0,0.0,0.0,-4.9464,-4.959,-4.959,-4.959,-5.0563,-5.1455,-5.1142,-5.1518,-5.2147,-5.2817,-5.2298,-5.217,-5.3739,-5.3494,-5.2929,-5.2929,-5.2929,-5.2929,-5.2929,-5.2929,-5.2929,-5.2929,-5.2929,-5.2929,-5.2929,-5.3909,-5.4561,-5.4561,-5.5566,-5.6219,-5.6219,-5.6219,-5.6219,-5.6219,-5.6219,-5.6219,-5.6219,-5.6219,-5.6219,-5.6219,-5.6219,-5.6219,-5.6219,-5.6219,-5.6219,-5.6219,-5.6219,-5.6219,-5.6219,-5.6219,-5.6219,-5.6219,-5.6219,-5.6219,-5.6168,-5.5591,-5.4963,-5.4235,-5.3281,-5.2929,-5.2929,0.0,0.0,0.0,0.0,0.0,0.0,0.0,0.0,0.0,0.0,0.0,0.0,0.0,0.0,0.0,0.0,0.0,0.0,0.0,-4.4493,-4.4493,-4.4493,-4.4493,-4.4267,-4.374,-4.374,-4.3991,-4.4493,-4.4493,-4.4518,-4.4568,-4.5146,-4.5422,-4.5447,-4.5999,-4.625,-4.625,-4.6301,-4.6301,-4.6301,-4.6301,0.0,0.0,0.0,0.0,0.0,0.0,0.0,0.0,0.0,0.0,0.0,0.0,0.0,-4.954,-4.959,-4.959,-4.959,-4.959,-5.0563,-5.1205,-5.0014,-5.1544,-5.3525,-5.4155,-5.3625,-5.3231,-5.4001,-5.3494,-5.2929,-5.2929,-5.2929,-5.2929,-5.2929,-5.2929,-5.2929,-5.2929,-5.2929,-5.2929,-5.2929,-5.3909,-5.4561,-5.4561,-5.5566,-5.6219,-5.6219,-5.6219,-5.6219,-5.6219,-5.6219,-5.6219,-5.6219,-5.6219,-5.6219,-5.6219,-5.6219,-5.6219,-5.6219,-5.6219,-5.6219,-5.6219,-5.6219,-5.6219,-5.6219,-5.6219,-5.6219,-5.6219,-5.6219,-5.6219,-5.6168,-5.5591,-5.4712,-5.3683,-5.313,-5.2929,-5.2929,0.0,0.0,0.0,0.0,0.0,0.0,0.0,0.0,0.0,0.0,0.0,0.0,0.0,0.0,0.0,0.0,0.0,0.0,-4.4618,-4.4618,-4.4618,-4.4618,-4.4618,-4.4694,-4.4844,-4.4493,-4.4418,-4.4618,-4.4995,-4.5171,-4.5171,-4.5723,-4.5999,-4.5999,-4.6225,-4.6301,-4.6301,-4.6301,-4.6301,-4.6301,-4.6301,-4.6527,0.0,0.0,0.0,0.0,0.0,0.0,0.0,0.0,-4.8586,-4.8837,-4.9163,-4.9439,-4.959,-4.959,-4.959,-4.959,-4.959,-4.995,-5.0449,-5.119,-5.2067,-5.2952,-5.3598,-5.3734,-5.4144,-5.561,-5.5669,-5.5167,-5.435,-5.3521,-5.2929,-5.2929,-5.2929,-5.2929,-5.2929,-5.2929,-5.2929,-5.2929,-5.3909,-5.4561,-5.4561,-5.5566,-5.6219,-5.6219,-5.6219,-5.6219,-5.6219,-5.6219,-5.6219,-5.6219,-5.6219,-5.6219,-5.6219,-5.6219,-5.6219,-5.6219,-5.6219,-5.6219,-5.6219,-5.6219,-5.6219,-5.6219,-5.6219,-5.6219,-5.6219,-5.6219,-5.6018,-5.5616,-5.4687,-5.3884,-5.3206,-5.3005,-5.2929,-5.2929,0.0,0.0,0.0,0.0,0.0,0.0,0.0,0.0,0.0,0.0,0.0,0.0,0.0,0.0,0.0,0.0,0.0,0.0,-4.5146,-4.5146,-4.5146,-4.5146,-4.5146,-4.5347,-4.5748,-4.5372,-4.5146,-4.5146,-4.5547,-4.5748,-4.5748,-4.6125,-4.6301,-4.6301,-4.6301,-4.6301,-4.6326,-4.6502,-4.6577,-4.6577,-4.6753,-4.7029,0.0,0.0,0.0,0.0,0.0,0.0,0.0,0.0,-4.9038,-4.9113,-4.9464,-4.959,-4.959,-4.959,-4.959,-4.959,-4.959,-4.959,-4.9974,-5.1383,-5.1923,-5.2207,-5.2775,-5.3517,-5.4525,-5.6022,-5.6025,-5.5432,-5.4485,-5.3589,-5.2929,-5.2929,-5.2929,-5.2929,-5.2929,-5.2929,-5.2929,-5.2929,-5.3909,-5.4561,-5.4561,-5.5566,-5.6219,-5.6219,-5.6219,-5.6219,-5.6219,-5.6219,-5.6219,-5.6219,-5.6219,-5.6219,-5.6219,-5.6219,-5.6219,-5.6219,-5.6219,-5.6219,-5.6219,-5.6219,-5.6219,-5.6219,-5.6219,-5.6219,-5.6194,-5.6018,-5.5516,-5.4787,-5.4009,-5.3381,-5.2929,-5.2929,-5.2929,-5.2929,0.0,0.0,0.0,0.0,0.0,0.0,0.0,0.0,-4.6301,-4.6301,-4.6301,0.0,0.0,0.0,0.0,0.0,0.0,0.0,-4.6301,-4.6301,-4.6301,-4.6301,-4.6301,-4.6301,-4.6301,-4.6301,-4.6301,-4.6301,-4.6301,-4.6301,-4.6301,-4.6301,-4.6301,-4.6301,-4.6326,-4.6326,-4.6351,-4.6903,-4.7093,-4.7118,-4.7707,-4.7908,-4.7908,0.0,0.0,0.0,0.0,0.0,0.0,0.0,-4.959,-4.959,-4.959,-4.959,-4.959,-4.959,-4.959,-4.959,-4.9615,-4.9615,-4.9741,-5.0293,-5.087,-5.1448,-5.2,-5.3125,-5.4223,-5.4889,-5.3903,-5.2929,-5.2929,-5.2929,-5.2929,-5.2929,-5.2929,-5.2929,-5.2929,-5.2929,-5.2929,-5.2929,-5.3909,-5.4561,-5.4561,-5.5566,-5.6219,-5.6219,-5.6219,-5.6219,-5.6219,-5.6219,-5.6219,-5.6219,-5.6219,-5.6219,-5.6219,-5.6219,-5.6219,-5.6219,-5.6219,-5.6219,-5.6219,-5.6219,-5.6219,-5.6219,-5.6219,-5.6219,-5.6168,-5.5616,-5.4712,-5.3708,-5.3683,-5.3381,-5.2929,-5.2929,-5.2929,-5.2929,0.0,0.0,0.0,0.0,0.0,0.0,0.0,0.0,-4.6301,-4.6301,-4.6301,0.0,0.0,0.0,0.0,0.0,0.0,0.0,-4.6301,-4.6301,-4.6301,-4.6301,-4.6301,-4.6301,-4.6301,-4.6301,-4.6301,-4.6301,-4.6301,-4.6301,-4.6301,-4.6301,-4.6301,-4.6326,-4.6702,-4.6878,-4.6928,-4.7456,-4.7682,-4.7682,-4.7857,-4.8159,-4.851,0.0,0.0,0.0,0.0,0.0,0.0,0.0,0.0,0.0,-4.959,-4.959,-4.959,-4.959,-4.959,-4.9665,-5.0067,-5.0167,-5.0393,-5.1373,-5.1724,-5.2,-5.2553,-5.3715,-5.505,-5.6168,-5.5326,-5.435,-5.435,-5.3589,-5.2929,-5.2929,-5.2929,-5.2929,-5.2929,-5.2929,-5.2929,-5.2929,-5.3909,-5.4561,-5.4561,-5.5566,-5.6219,-5.6219,-5.6219,-5.6219,-5.6219,-5.6219,-5.6219,-5.6219,-5.6219,-5.6219,-5.6219,-5.6219,-5.6219,-5.6219,-5.6219,-5.6219,-5.6219,-5.6219,-5.6219,-5.6219,-5.6219,-5.6219,-5.6143,-5.5189,-5.4361,-5.3658,-5.3306,-5.3055,-5.2929,-5.2929,-5.2929,-5.2929,0.0,0.0,0.0,0.0,0.0,0.0,0.0,0.0,-4.6301,-4.6301,-4.6301,-4.6301,0.0,0.0,0.0,-4.6301,-4.6301,0.0,-4.6301,-4.6301,-4.6301,-4.6301,-4.6301,-4.6301,-4.6301,-4.6301,-4.6301,-4.6301,-4.6301,-4.6301,-4.6326,-4.6527,-4.6652,-4.6652,-4.7205,-4.7431,-4.7481,-4.8033,-4.8259,-4.8259,-4.8485,-4.8786,-4.9113,0.0,0.0,0.0,0.0,0.0,0.0,0.0,0.0,0.0,-4.959,-4.959,-4.964,-4.9866,-4.9916,-5.0042,-5.0619,-5.077,-5.0971,-5.1875,-5.2101,-5.2251,-5.2804,-5.3589,-5.4418,-5.5167,-5.4727,-5.4174,-5.4174,-5.3452,-5.2929,-5.2929,-5.2929,-5.2929,-5.2929,-5.2929,-5.2929,-5.2929,-5.3683,-5.431,-5.4607,-5.5365,-5.5968,-5.6194,-5.6219,-5.6219,-5.6219,-5.6219,-5.6219,-5.6219,-5.6219,-5.6219,-5.6219,-5.6219,-5.6219,-5.6219,-5.6219,-5.6219,-5.6219,-5.6219,-5.6219,-5.6194,-5.5968,-5.5767,-5.5491,-5.4587,-5.3884,-5.3356,-5.3055,-5.2929,-5.2929,-5.2929,-5.2929,-5.2929,0.0,0.0,-4.6301,-4.6301,0.0,0.0,0.0,0.0,-4.6301,-4.6301,-4.6301,-4.6301,0.0,0.0,0.0,-4.6301,-4.6301,-4.6301,-4.6301,-4.6301,-4.6301,-4.6301,-4.6301,-4.6326,-4.6376,-4.6376,-4.6401,-4.6451,-4.6401,-4.6376,-4.6401,-4.6954,-4.7143,-4.723,-4.7757,-4.7983,-4.8033,-4.8611,-4.8837,-4.8887,-4.9389,-4.959,-4.959,-4.959,0.0,0.0,0.0,0.0,0.0,0.0,0.0,0.0,-4.9741,-4.9741,-4.9841,-5.0343,-5.0494,-5.0619,-5.1197,-5.1348,-5.1498,-5.2051,-5.2176,-5.2302,-5.2804,-5.2929,-5.2929,-5.2929,-5.2929,-5.2929,-5.2929,-5.2929,-5.2929,-5.2929,-5.2929,-5.2929,-5.2929,-5.2929,-5.2929,-5.2929,-5.3381,-5.3934,-5.4511,-5.5064,-5.5616,-5.6168,-5.6219,-5.6219,-5.6219,-5.6219,-5.6219,-5.6219,-5.6219,-5.6219,-5.6219,-5.6219,-5.6219,-5.6219,-5.6219,-5.6219,-5.6219,-5.6219,-5.6194,-5.6118,-5.5591,-5.5039,-5.4436,-5.3909,-5.3381,-5.2929,-5.2929,-5.2929,-5.2929,-5.2929,-5.2929,-5.2929,0.0,0.0,-4.6301,-4.6301,0.0,0.0,0.0,0.0,-4.6301,-4.6301,-4.6301,-4.6301,-4.6301,-4.6301,0.0,-4.6301,-4.6301,-4.6301,-4.6301,-4.6301,-4.6301,-4.6301,-4.6301,-4.6527,-4.6954,-4.6954,-4.7154,-4.7556,-4.7154,-4.6954,-4.6979,-4.7506,-4.7732,-4.7757,-4.8335,-4.8586,-4.8611,-4.9188,-4.9414,-4.9439,-4.954,-4.959,-4.959,-4.959,-4.959,0.0,0.0,0.0,0.0,0.0,0.0,0.0,-5.077,-5.0921,-5.0946,-5.1046,-5.1096,-5.1222,-5.1774,-5.1925,-5.2076,-5.2603,-5.2754,-5.2779,-5.2904,-5.2929,-5.2929,-5.2929,-5.2929,-5.2929,-5.2929,-5.2929,-5.2929,-5.2929,-5.2929,-5.2929,-5.2929,-5.2929,-5.2929,-5.2929,-5.3381,-5.3934,-5.4511,-5.5064,-5.5616,-5.6168,-5.6219,-5.6219,-5.6219,-5.6219,-5.6219,-5.6219,-5.6219,-5.6219,-5.6219,-5.6219,-5.6219,-5.6219,-5.6219,-5.6219,-5.6219,-5.6219,-5.5968,-5.5566,-5.544,-5.4813,-5.3884,-5.3758,-5.3381,-5.2929,-5.2929,-5.2929,-5.2929,-5.2929,-5.2929,-5.2929,0.0,0.0,0.0,0.0,0.0,0.0,0.0,0.0,-4.6024,-4.6276,-4.6301,-4.6301,-4.6301,-4.6301,0.0,0.0,-4.6702,-4.6803,-4.7054,-4.7079,-4.7079,-4.7079,-4.7079,-4.7205,-4.7506,-4.7506,-4.7631,-4.7908,-4.7908,-4.7782,-4.7506,-4.8058,-4.8309,-4.836,-4.8912,-4.9163,-4.9188,-4.9464,-4.959,-4.9615,-4.9891,-4.9992,-5.0017,-5.0293,-5.0393,-5.0393,-5.0393,0.0,0.0,0.0,0.0,0.0,0.0,0.0,-5.1322,-5.1599,-5.1674,-5.18,-5.2352,-5.2503,-5.2578,-5.2854,-5.2929,-5.2929,-5.2929,-5.2929,-5.2929,-5.2929,-5.2929,-5.2929,-5.2929,-5.2929,-5.2929,-5.2929,-5.2929,-5.2929,-5.2929,-5.2929,-5.2929,-5.2929,-5.3181,-5.3557,-5.411,-5.4662,-5.5214,-5.5767,-5.6068,-5.6219,-5.6219,-5.6219,-5.6219,-5.6219,-5.6219,-5.6219,-5.6219,-5.6219,-5.6219,-5.6219,-5.6219,-5.6219,-5.6219,-5.6219,-5.5917,-5.5365,-5.5114,-5.4511,-5.3683,-5.3432,-5.3181,-5.2929,-5.2929,-5.2929,-5.2929,-5.2929,-5.2929,-5.2929,0.0,0.0,0.0,0.0,0.0,0.0,0.0,0.0,0.0,-4.625,-4.6401,-4.6451,-4.6451,-4.6527,-4.6778,0.0,0.0,0.0,-4.7883,-4.7908,-4.7908,-4.7908,-4.7908,-4.7958,-4.8058,-4.8058,-4.8109,-4.8209,-4.8686,-4.8661,-4.8209,-4.8686,-4.8912,-4.8937,-4.9389,-4.959,-4.9615,-4.969,-4.9741,-4.9791,-5.0343,-5.0569,-5.0619,-5.1096,-5.1272,-5.1272,-5.1272,-5.1272,-5.1297,-5.1398,0.0,0.0,0.0,0.0,-5.1649,-5.2126,-5.2251,-5.2352,-5.2804,-5.2929,-5.2929,-5.2929,-5.2929,-5.2929,-5.2929,-5.2929,-5.2929,-5.2929,-5.2929,-5.2929,-5.2929,-5.2929,-5.2929,-5.2929,-5.2929,-5.2929,-5.2929,-5.2929,-5.2929,-5.2929,-5.2929,-5.313,-5.3658,-5.4135,-5.4687,-5.534,-5.5817,-5.6118,-5.6219,-5.6219,-5.6219,-5.6219,-5.6219,-5.6219,-5.6219,-5.6219,-5.6219,-5.6219,-5.6219,-5.6219,-5.6219,-5.6118,-5.5767,-5.5214,-5.4662,-5.4084,-5.3532,-5.3105,-5.2929,-5.2929,-5.2929,-5.2929,-5.2929,-5.2929,-5.2929,-5.2929,0.0,0.0,0.0,0.0,0.0,0.0,0.0,0.0,0.0,0.0,-4.6728,-4.6968,-4.6968,-4.7431,-4.7732,-4.7807,-4.7807,-4.7832,-4.7908,0.0,0.0,-4.7908,-4.7908,-4.8134,-4.8636,-4.8661,-4.8887,-4.9364,-4.9439,-4.9439,-4.9364,-4.9439,-4.949,-4.949,-4.9565,-4.959,-4.9615,-5.0117,-5.0318,-5.0368,-5.0946,-5.1172,-5.1172,-5.1247,-5.1272,-5.1272,-5.1272,-5.1272,-5.1348,-5.1825,-5.2,0.0,0.0,0.0,-5.2729,-5.2804,-5.2829,-5.2829,-5.2904,-5.2929,-5.2929,-5.2929,-5.2929,-5.2929,-5.2929,-5.2929,-5.2929,-5.2929,-5.2929,-5.2929,-5.2929,-5.2929,-5.2929,-5.2929,-5.2929,-5.2929,-5.2929,-5.2929,-5.2929,-5.2929,-5.2929,-5.313,-5.3658,-5.3758,-5.426,-5.5315,-5.5465,-5.5717,-5.6194,-5.6219,-5.6219,-5.6219,-5.6219,-5.6219,-5.6219,-5.6219,-5.6219,-5.6219,-5.6219,-5.6219,-5.6194,-5.5717,-5.5189,-5.4637,-5.4059,-5.3507,-5.303,-5.2955,-5.2929,-5.2929,-5.2929,-5.2929,-5.2929,-5.2929,-5.2929,-5.2929,0.0,0.0,0.0,0.0,0.0,0.0,0.0,0.0,0.0,0.0,0.0,-4.7556,-4.7556,-4.7782,-4.8033,-4.836,-4.8385,-4.851,-4.8837,-4.8862,-4.8862,-4.8862,-4.8862,-4.8962,-4.9213,-4.9238,-4.9339,-4.959,-4.959,-4.959,-4.959,-4.959,-4.959,-4.959,-4.959,-4.9766,-5.0067,-5.0318,-5.0619,-5.0946,-5.1523,-5.1749,-5.1774,-5.2076,-5.2201,-5.2201,-5.2201,-5.2201,-5.2251,-5.2477,-5.2578,-5.2603,-5.2854,0.0,0.0,0.0,-5.2929,-5.2929,-5.2929,-5.2929,-5.2929,-5.2929,-5.2929,-5.2929,-5.2929,-5.2929,-5.2929,-5.2929,-5.2929,-5.2929,-5.2929,-5.2929,-5.2929,-5.2929,-5.2929,-5.2929,-5.2929,-5.2929,-5.2929,-5.2929,-5.2929,-5.3005,-5.3256,-5.3532,-5.3909,-5.4411,-5.5039,-5.5491,-5.5742,-5.6043,-5.6219,-5.6219,-5.6219,-5.6219,-5.6219,-5.6219,-5.6219,-5.6219,-5.6219,-5.6043,-5.5742,-5.5189,-5.4787,-5.4607,-5.3959,-5.3406,-5.2929,-5.2929,-5.2929,-5.2929,-5.2929,-5.2929,-5.2929,-5.2929,-5.2929,-5.2929,0.0,0.0,0.0,0.0,0.0,0.0,0.0,0.0,0.0,0.0,0.0,-4.8134,-4.8134,0.0,0.0,0.0,-4.8987,-4.9163,-4.9565,-4.959,-4.959,-4.959,-4.959,-4.959,-4.959,-4.959,-4.959,-4.959,-4.959,-4.9665,-4.9791,-4.9791,-4.9891,-5.0017,-4.9866,-5.0117,-5.0645,-5.0795,-5.1096,-5.1548,-5.2101,-5.2302,-5.2352,-5.2779,-5.2929,-5.2929,-5.2929,-5.2929,-5.2929,-5.2929,-5.2929,-5.2929,-5.2929,-5.2929,0.0,0.0,0.0,-5.2929,-5.2929,-5.2929,-5.2929,-5.2929,-5.2929,-5.2929,-5.2929,-5.2929,-5.2929,-5.2929,-5.2929,-5.2929,-5.2929,-5.2929,-5.2929,-5.2929,-5.2929,-5.2929,-5.2929,-5.2929,-5.2929,-5.2929,-5.2929,-5.2929,-5.2929,-5.3281,-5.3557,-5.3683,-5.4486,-5.5013,-5.5164,-5.5691,-5.6018,-5.6018,-5.6143,-5.6219,-5.6219,-5.6219,-5.6219,-5.6219,-5.6219,-5.5917,-5.5365,-5.4813,-5.4486,-5.431,-5.3758,-5.3281,-5.2929,-5.2929,-5.2929,-5.2929,-5.2929,-5.2929,-5.2929,-5.2929,-5.2929,-5.2929,0.0,0.0,0.0,0.0,0.0,0.0,0.0,0.0,0.0,0.0,0.0,-4.8736,-4.8736,-4.9188,-4.9515,-4.954,-4.9565,-4.9565,-4.959,-4.959,-4.959,-4.959,-4.959,0.0,-4.959,-4.959,-4.959,-4.959,-4.959,-4.9866,-5.0368,-5.0368,-5.067,-5.1172,-5.0619,-5.0695,-5.1272,-5.18,-5.2026,-5.2126,-5.2653,-5.2879,-5.2879,-5.2929,-5.2929,-5.2929,-5.2929,-5.2929,-5.2929,-5.2929,-5.2929,-5.2929,-5.2929,-5.2929,-5.2929,0.0,0.0,0.0,-5.2929,-5.2929,-5.2929,-5.2929,-5.2929,-5.2929,-5.2929,-5.2929,-5.2929,-5.2929,-5.2929,-5.2929,-5.2929,-5.2929,-5.2929,-5.2929,-5.2929,-5.2929,-5.2929,-5.2929,-5.2929,-5.2929,-5.2929,-5.2929,-5.2929,-5.2955,-5.3181,-5.3658,-5.3758,-5.4034,-5.4587,-5.5139,-5.544,-5.544,-5.5942,-5.6219,-5.6219,-5.6219,-5.6219,-5.6219,-5.6219,-5.5917,-5.5365,-5.4813,-5.426,-5.3708,-5.3206,-5.2955,-5.2929,-5.2929,-5.2929,-5.2929,-5.2929,-5.2929,-5.2929,-5.2929,-5.2929,-5.2929,0.0,0.0,0.0,0.0,0.0,0.0,0.0,0.0,0.0,0.0,0.0,0.0,0.0,-4.9464,-4.959,-4.959,-4.959,-4.959,-4.959,-4.959,-4.959,-4.959,-4.959,-4.959,-4.959,-4.959,-4.9766,-5.0117,-5.0117,-5.0419,-5.0971,-5.0971,-5.1272,-5.1774,-5.1222,-5.1272,-5.1825,-5.2026,-5.2302,-5.2653,-5.2854,-5.2929,-5.2929,-5.2929,-5.2929,-5.2929,-5.2929,-5.2929,-5.2929,-5.2929,-5.2929,-5.2929,-5.2929,-5.2929,-5.2929,-5.2929,-5.2929,-5.2929,-5.2929,-5.2929,-5.2929,-5.2929,-5.2929,-5.2929,-5.2929,-5.2929,-5.2929,-5.2929,-5.2929,-5.2929,-5.2929,-5.2929,-5.2929,-5.2929,-5.2929,-5.2929,-5.2929,-5.2929,-5.2929,-5.2929,-5.2929,-5.2929,-5.2929,-5.2929,-5.3005,-5.3181,-5.3507,-5.3783,-5.4009,-5.4536,-5.5013,-5.539,-5.5591,-5.5842,-5.6219,-5.6219,-5.6219,-5.6219,-5.5842,-5.539,-5.4838,-5.426,-5.3708,-5.3206,-5.3005,-5.2929,-5.2929,-5.2929,-5.2929,-5.2929,-5.2929,-5.2929,-5.2929,-5.2929,-5.2929,-5.2929,0.0,0.0,0.0,-4.8435,0.0,-4.8611,-4.8987,-4.9063,-4.9188,-4.954,0.0,0.0,0.0,0.0,-4.959,-4.959,-4.959,-4.9665,-4.9866,-4.9866,-4.9967,-5.0142,-5.0167,-5.0167,-5.0167,-4.9615,-4.9766,-5.072,-5.0142,-5.0444,-5.1548,-5.1548,-5.185,-5.2377,-5.2,-5.2026,-5.2377,-5.2377,-5.2578,-5.2929,-5.2929,-5.2929,-5.2929,-5.2929,-5.2929,-5.2929,-5.2929,-5.2929,-5.2929,-5.2929,-5.2929,-5.2929,0.0,-5.2929,-5.2929,-5.2929,-5.2929,-5.2929,-5.2929,-5.2929,-5.2929,-5.2929,-5.2929,-5.2929,-5.2929,-5.2929,-5.2929,-5.2929,-5.2929,-5.2929,-5.2929,-5.2929,-5.2929,-5.2929,-5.2929,-5.2929,-5.2929,-5.2929,-5.2929,-5.2929,-5.2929,-5.2929,-5.2929,-5.2929,-5.2929,-5.2929,-5.3256,-5.3432,-5.3432,-5.3959,-5.4536,-5.5089,-5.529,-5.5566,-5.5942,-5.6118,-5.6118,-5.5942,-5.5566,-5.4988,-5.426,-5.3884,-5.3406,-5.2929,-5.2929,-5.2929,-5.2929,-5.2929,-5.2929,-5.2929,-5.2929,-5.2929,-5.2929,-5.2929,-5.2929,-5.2929,-4.8686,-4.8786,-4.8962,-4.9515,-4.959,-4.959,-4.959,-4.959,-4.959,-4.959,0.0,0.0,0.0,0.0,0.0,-4.964,-4.964,-4.9866,-5.0419,-5.0444,-5.0695,-5.1247,-5.1272,-5.1272,-5.1272,-4.969,-4.964,-5.1297,-4.9665,-4.9992,-5.2126,-5.2126,-5.2427,-5.2929,-5.2929,-5.2929,-5.2929,-5.2929,-5.2929,-5.2929,-5.2929,-5.2929,-5.2929,-5.2929,-5.2929,-5.2929,-5.2929,-5.2929,-5.2929,-5.2929,-5.2929,-5.2929,0.0,0.0,0.0,0.0,0.0,-5.2929,0.0,0.0,0.0,-5.2929,-5.2929,-5.2929,-5.2929,-5.2929,-5.2929,-5.2929,-5.2929,-5.2929,-5.2929,-5.2929,-5.2929,-5.2929,-5.2929,-5.2929,-5.2929,-5.2929,-5.2929,-5.2929,-5.2929,-5.2929,-5.2929,-5.2929,-5.2929,-5.2929,-5.2929,-5.2929,-5.2929,-5.3406,-5.3959,-5.4511,-5.5089,-5.5365,-5.5365,-5.5892,-5.5892,-5.5365,-5.534,-5.4762,-5.3708,-5.3683,-5.3406,-5.2929,-5.2929,-5.2929,-5.2929,-5.2929,-5.2929,-5.2929,-5.2929,-5.2929,-5.2929,-5.2929,-5.2929,-5.2929,-4.9339,-4.9364,-4.9414,-4.9565,-4.959,-4.959,-4.959,-4.959,-4.959,0.0,0.0,0.0,-4.959,-4.9941,-5.0368,-5.077,-5.082,-5.087,-5.1021,-5.1046,-5.1122,-5.1272,-5.1272,-5.1272,-5.1272,-5.082,-5.1021,-5.1875,-5.1423,-5.1699,-5.2703,-5.2703,-5.2779,-5.2929,-5.2929,-5.2929,-5.2929,-5.2929,-5.2929,-5.2929,-5.2929,-5.2929,-5.2929,-5.2929,-5.2929,-5.2929,-5.2929,-5.2929,-5.2929,-5.2929,-5.2929,-5.2929,0.0,0.0,0.0,0.0,0.0,0.0,-5.2929,0.0,0.0,0.0,0.0,0.0,-5.2929,-5.2929,-5.2929,-5.2929,-5.2929,-5.2929,-5.2929,-5.2929,-5.2929,-5.2929,-5.2929,-5.2929,-5.2929,-5.2929,-5.2929,-5.2929,-5.2929,-5.2929,-5.2929,-5.2929,-5.2929,-5.2929,-5.2929,-5.2929,-5.2929,-5.3406,-5.3783,-5.3934,-5.4486,-5.4787,-5.4787,-5.4938,-5.4938,-5.4787,-5.4361,-5.4009,-5.3683,-5.3306,-5.3055,-5.2929,-5.2929,-5.2929,-5.2929,-5.2929,-5.2929,-5.2929,-5.2929,-5.2929,-5.2929,-5.2929,-5.2929,-5.2929,-4.959,-4.959,-4.959,-4.959,-4.959,-4.959,-4.959,-4.959,-4.9665,0.0,0.0,0.0,-5.0268,-5.0594,-5.0921,-5.1247,-5.1272,-5.1373,-5.1599,-5.1624,-5.1724,-5.195,-5.1975,-5.1975,-5.1975,-5.1272,-5.1423,-5.2452,-5.1749,-5.1925,-5.2929,-5.2929,-5.2929,-5.2929,-5.2929,-5.2929,-5.2929,-5.2929,-5.2929,-5.2929,-5.2929,-5.2929,-5.2929,-5.2929,-5.2929,-5.2929,-5.2929,-5.2929,-5.2929,-5.2929,-5.2929,0.0,0.0,0.0,0.0,0.0,0.0,0.0,0.0,0.0,-5.2929,-5.2929,0.0,0.0,-5.2929,-5.2929,-5.2929,-5.2929,-5.2929,-5.2929,-5.2929,-5.2929,-5.2929,-5.2929,-5.2929,-5.2929,-5.2929,-5.2929,-5.2929,-5.2929,-5.2929,-5.2929,-5.2929,-5.2929,-5.2929,-5.2929,-5.2929,-5.2929,-5.2929,-5.3206,-5.3381,-5.3381,-5.3909,-5.421,-5.421,-5.4436,-5.4436,-5.421,-5.3858,-5.3582,-5.3356,-5.3055,-5.2929,-5.2929,-5.2929,-5.2929,-5.2929,-5.2929,-5.2929,-5.2929,-5.2929,-5.2929,-5.2929,-5.2929,-5.2929,-5.2929,0.0,-4.964,-4.969,-4.969,-4.9741,-4.9791,-4.9791,-4.9791,-4.9967,0.0,-5.0519,-5.0745,-5.1297,-5.1373,-5.1398,-5.1448,-5.1473,-5.1674,-5.2176,-5.2201,-5.2427,-5.2904,-5.2929,-5.2929,-5.2929,-5.1473,-5.1423,-5.2929,-5.1423,-5.1473,-5.2929,-5.2929,-5.2929,-5.2929,-5.2929,-5.2929,-5.2929,-5.2929,-5.2929,-5.2929,-5.2929,-5.2929,-5.2929,-5.2929,-5.2929,-5.2929,-5.2929,-5.2929,-5.2929,-5.2929,-5.2929,0.0,0.0,0.0,0.0,0.0,-5.2929,0.0,0.0,0.0,0.0,0.0,-5.2929,0.0,-5.2929,-5.2929,-5.2929,-5.2929,-5.2929,-5.2929,-5.2929,-5.2929,-5.2929,-5.2929,-5.2929,-5.2929,-5.2929,-5.2929,-5.2929,-5.2929,-5.2929,-5.2929,-5.2929,-5.2929,-5.2929,-5.2929,-5.2929,-5.2929,-5.2929,-5.2929,-5.2929,-5.2929,-5.3381,-5.3607,-5.3607,-5.4135,-5.4135,-5.3607,-5.3607,-5.3381,-5.2929,-5.2929,-5.2929,-5.2929,-5.2929,-5.2929,-5.2929,-5.2929,-5.2929,-5.2929,-5.2929,-5.2929,-5.2929,-5.2929,-5.2929,-5.2929,-4.959,-4.9941,-5.0243,-5.0243,-5.0645,-5.0946,-5.0946,-5.0946,-5.0996,-5.1096,-5.1096,-5.1322,-5.1875,-5.195,-5.2126,-5.2578,-5.2603,-5.2653,-5.2754,-5.2754,-5.2804,-5.2929,-5.2929,-5.2929,-5.2929,-5.2603,-5.2603,-5.2929,-5.2603,-5.2603,-5.2929,-5.2929,-5.2929,-5.2929,-5.2929,-5.2929,-5.2929,-5.2929,-5.2929,-5.2929,-5.2929,-5.2929,-5.2929,-5.2929,-5.2929,-5.2929,-5.2929,-5.2929,-5.2929,-5.2929,-5.2929,-5.2929,0.0,0.0,0.0,-5.2929,0.0,0.0,0.0,0.0,0.0,0.0,0.0,0.0,-5.2929,-5.2929,-5.2929,-5.2929,-5.2929,-5.2929,-5.2929,-5.2929,-5.2929,-5.2929,-5.2929,-5.2929,-5.2929,-5.2929,-5.2929,-5.2929,-5.2929,-5.2929,-5.2929,-5.2929,-5.2929,-5.2929,-5.2929,-5.2929,-5.2929,-5.2929,-5.2929,-5.2929,-5.303,-5.308,-5.308,-5.3181,-5.3181,-5.308,-5.308,-5.303,-5.2929,-5.2929,-5.2929,-5.2929,-5.2929,-5.2929,-5.2929,-5.2929,-5.2929,-5.2929,-5.2929,-5.2929,-5.2929,-5.2929,-5.2929,-5.2929,-5.0444,-5.067,-5.0845,-5.0845,-5.1096,-5.1272,-5.1272,-5.1272,-5.1373,-5.1649,-5.1925,-5.2201,-5.2477,-5.2528,-5.2628,-5.2904,-5.2929,-5.2929,-5.2929,-5.2929,-5.2929,-5.2929,-5.2929,-5.2929,-5.2929,-5.2929,-5.2929,-5.2929,-5.2929,-5.2929,-5.2929,-5.2929,-5.2929,-5.2929,-5.2929,-5.2929,-5.2929,-5.2929,-5.2929,-5.2929,-5.2929,-5.2929,-5.2929,-5.2929,-5.2929,-5.2929,-5.2929,-5.2929,-5.2929,-5.2929,-5.2929,0.0,-5.2929,-5.2929,-5.2929,0.0,-5.2929,-5.2929,0.0,0.0,0.0,-5.2929,0.0,0.0,0.0,-5.2929,-5.2929,-5.2929,-5.2929,-5.2929,-5.2929,-5.2929,-5.2929,-5.2929,-5.2929,-5.2929,-5.2929,-5.2929,-5.2929,-5.2929,-5.2929,-5.2929,-5.2929,-5.2929,-5.2929,-5.2929,-5.2929,-5.2929,-5.2929,-5.2929,-5.2929,-5.2929,-5.2929,-5.2929,-5.2929,-5.2929,-5.2929,-5.2929,-5.2929,-5.2929,-5.2929,-5.2929,-5.2929,-5.2929,-5.2929,-5.2929,-5.2929,-5.2929,-5.2929,-5.2929,-5.2929,-5.2929,-5.2929,-5.2929,-5.2929,-5.2929,-5.1322,-5.1373,-5.1448,-5.1448,-5.1523,-5.1599,-5.1599,-5.1599,-5.1749,-5.2201,-5.2653,-5.2929,-5.2929,-5.2929,-5.2929,-5.2929,-5.2929,-5.2929,-5.2929,-5.2929,-5.2929,-5.2929,-5.2929,-5.2929,-5.2929,-5.2929,-5.2929,-5.2929,-5.2929,-5.2929,-5.2929,-5.2929,-5.2929,-5.2929,-5.2929,-5.2929,-5.2929,-5.2929,-5.2929,-5.2929,-5.2929,-5.2929,-5.2929,-5.2929,-5.2929,-5.2929,-5.2929,-5.2929,-5.2929,-5.2929,-5.2929,-5.2929,-5.2929,-5.2929,0.0,0.0,0.0,0.0,0.0,0.0,0.0,0.0,0.0,-5.2929,0.0,0.0,0.0,-5.2929,0.0,0.0,0.0,0.0,-5.2904,-5.2779,-5.2854,0.0,0.0,-5.2854,0.0,-5.2929,-5.2929,-5.2929,-5.2929,-5.2929,-5.2929,-5.2929,-5.2929,-5.2929,-5.2929,-5.2929,-5.2929,-5.2929,-5.2929,-5.2929,-5.2929,-5.2929,-5.2929,-5.2929,-5.2929,-5.2929,-5.2929,-5.2929,-5.2929,-5.2929,-5.2929,-5.2929,-5.2929,-5.2929,-5.2929,-5.2929,-5.2929,-5.2929,-5.2929,-5.2929,-5.2929,-5.2929,-5.1473,-5.1674,-5.2026,-5.2026,-5.2427,-5.2729,-5.2729,-5.2729,-5.2754,-5.2829,-5.2879,-5.2929,-5.2929,-5.2929,-5.2929,-5.2929,-5.2929,-5.2929,-5.2929,-5.2929,-5.2929,-5.2929,-5.2929,-5.2929,-5.2929,-5.2929,-5.2929,-5.2929,-5.2929,-5.2929,-5.2929,-5.2929,-5.2929,-5.2929,-5.2929,-5.2929,-5.2929,-5.2929,-5.2929,-5.2929,-5.2929,-5.2929,-5.2929,-5.2929,-5.2929,-5.2929,-5.2929,-5.2929,-5.2929,0.0,-5.2929,-5.2929,0.0,-5.2929,-5.2929,-5.2929,0.0,0.0,0.0,0.0,0.0,0.0,-5.2929,0.0,0.0,0.0,-5.2929,-5.2929,0.0,0.0,0.0,0.0,0.0,-5.2277,-5.2603,0.0,-5.2277,-5.2628,-5.2929,-5.2929,-5.2929,-5.2929,-5.2929,-5.2929,-5.2929,-5.2929,-5.2929,-5.2929,-5.2929,-5.2929,-5.2929,-5.2929,-5.2929,-5.2929,-5.2929,-5.2929,-5.2929,-5.2929,-5.2929,-5.2929,-5.2929,-5.2929,-5.2929,-5.2929,-5.2929,-5.2929,-5.2929,-5.2929,-5.2929,-5.2929,-5.2929,-5.2929,-5.2929,-5.2929,-5.2929,-5.2929,-5.2327,-5.2427,-5.2578,-5.2578,-5.2779,-5.2929,-5.2929,-5.2929,-5.2929,-5.2929,-5.2929,-5.2929,-5.2929,-5.2929,-5.2929,-5.2929,-5.2929,-5.2929,-5.2929,-5.2929,-5.2929,-5.2929,-5.2929,-5.2929,-5.2929,-5.2929,-5.2929,-5.2929,-5.2929,-5.2929,-5.2929,-5.2929,-5.2929,-5.2929,-5.2929,-5.2929,-5.2929,-5.2929,-5.2929,-5.2929,-5.2929,-5.2929,-5.2929,-5.2929,-5.2929,-5.2929,-5.2929,-5.2929,-5.2929,0.0,-5.2929,0.0,0.0,0.0,0.0,0.0,0.0,0.0,0.0,0.0,0.0,0.0,0.0,0.0,-5.2929,0.0,-5.2929,0.0,0.0,0.0,0.0,0.0,0.0,0.0,-5.2779,-5.2854,0.0,0.0,-5.2929,-5.2929,-5.2929,-5.2929,-5.2929,-5.2929,-5.2929,-5.2929,-5.2929,-5.2929,-5.2929,-5.2929,-5.2929,-5.2929,-5.2929,-5.2929,-5.2929,-5.2929,-5.2929,-5.2929,-5.2929,-5.2929,-5.2929,-5.2929,-5.2929,-5.2929,-5.2929,-5.2929,-5.2929,-5.2929,-5.2929,-5.2929,-5.2929,-5.2929,-5.2929,-5.2929,-5.2929,-5.2929,-5.2929,-5.2929,-5.2929,-5.2929,-5.2929,-5.2929,-5.2929,-5.2929,-5.2929,-5.2929,-5.2929,-5.2929,-5.2929,-5.2929,-5.2929,-5.2929,-5.2929,-5.2929,-5.2929,-5.2929,-5.2929,-5.2929,-5.2929,0.0,-5.2929,-5.2929,-5.2929,-5.2929,-5.2929,-5.2929,-5.2929,-5.2929,-5.2929,-5.2929,-5.2929,-5.2929,-5.2929,-5.2929,-5.2929,-5.2929,-5.308,-5.3231,-5.3356,-5.3206,-5.3231,-5.3381,-5.3381,-5.3381,-5.3381,-5.3381,-5.3381,-5.3356,-5.3181,-5.313,0.0,0.0,0.0,0.0,-5.2929,0.0,0.0,0.0,0.0,0.0,0.0,0.0,0.0,0.0,0.0,0.0,0.0,0.0,0.0,-5.2729,0.0,-5.2879,0.0,-5.2829,0.0,0.0,0.0,-5.2929,-5.2929,-5.2929,-5.2929,-5.2929,-5.2929,-5.2929,-5.2929,-5.2929,-5.2929,-5.2929,-5.2929,-5.2929,-5.2929,-5.2929,-5.2929,-5.2929,-5.2929,-5.2929,-5.2929,-5.2929,-5.2929,-5.2929,-5.2929,-5.2929,-5.2929,-5.2929,-5.2929,-5.2929,-5.2929,-5.2929,-5.2929,-5.2929,-5.2929,-5.2929,-5.2929,-5.2929,-5.2929,-5.2929,-5.2929,-5.2929,-5.2929,-5.2929,-5.2929,-5.2929,-5.2929,-5.2929,-5.2929,-5.2929,-5.2929,-5.2929,-5.2929,-5.2929,-5.2929,-5.2929,-5.2929,-5.2929,0.0,-5.2929,0.0,-5.2929,-5.2929,-5.2929,-5.2929,-5.2929,-5.2929,-5.2929,-5.2929,-5.2929,-5.2929,-5.2929,-5.2929,-5.2929,-5.2929,-5.298,-5.3482,-5.4009,-5.4461,-5.3884,-5.4034,-5.4511,-5.4511,-5.4511,-5.4511,-5.4511,-5.4511,-5.4411,-5.3858,-5.3683,0.0,0.0,0.0,0.0,0.0,0.0,0.0,-5.2929,0.0,0.0,0.0,0.0,-5.2929,0.0,0.0,0.0,0.0,0.0,0.0,-5.2226,-5.2578,0.0,0.0,0.0,0.0,0.0,0.0,0.0,0.0,-5.2929,-5.2929,-5.2929,-5.2929,-5.2929,-5.2929,-5.2929,-5.2929,-5.2929,-5.2929,-5.2929,-5.2929,-5.2929,-5.2929,-5.2929,-5.2929,-5.2929,-5.2929,-5.2929,-5.2929,-5.2929,-5.2929,-5.2929,-5.2929,-5.2929,-5.2929,-5.2929,-5.2929,-5.2929,-5.2929,-5.2929,-5.2929,-5.2929,-5.2929,-5.2929,-5.2929,-5.2929,-5.2929,-5.2929,-5.2929,-5.2929,-5.2929,-5.2929,-5.2929,-5.2929,-5.2929,-5.2929,-5.2929,-5.2929,-5.2929,-5.2929,-5.2929,-5.2929,0.0,0.0,0.0,-5.2929,0.0,0.0,0.0,-5.2929,-5.2929,-5.2929,-5.2929,-5.2929,-5.2929,-5.2929,-5.2929,-5.2929,-5.2929,-5.2929,-5.313,-5.3482,-5.4059,-5.4612,-5.5039,-5.4486,-5.4386,-5.4561,-5.4561,-5.4561,-5.4561,-5.4561,-5.4561,-5.4536,-5.4336,-5.4285,-5.4235,-5.4059,-5.3733,-5.3432,-5.3432,-5.3181,-5.2929,-5.2929,0.0,0.0,0.0,0.0,0.0,0.0,0.0,0.0,0.0,0.0,-5.2879,-5.2678,-5.2804,0.0,0.0,0.0,0.0,0.0,0.0,0.0,0.0,0.0,0.0,0.0,-5.2929,-5.2929,-5.2929,-5.2929,-5.2929,-5.2929,-5.2929,-5.2929,-5.2929,-5.2929,-5.2929,-5.2929,-5.2929,-5.2929,-5.2929,-5.2929,-5.2929,-5.2929,-5.2929,-5.2929,-5.2929,-5.2929,-5.2929,-5.2929,-5.2929,-5.2929,-5.2929,-5.2929,-5.2929,-5.2929,-5.2929,-5.2929,-5.2929,-5.2929,-5.2929,-5.2929,-5.2929,-5.2929,-5.2929,-5.2929,-5.2929,-5.2929,-5.2929,-5.2929,-5.2929,-5.2929,-5.2929,-5.2929,-5.2929,-5.2929,0.0,-5.2929,-5.2929,0.0,0.0,0.0,0.0,0.0,-5.2929,-5.2929,-5.2929,-5.2929,-5.2929,-5.2929,-5.2929,-5.2929,-5.2929,-5.313,-5.3381,-5.3758,-5.4536,-5.5189,-5.5641,-5.529,-5.5139,-5.5139,-5.5139,-5.5139,-5.5139,-5.5139,-5.5139,-5.5114,-5.4913,-5.4863,-5.4813,-5.4637,-5.4285,-5.4009,-5.4009,-5.3607,-5.3206,-5.3206,-5.3055,0.0,-5.2929,0.0,0.0,0.0,0.0,0.0,0.0,0.0,0.0,-5.2929,-5.2929,0.0,0.0,-5.2929,0.0,0.0,0.0,0.0,0.0,0.0,0.0,0.0,0.0,0.0,0.0,-5.2929,-5.2929,-5.2929,-5.2929,-5.2929,-5.2929,-5.2929,-5.2929,-5.2929,-5.2929,-5.2929,-5.2929,-5.2929,-5.2929,-5.2929,-5.2929,-5.2929,-5.2929,-5.2929,-5.2929,-5.2929,-5.2929,-5.2929,-5.2929,-5.2929,-5.2929,-5.2929,-5.2929,-5.2929,-5.2929,-5.2929,-5.2929,-5.2929,-5.2929,-5.2929,-5.2929,-5.2929,-5.2929,-5.2929,-5.2929,-5.2929,-5.2929,-5.2929,-5.2929,-5.2929,-5.2929,-5.2929,0.0,0.0,-5.2929,-5.2929,-5.2929,0.0,0.0,0.0,0.0,-5.2929,-5.2929,-5.2929,-5.2929,-5.2929,-5.2929,-5.2929,-5.3005,-5.3482,-5.3733,-5.3884,-5.4988,-5.5742,-5.6219,-5.6219,-5.6219,-5.6219,-5.6219,-5.6219,-5.6219,-5.6219,-5.6219,-5.6118,-5.5591,-5.544,-5.5315,-5.4813,-5.4637,-5.4612,-5.4612,-5.4185,-5.3733,-5.3733,-5.3356,-5.2955,0.0,0.0,-5.2929,0.0,0.0,0.0,0.0,0.0,0.0,0.0,0.0,0.0,0.0,0.0,0.0,0.0,0.0,0.0,0.0,0.0,0.0,0.0,0.0,0.0,0.0,-5.2929,-5.2929,-5.2929,-5.2929,-5.2929,-5.2929,-5.2929,-5.2929,-5.2929,-5.2929,-5.2929,-5.2929,-5.2929,-5.2929,-5.2929,-5.2929,-5.2929,-5.2929,-5.2929,-5.2929,-5.2929,-5.2929,-5.2929,-5.2929,-5.2929,-5.2929,-5.2929,-5.2929,-5.2929,-5.2929,-5.2929,-5.2929,-5.2929,-5.2929,-5.2929,-5.2929,-5.2929,-5.2929,-5.2929,-5.2929,-5.2929,-5.2929,-5.2929,-5.2929,-5.2929,0.0,0.0,0.0,-5.2929,-5.2929,-5.2929,-5.2929,-5.2929,0.0,-5.2929,0.0,-5.2929,-5.2929,-5.2929,-5.2929,-5.2929,-5.2929,-5.313,-5.3507,-5.3632,-5.4185,-5.5013,-5.5717,-5.6093,-5.6219,-5.6219,-5.6219,-5.6219,-5.6219,-5.6219,-5.6219,-5.6219,-5.6219,-5.6194,-5.6043,-5.5993,-5.5968,-5.5842,-5.5491,-5.5164,-5.5164,-5.4762,-5.4336,-5.4336,-5.3909,-5.3507,-5.3507,-5.3206,0.0,0.0,0.0,0.0,0.0,0.0,0.0,0.0,0.0,0.0,0.0,0.0,0.0,-5.2929,0.0,0.0,0.0,0.0,0.0,0.0,0.0,0.0,-5.2929,-5.2929,-5.2929,-5.2929,-5.2929,-5.2929,-5.2929,-5.2929,-5.2929,-5.2929,-5.2929,-5.2929,-5.2929,-5.2929,-5.2929,-5.2929,-5.2929,-5.2929,-5.2929,-5.2929,-5.2929,-5.2929,-5.2929,-5.2929,-5.2929,-5.2929,-5.2929,-5.2929,-5.2929,-5.2929,-5.2929,-5.2929,-5.2929,-5.2929,-5.2929,-5.2929,-5.2929,-5.2929,-5.2929,-5.2929,-5.2929,-5.2929,-5.2929,-5.2929,-5.2929,-5.2929,-5.2929,0.0,0.0,-5.2929,-5.2929,-5.2929,-5.2929,-5.2929,0.0,-5.2929,0.0,-5.2929,-5.2929,-5.2929,-5.2929,-5.2929,-5.3181,-5.3432,-5.3733,-5.4235,-5.4938,-5.5767,-5.6093,-5.6219,0.0,-5.6219,-5.6219,-5.6219,-5.6219,-5.6219,-5.6219,-5.6219,-5.6219,-5.6219,-5.6219,-5.6219,-5.6219,-5.6219,-5.5993,-5.5742,-5.5742,-5.534,-5.4938,-5.4938,-5.4486,-5.4084,-5.4084,-5.3658,-5.3256,-5.3256,-5.308,-5.2929,0.0,0.0,0.0,0.0,0.0,0.0,0.0,0.0,0.0,0.0,-5.2929,0.0,0.0,0.0,0.0,0.0,0.0,0.0,-5.2929,-5.2929,-5.2929,-5.2929,-5.2929,-5.2929,-5.2929,-5.2929,-5.2929,-5.2929,-5.2929,-5.2929,-5.2929,-5.2929,-5.2929,-5.2929,-5.2929,-5.2929,-5.2929,-5.2929,-5.2929,-5.2929,-5.2929,-5.2929,-5.2929,-5.2929,-5.2929,-5.2929,-5.2929,-5.2929,-5.2929,-5.2929,-5.2929,-5.2929,-5.2929,-5.2929,-5.2929,-5.2929,-5.2929,-5.2929,-5.2929,-5.2929,-5.2929,-5.2929,-5.2929,-5.2929,-5.2929,-5.2929,-5.2929,-5.2929,-5.2929,-5.2929,-5.2929,-5.2929,0.0,0.0,0.0,-5.2929,-5.2929,-5.3005,-5.303,-5.3055,-5.3582,-5.3858,-5.3984,-5.5039,-5.5767,-5.6219,-5.6219,-5.6219,-5.6219,-5.6219,-5.6244,-5.6319,-5.6319,-5.6269,-5.6219,-5.6219,-5.6219,-5.6219,-5.6219,-5.6219,-5.6219,-5.6219,-5.6219,-5.6219,-5.6219,-5.5867,-5.5491,-5.5491,-5.5089,-5.4662,-5.4662,-5.4235,-5.3808,-5.3808,-5.3381,-5.303,-5.303,0.0,0.0,0.0,0.0,0.0,0.0,0.0,0.0,0.0,0.0,0.0,0.0,0.0,0.0,0.0,-5.2929,-5.2929,-5.2929,-5.2929,-5.2929,-5.2929,-5.2929,-5.2929,-5.2929,-5.2929,-5.2929,-5.2929,-5.2929,-5.2929,-5.2929,-5.2929,-5.2929,-5.2929,-5.2929,-5.2929,-5.2929,-5.2929,-5.2929,-5.2929,-5.2929,-5.2929,-5.2929,-5.2929,-5.2929,-5.2929,-5.2929,-5.2929,-5.2929,-5.2929,-5.2929,-5.2929,-5.2929,-5.2929,-5.2929,-5.2929,-5.2929,-5.2929,-5.2929,-5.2929,-5.2929,-5.2929,-5.2929,0.0,0.0,0.0,0.0,-5.2929,-5.2929,-5.2929,-5.2929,-5.2929,-5.2929,0.0,0.0,-5.2929,-5.2929,-5.3356,-5.3557,-5.3582,-5.416,-5.4662,-5.5139,-5.5792,-5.6118,-5.6219,-5.6219,-5.6219,-5.6219,-5.6219,-5.6495,-5.6897,-5.6897,-5.6595,-5.6219,-5.6219,-5.6219,-5.6219,-5.6219,-5.6219,-5.6219,-5.6219,-5.6219,-5.6219,-5.6219,-5.6143,-5.6068,-5.6068,-5.5641,-5.5239,-5.5239,-5.4813,-5.4411,-5.4411,-5.3959,-5.3557,-5.3557,-5.3231,0.0,0.0,0.0,0.0,0.0,0.0,0.0,0.0,0.0,-5.2929,0.0,0.0,0.0,0.0,0.0,-5.2929,-5.2929,-5.2929,-5.2929,-5.2929,-5.2929,-5.2929,-5.2929,-5.2929,-5.2929,-5.2929,-5.2929,-5.2929,-5.2929,-5.2929,-5.2929,-5.2929,-5.2929,-5.2929,-5.2929,-5.2929,-5.2929,-5.2929,-5.2929,-5.2929,-5.2929,-5.2929,-5.2929,-5.2929,-5.2929,-5.2929,-5.2929,-5.2929,-5.2929,-5.2929,-5.2929,-5.2929,-5.2929,-5.2929,-5.3155,-5.3331,-5.3331,-5.3607,-5.3783,-5.3783,-5.3783,-5.3783,-5.3783,-5.3783,-5.3783,-5.3783,-5.3783,-5.3783,-5.3783,-5.3783,-5.3783,-5.3783,0.0,-5.3783,-5.3783,-5.4034,-5.416,-5.4185,-5.4737,-5.529,0.0,-5.6093,-5.6219,-5.6219,-5.6219,-5.6394,-5.6646,-5.6646,-5.6997,-5.7474,-5.7474,-5.7323,-5.7097,-5.7097,-5.7097,-5.7047,-5.6721,-5.6646,-5.657,-5.6294,-5.6219,-5.6219,-5.6219,-5.6219,-5.6219,-5.6219,-5.6018,-5.5817,-5.5817,-5.539,-5.4988,-5.4988,-5.4536,-5.4059,-5.3758,-5.3281,-5.2929,0.0,0.0,0.0,0.0,0.0,0.0,0.0,0.0,0.0,0.0,0.0,0.0,0.0,0.0,-5.2929,-5.2929,-5.2929,-5.2929,-5.2929,-5.2929,-5.2929,-5.2929,-5.2929,-5.2929,-5.2929,-5.2929,-5.2929,-5.2929,-5.2929,-5.2929,-5.2929,-5.2929,-5.2929,-5.2929,-5.2929,-5.2929,-5.2929,-5.2929,-5.2929,-5.2929,-5.2929,-5.2929,-5.2929,-5.2929,-5.2929,-5.2929,-5.2929,-5.303,-5.308,-5.308,-5.3206,-5.3231,-5.3105,-5.3457,-5.3758,-5.3884,-5.4285,-5.4561,-5.4561,-5.4561,-5.4561,-5.4561,-5.4561,-5.4561,-5.4561,-5.4561,-5.4561,-5.4561,-5.4561,-5.4561,0.0,0.0,0.0,-5.4235,-5.4587,-5.4813,-5.4938,-5.5365,-5.5817,-5.6219,-5.6219,-5.6219,-5.6219,-5.6344,-5.6646,-5.6973,-5.7173,-5.7575,-5.8077,-5.8077,-5.8152,-5.8227,-5.8227,-5.8077,-5.7826,-5.7374,-5.7223,-5.7097,-5.6545,-5.6394,-5.6369,-5.6244,-5.6219,-5.6219,-5.6219,-5.6219,-5.6219,-5.6219,-5.5867,-5.5566,-5.5566,-5.5114,-5.4536,-5.3833,-5.3356,-5.3055,0.0,0.0,0.0,0.0,0.0,0.0,0.0,0.0,0.0,-5.2929,0.0,0.0,0.0,-5.2929,-5.2929,-5.2929,-5.2929,-5.2929,-5.2929,-5.2929,-5.2929,-5.2929,-5.2929,-5.2929,-5.2929,-5.2929,-5.2929,-5.2929,-5.2929,-5.2929,-5.2929,-5.2929,-5.2929,-5.2929,-5.2929,-5.2929,-5.2929,-5.2929,-5.2929,-5.2929,-5.2929,-5.2929,-5.2929,-5.2929,-5.2929,-5.2929,-5.2929,-5.3306,-5.3632,-5.3632,-5.4084,-5.421,-5.3708,-5.3658,-5.3909,-5.4436,-5.4607,-5.4561,-5.4561,-5.4561,-5.4561,-5.4561,-5.4561,-5.4561,-5.4561,-5.4561,-5.4561,-5.4561,-5.4561,-5.4561,0.0,0.0,-5.4059,-5.3105,-5.4612,-5.5566,-5.6068,-5.6118,-5.6168,-5.6219,-5.6219,-5.6219,-5.6244,-5.6746,-5.6997,-5.7097,-5.7625,-5.8152,-5.8654,-5.8654,-5.8956,-5.9332,-5.9332,-5.8704,-5.7901,-5.7826,-5.7826,-5.77,-5.7123,-5.6972,-5.6846,-5.6344,-5.6219,-5.6219,-5.6219,-5.6219,-5.6219,-5.6219,-5.6168,-5.6143,-5.6143,-5.5691,-5.4988,-5.3909,-5.3658,-5.3482,0.0,0.0,0.0,0.0,0.0,0.0,0.0,0.0,0.0,0.0,-5.2929,0.0,0.0,-5.2929,-5.2929,-5.2929,-5.2929,-5.2929,-5.2929,-5.2929,-5.2929,-5.2929,-5.2929,-5.2929,-5.2929,-5.2929,-5.2929,-5.2929,-5.2929,-5.2929,-5.2929,-5.2929,-5.2929,-5.2929,-5.2929,-5.2929,-5.2929,-5.2929,-5.2929,-5.2929,-5.2929,-5.2929,-5.2929,-5.3331,-5.3381,-5.3507,-5.3858,-5.4084,-5.421,-5.421,-5.4411,-5.4612,-5.4712,-5.4712,-5.4787,-5.5039,-5.5365,-5.5541,-5.5541,-5.5541,-5.5541,-5.5541,-5.5541,-5.5541,-5.5541,-5.5541,-5.5541,-5.5541,-5.5541,-5.5541,0.0,0.0,0.0,0.0,-5.5566,-5.5993,-5.6219,-5.6219,-5.6219,-5.6219,-5.6219,-5.6394,-5.6721,-5.6947,-5.7449,-5.8077,-5.8303,-5.873,-5.9182,-5.9182,-5.9332,-5.9483,-5.9483,-5.9207,-5.8805,-5.8478,-5.8403,-5.8278,-5.7725,-5.7549,-5.7424,-5.6872,-5.6696,-5.662,-5.6294,-5.6219,-5.6219,-5.6219,-5.6219,-5.6219,-5.6219,-5.5767,-5.5239,-5.4787,-5.4436,-5.4034,-5.3482,0.0,0.0,0.0,0.0,0.0,0.0,0.0,0.0,0.0,0.0,0.0,0.0,-5.2929,-5.2929,-5.2929,-5.2929,-5.2929,-5.2929,-5.2929,-5.2929,-5.2929,-5.2929,-5.2929,-5.2929,-5.2929,-5.2929,-5.2929,-5.2929,-5.2929,-5.2929,-5.2929,-5.2929,-5.2929,-5.2929,-5.2929,-5.2929,-5.2929,-5.2929,-5.2929,-5.2929,-5.2929,-5.2929,-5.3884,-5.3959,-5.4084,-5.4486,-5.4687,-5.4813,-5.4813,-5.4938,-5.5189,-5.5591,-5.5641,-5.5641,-5.5641,-5.5968,-5.6219,-5.6219,-5.6219,-5.6219,-5.6219,-5.6219,-5.6219,-5.6219,-5.6219,0.0,-5.6219,-5.6219,-5.6219,-5.6219,-5.6219,0.0,0.0,-5.5717,-5.5892,-5.6219,-5.6219,-5.6219,-5.6219,-5.6394,-5.6671,-5.7072,-5.7399,-5.8001,-5.873,-5.8905,-5.9182,-5.9483,-5.9483,-5.9483,-5.9483,-5.9483,-5.9483,-5.9433,-5.9056,-5.8956,-5.8855,-5.8303,-5.8152,-5.8027,-5.7449,-5.7173,-5.6947,-5.6545,-5.6344,-5.6219,-5.6219,-5.6219,-5.6219,-5.6219,-5.5892,-5.5591,-5.5415,-5.5064,-5.4612,-5.4059,0.0,0.0,0.0,0.0,0.0,0.0,-5.2929,-5.2929,-5.2929,-5.2929,0.0,0.0,-5.2929,-5.2929,-5.2929,-5.2929,-5.2929,-5.2929,-5.2929,-5.2929,-5.2929,-5.2929,-5.2929,-5.2929,-5.2929,-5.2929,-5.2929,-5.2929,-5.2929,-5.2929,-5.2929,-5.2929,-5.2929,-5.2929,-5.2929,-5.2929,-5.2929,-5.2929,-5.2929,-5.2929,-5.2929,-5.2929,-5.4561,-5.4561,-5.4561,-5.4561,-5.5013,-5.539,-5.539,-5.5842,-5.6194,-5.6194,-5.6194,-5.6194,-5.6194,-5.6219,-5.6219,-5.6219,-5.6219,-5.6219,-5.6219,-5.6219,-5.6219,0.0,0.0,-5.6219,-5.6219,-5.6219,-5.6219,-5.6219,0.0,0.0,-5.4658,-5.4658,-5.5164,-5.6219,-5.6219,-5.6219,-5.6244,-5.6796,-5.7022,-5.7123,-5.8252,-5.8704,-5.878,-5.9282,-5.9483,-5.9483,-5.9483,-5.9483,-5.9483,-5.9483,-5.9483,-5.9483,-5.9483,-5.9483,-5.9382,-5.8855,-5.8704,-5.8579,-5.8052,-5.7474,-5.7022,-5.7022,-5.662,-5.6219,-5.6219,-5.6219,-5.6219,-5.6219,-5.6194,-5.6043,-5.5491,-5.539,-5.5189,-5.4637,0.0,0.0,0.0,0.0,0.0,0.0,-5.2929,-5.2929,-5.2929,-5.2929,0.0,0.0,-5.2929,-5.2929,-5.2929,-5.2929,-5.2929,-5.2929,-5.2929,-5.2929,-5.2929,-5.2929,-5.2929,-5.2929,-5.2929,-5.2929,-5.2929,-5.2929,-5.2929,-5.2929,-5.2929,-5.2929,-5.2929,-5.2929,-5.2929,-5.2929,-5.2929,-5.2929,-5.2929,-5.2929,-5.2929,-5.2929,-5.5039,-5.5139,-5.5239,-5.5616,-5.5842,-5.5942,-5.5942,-5.6093,-5.6219,-5.6219,-5.6219,-5.6219,-5.6219,-5.6219,-5.6219,-5.6219,-5.6219,-5.6219,-5.6219,-5.6219,-5.6219,-5.6219,-5.6219,-5.6219,-5.6219,-5.6219,-5.6219,-5.6219,-5.6219,-5.6043,-5.5691,-5.5691,-5.5867,-5.6219,-5.6219,-5.642,-5.6796,-5.6972,-5.7474,-5.8227,-5.8579,-5.893,-5.9257,-5.9433,-5.9483,-5.9483,-5.9483,-5.9483,-5.9483,-5.9483,-5.9483,-5.9483,-5.9483,-5.9483,-5.9458,-5.9307,-5.9257,-5.9131,-5.8604,-5.8328,-5.8001,-5.7223,-5.6897,-5.6671,-5.6294,-5.6219,-5.6219,-5.6219,-5.6219,-5.6168,-5.5993,-5.5942,-5.5767,-5.5214,-5.4963,0.0,-5.3808,0.0,0.0,0.0,-5.2929,-5.2929,-5.2929,-5.2929,0.0,-5.2929,-5.2929,-5.2929,-5.2929,-5.2929,-5.2929,-5.2929,-5.2929,-5.2929,-5.2929,-5.2929,-5.2929,-5.2929,-5.2929,-5.2929,-5.2929,-5.2929,-5.2929,-5.2929,-5.2929,-5.2929,-5.2929,-5.2929,-5.2929,-5.2929,-5.2929,-5.2929,-5.2929,-5.2929,-5.2929,-5.2929,-5.5616,-5.5691,-5.5817,-5.6143,-5.6219,-5.6219,-5.6219,-5.6394,-5.652,-5.652,-5.6721,-5.6846,-5.6846,-5.6846,-5.6671,-5.6244,-5.6394,-5.642,-5.6219,-5.6219,-5.6219,-5.6219,-5.6219,-5.6219,-5.6219,-5.6219,-5.6219,-5.6219,-5.6219,-5.6219,-5.6219,-5.6219,-5.6219,-5.6219,-5.642,-5.6721,-5.7072,-5.7499,-5.8077,-5.873,-5.893,-5.9207,-5.9483,-5.9483,-5.9483,-5.9483,-5.9483,-5.9483,-5.9483,-5.9483,-5.9483,-5.9483,-5.9483,-5.9483,-5.9483,-5.9483,-5.9483,-5.9433,-5.9106,-5.8855,-5.8554,-5.7851,-5.7349,-5.6897,-5.6344,-5.6219,-5.6219,-5.6219,-5.6219,-5.6219,-5.6219,-5.6219,-5.6093,-5.5742,-5.5516,-5.5139,-5.4436,0.0,0.0,0.0,0.0,-5.313,-5.2955,-5.2929,-5.2929,-5.2929,-5.2929,-5.2929,-5.2929,-5.2929,-5.2929,-5.2929,-5.2929,-5.2929,-5.2929,-5.2929,-5.2929,-5.2929,-5.2929,-5.2929,-5.2929,-5.2929,-5.2929,-5.2929,-5.2929,-5.2929,-5.2929,-5.2929,-5.2929,-5.2929,-5.2929,-5.2929,-5.2929,-5.2929,-5.2929,-5.2929,-5.6219,-5.6219,-5.6219,-5.6219,-5.6244,-5.6269,-5.6269,-5.6746,-5.7097,-5.7097,-5.7549,-5.7901,-5.7901,-5.7926,-5.7524,-5.642,-5.6796,-5.6872,-5.6369,-5.6319,-5.6319,-5.6269,-5.6269,-5.6244,-5.6219,-5.6219,-5.6219,-5.6219,-5.6219,-5.6219,-5.6219,-5.6244,-5.6269,-5.6294,-5.6846,-5.7123,-5.7223,-5.8278,-5.873,-5.878,-5.9282,-5.9483,-5.9483,-5.9483,-5.9483,-5.9483,-5.9483,-5.9483,-5.9483,-5.9483,-5.9483,-5.9483,-5.9483,-5.9483,-5.9483,-5.9483,-5.9483,-5.9483,-5.9483,-5.9156,-5.8755,-5.873,-5.7876,-5.6897,-5.6394,-5.6244,-5.6219,-5.6219,-5.6219,-5.6219,-5.6219,-5.6219,-5.6219,-5.6219,-5.5792,-5.544,-5.539,0.0,0.0,0.0,-5.3733,-5.3507,-5.303,-5.2955,-5.2929,-5.2929,0.0,-5.2929,-5.2929,-5.2929,-5.2929,-5.2929,-5.2929,-5.2929,-5.2929,-5.2929,-5.2929,-5.2929,-5.2929,-5.2929,-5.2929,-5.2929,-5.2929,-5.2929,-5.2929,-5.2929,-5.2929,-5.2929,-5.2929,-5.2929,-5.2929,-5.2929,-5.2929,-5.2929,-5.2929,-5.2929,-5.6219,-5.6219,-5.6219,-5.6219,-5.657,-5.6846,-5.6846,-5.7323,-5.77,-5.77,-5.7801,-5.7901,-5.7901,-5.8278,-5.8252,-5.7549,-5.7625,-5.765,-5.7499,-5.7499,-5.7298,-5.6872,-5.6846,-5.6646,-5.6219,-5.6219,-5.6219,-5.6219,-5.6219,-5.6219,-5.6219,-5.6646,-5.6846,-5.6872,-5.7424,-5.7926,-5.8353,-5.8604,-5.8956,-5.9307,-5.9433,-5.9483,-5.9483,-5.9483,-5.9483,-5.9483,-5.9483,-5.9483,-5.9483,-5.9483,-5.9483,-5.9483,-5.9483,-5.9483,-5.9483,-5.9483,-5.9483,-5.9483,-5.9483,-5.9408,-5.9207,-5.883,-5.7876,-5.6997,-5.6872,-5.652,-5.6219,-5.6219,-5.6219,-5.6219,-5.6219,-5.6219,-5.6219,-5.6219,-5.6093,-5.5867,-5.544,-5.5265,-5.4988,0.0,-5.3959,-5.3658,-5.3532,-5.3155,-5.2929,-5.2929,0.0,-5.2929,-5.2929,-5.2929,-5.2929,-5.2929,-5.2929,-5.2929,-5.2929,-5.2929,-5.2929,-5.2929,-5.2929,-5.2929,-5.2929,-5.2929,-5.2929,-5.2929,-5.2929,-5.2929,-5.2929,-5.2929,-5.2929,-5.2929,-5.2929,-5.2929,-5.2929,-5.2929,-5.2929,-5.2929,-5.6219,-5.642,-5.6595,-5.6595,-5.7047,-5.7424,-5.7424,-5.7901,-5.8278,-5.8278,-5.8478,-5.8629,-5.8629,-5.8905,-5.8956,-5.8654,-5.8403,-5.8177,-5.7926,-5.7901,-5.775,-5.7449,-5.7424,-5.7298,-5.6997,-5.6972,-5.6846,-5.6595,-5.6595,-5.6595,-5.6595,-5.7173,-5.7424,-5.7449,-5.8027,-5.8453,-5.873,-5.8981,-5.9232,-5.9483,-5.9483,-5.9483,-5.9483,-5.9483,-5.9483,-5.9483,-5.9483,-5.9483,-5.9483,-5.9483,-5.9483,-5.9483,-5.9483,-5.9483,-5.9483,-5.9483,-5.9483,-5.9483,-5.9483,-5.9483,-5.9382,-5.8855,-5.8252,-5.7675,-5.7148,-5.6796,-5.652,-5.6269,-5.6219,-5.6219,-5.6219,-5.6219,-5.6219,-5.6219,-5.6219,-5.6118,-5.5817,-5.5767,-5.5566,-5.5013,-5.4662,-5.4361,-5.4135,-5.3607,-5.3281,-5.3281,-5.3055,-5.2929,-5.2929,-5.2929,-5.2929,-5.2929,-5.2929,-5.2929,-5.2929,-5.2929,-5.2929,-5.2929,-5.2929,-5.2929,-5.2929,-5.2929,-5.2929,-5.2929,-5.2929,-5.2929,-5.2929,-5.2929,-5.2929,-5.2929,-5.2929,-5.2929,-5.2929,-5.2929,-5.2929,-5.2929,-5.6344,-5.6771,-5.7173,-5.7173,-5.765,-5.8027,-5.8027,-5.8478,-5.883,-5.883,-5.9232,-5.9483,-5.9483,-5.9483,-5.9483,-5.9483,-5.9081,-5.8629,-5.8177,-5.8152,-5.8102,-5.8027,-5.8027,-5.7976,-5.7901,-5.7901,-5.765,-5.7173,-5.7173,-5.7173,-5.7173,-5.775,-5.8027,-5.8052,-5.8604,-5.883,-5.8855,-5.9307,-5.9483,-5.9483,-5.9483,-5.9483,-5.9483,-5.9483,-5.9483,-5.9483,-5.9483,-5.9483,-5.9483,-5.9483,-5.9483,-5.9483,-5.9483,-5.9483,-5.9483,-5.9483,-5.9483,-5.9483,-5.9483,-5.9483,-5.9382,-5.8956,-5.878,-5.8478,-5.7499,-5.7073,-5.6897,-5.642,-5.6269,-5.6219,-5.6219,-5.6219,-5.6219,-5.6219,-5.6219,-5.6219,-5.6219,0.0,-5.6043,-5.5566,-5.544,-5.5214,-5.4737,-5.416,-5.3833,-5.3833,-5.3432,-5.3181,-5.3181,-5.308,-5.3055,-5.3055,-5.298,-5.2929,-5.2929,-5.2929,-5.2929,-5.2929,-5.2929,-5.2929,-5.2929,-5.2929,-5.2929,-5.2929,-5.2929,-5.2929,-5.2929,-5.2929,-5.2929,-5.2929,-5.2929,-5.2929,-5.2929,-5.2929,-5.2929,-5.2929,-5.6897,-5.7374,-5.775,-5.775,-5.8227,-5.8604,-5.8604,-5.9031,-5.9382,-5.9382,-5.9433,-5.9483,-5.9483,-5.9483,-5.9483,-5.9483,-5.9408,-5.9332,-5.9257,-5.9257,-5.9056,-5.8604,-5.8604,-5.8378,-5.7901,-5.7901,-5.7851,-5.775,-5.775,-5.775,-5.7775,-5.8328,-5.8604,-5.8604,-5.9156,-5.9382,-5.9382,-5.9458,-5.9483,-5.9483,-5.9483,-5.9483,-5.9483,-5.9483,-5.9483,-5.9483,-5.9483,-5.9483,-5.9483,-5.9483,-5.9483,-5.9483,-5.9483,-5.9483,-5.9483,-5.9483,-5.9483,-5.9483,-5.9483,-5.9483,-5.9483,-5.9382,-5.9056,-5.8679,-5.8504,-5.7725,-5.7022,-5.6922,-5.6545,-5.6219,-5.6219,-5.6219,-5.6219,-5.6219,-5.6219,-5.6219,-5.6219,-5.6219,-5.6168,-5.6093,-5.5666,-5.5365,-5.5265,-5.4762,-5.4436,-5.4436,-5.4361,-5.431,-5.431,-5.3858,-5.3582,-5.3582,-5.3155,-5.2929,-5.2929,-5.2929,-5.2929,-5.2929,-5.2929,-5.2929,-5.2929,-5.2929,-5.2929,-5.2929,-5.2929,-5.2929,-5.2929,-5.2929,-5.2929,-5.2929,-5.2929,-5.2929,-5.2929,-5.2929,-5.2929,-5.2929,-5.7499,-5.7951,-5.8353,-5.8353,-5.878,-5.9131,-5.9131,-5.9332,-5.9483,-5.9483,-5.9483,-5.9483,-5.9483,-5.9483,-5.9483,-5.9483,-5.9483,-5.9483,-5.9483,-5.9483,-5.9382,-5.9156,-5.9131,-5.9031,-5.8755,-5.8478,-5.8353,-5.8353,-5.8353,-5.8353,-5.8353,-5.888,-5.9131,-5.9156,-5.9382,-5.9483,-5.9483,-5.9483,-5.9483,-5.9483,-5.9483,-5.9483,-5.9483,-5.9483,-5.9483,-5.9483,-5.9483,-5.9483,-5.9483,-5.9483,-5.9483,-5.9483,-5.9483,-5.9483,-5.9483,-5.9483,-5.9483,-5.9483,-5.9483,-5.9483,-5.9483,-5.9483,-5.9307,-5.9056,-5.878,-5.8328,-5.7775,-5.7173,-5.6821,-5.657,-5.6269,-5.6219,-5.6219,-5.6219,-5.6219,-5.6219,-5.6219,-5.6219,-5.6219,-5.6219,-5.5993,-5.5842,-5.5842,-5.534,-5.5013,-5.5013,-5.4737,-5.4561,-5.4561,-5.431,-5.416,-5.416,-5.3356,-5.2929,-5.2929,-5.2929,-5.2929,-5.2929,-5.2929,-5.2929,-5.2929,-5.2929,-5.2929,-5.2929,-5.2929,-5.2929,-5.2929,-5.2929,-5.2929,-5.2929,-5.2929,-5.2929,-5.2929,-5.2929,-5.2929,-5.2929,-5.8102,-5.8529,-5.8905,-5.8905,-5.9232,-5.9483,-5.9483,-5.9483,-5.9483,-5.9483,-5.9483,-5.9483,-5.9483,-5.9483,-5.9483,-5.9483,-5.9483,-5.9483,-5.9483,-5.9483,-5.9483,-5.9483,-5.9483,-5.9483,-5.9483,-5.9106,-5.8905,-5.8905,-5.8905,-5.8905,-5.8905,-5.9307,-5.9483,-5.9483,-5.9483,-5.9483,-5.9483,-5.9483,-5.9483,-5.9483,-5.9483,-5.9483,-5.9483,-5.9483,-5.9483,-5.9483,-5.9483,-5.9483,-5.9483,-5.9483,-5.9483,-5.9483,-5.9483,-5.9483,-5.9483,-5.9483,-5.9483,-5.9483,-5.9483,-5.9483,-5.9483,-5.9483,-5.9483,-5.9382,-5.8981,-5.8805,-5.8478,-5.76,-5.7223,-5.6897,-5.647,-5.6294,-5.6219,-5.6219,-5.6219,-5.6219,-5.6219,-5.6219,-5.6219,-5.6219,-5.6219,-5.6219,-5.6219,-5.5817,-5.5591,-5.5591,-5.5189,-5.4938,-5.4938,-5.4838,-5.4687,-5.4561,-5.3758,-5.3306,-5.3306,-5.3306,-5.3306,-5.3306,-5.3181,-5.3105,-5.3105,-5.298,-5.2929,-5.2929,-5.2929,-5.2929,-5.2929,-5.2929,-5.2929,-5.2929,-5.2929,-5.2929,-5.2929,-5.2929,-5.2929,-5.2929,-5.8654,-5.9081,-5.9433,-5.9433,-5.9458,-5.9483,-5.9483,-5.9483,-5.9483,-5.9483,-5.9483,-5.9483,-5.9483,-5.9483,-5.9483,-5.9483,-5.9483,-5.9483,-5.9483,-5.9483,-5.9483,-5.9483,-5.9483,-5.9483,-5.9483,-5.9458,-5.9433,-5.9433,-5.9433,-5.9433,-5.9433,-5.9483,-5.9483,-5.9483,-5.9483,-5.9483,-5.9483,-5.9483,-5.9483,-5.9483,-5.9483,-5.9483,-5.9483,-5.9483,-5.9483,-5.9483,-5.9483,-5.9483,-5.9483,-5.9483,-5.9483,-5.9483,-5.9483,-5.9483,-5.9483,-5.9483,-5.9483,-5.9483,-5.9483,-5.9483,-5.9483,-5.9483,-5.9483,-5.9483,-5.9433,-5.9056,-5.8704,-5.8604,-5.775,-5.7022,-5.6972,-5.6545,-5.6219,-5.6219,-5.6219,-5.6219,-5.6219,-5.6219,-5.6219,-5.6219,-5.6219,-5.6219,-5.6219,-5.6168,-5.6143,-5.6143,-5.6118,-5.6093,-5.6093,-5.5591,-5.5089,-5.4658,-5.4486,-5.4436,-5.4436,-5.4436,-5.4436,-5.4436,-5.3909,-5.3632,-5.3632,-5.3155,-5.2929,-5.2929,-5.2929,-5.2929,-5.2929,-5.2929,-5.2929,-5.2929,-5.2929,-5.2929,-5.2929,-5.2929,-5.2929,-5.2929,-5.9207,-5.9357,-5.9483,-5.9483,-5.9483,-5.9483,-5.9483,-5.9483,-5.9483,-5.9483,-5.9483,-5.9483,-5.9483,-5.9483,-5.9483,-5.9483,-5.9483,-5.9483,-5.9483,-5.9483,-5.9483,-5.9483,-5.9483,-5.9483,-5.9483,-5.9483,-5.9483,-5.9483,-5.9483,-5.9483,-5.9483,-5.9483,-5.9483,-5.9483,-5.9483,-5.9483,-5.9483,-5.9483,-5.9483,-5.9483,-5.9483,-5.9483,-5.9483,-5.9483,-5.9483,-5.9483,-5.9483,-5.9483,-5.9483,-5.9483,-5.9483,-5.9483,-5.9483,-5.9483,-5.9483,-5.9483,-5.9483,-5.9483,-5.9483,-5.9483,-5.9483,-5.9483,-5.9483,-5.9483,-5.9483,-5.9332,-5.9106,-5.878,-5.8378,-5.7876,-5.7173,-5.6872,-5.662,-5.6269,-5.6219,-5.6219,-5.6219,-5.6219,-5.6219,-5.6219,-5.6219,-5.6219,-5.6219,-5.6219,-5.6219,-5.6219,-5.6219,-5.6219,-5.6219,-5.6018,-5.5792,-5.5591,-5.5591,-5.5265,-5.4587,-5.4561,-5.4561,-5.4561,-5.4336,-5.4235,-5.4235,-5.4034,-5.3758,-5.3406,-5.3406,-5.3231,-5.2929,-5.2929,-5.2929,-5.2929,-5.2929,-5.2929,-5.2929,-5.2929,-5.2929,-5.2929,-5.9483,-5.9483,-5.9483,-5.9483,-5.9483,-5.9483,-5.9483,-5.9483,-5.9483,-5.9483,-5.9483,-5.9483,-5.9483,-5.9483,-5.9483,-5.9483,-5.9483,-5.9483,-5.9483,-5.9483,-5.9483,-5.9483,-5.9483,-5.9483,-5.9483,-5.9483,-5.9483,-5.9483,-5.9483,-5.9483,-5.9483,-5.9483,-5.9483,-5.9483,-5.9483,-5.9483,-5.9483,-5.9483,-5.9483,-5.9483,-5.9483,-5.9483,-5.9483,-5.9483,-5.9483,-5.9483,-5.9483,-5.9483,-5.9483,-5.9483,-5.9483,-5.9483,-5.9483,-5.9483,-5.9483,-5.9483,-5.9483,-5.9483,-5.9483,-5.9483,-5.9483,-5.9483,-5.9483,-5.9483,-5.9483,-5.9483,-5.9382,-5.9031,-5.883,-5.8478,-5.77,-5.7273,-5.6922,-5.652,-5.6319,-5.6219,-5.6219,-5.6219,-5.6219,-5.6219,-5.6219,-5.6219,-5.6219,-5.6219,-5.6219,-5.6219,-5.6219,-5.6219,-5.6219,-5.6219,-5.6219,-5.6219,-5.6219,-5.5842,-5.5089,-5.5089,-5.5089,-5.5089,-5.4913,-5.4813,-5.4813,-5.4637,-5.4336,-5.3959,-5.3783,-5.3507,-5.3155,-5.3005,-5.2929,-5.2929,-5.2929,-5.2929,-5.2929,-5.2929,-5.2929,-5.2929,-5.9483,-5.9483,-5.9483,-5.9483,-5.9483,-5.9483,-5.9483,-5.9483,-5.9483,-5.9483,-5.9483,-5.9483,-5.9483,-5.9483,-5.9483,-5.9483,-5.9483,-5.9483,-5.9483,-5.9483,-5.9483,-5.9483,-5.9483,-5.9483,-5.9483,-5.9483,-5.9483,-5.9483,-5.9483,-5.9483,-5.9483,-5.9483,-5.9483,-5.9483,-5.9483,-5.9483,-5.9483,-5.9483,-5.9483,-5.9483,-5.9483,-5.9483,-5.9483,-5.9483,-5.9483,-5.9483,-5.9483,-5.9483,-5.9483,-5.9483,-5.9483,-5.9483,-5.9483,-5.9483,-5.9483,-5.9483,-5.9483,-5.9483,-5.9483,-5.9483,-5.9483,-5.9483,-5.9483,-5.9483,-5.9483,-5.9483,-5.9483,-5.9483,-5.9081,-5.873,-5.873,-5.7801,-5.7047,-5.7022,-5.657,-5.6219,-5.6219,-5.6219,-5.6219,-5.6219,-5.6219,-5.6219,-5.6219,-5.6219,-5.6219,-5.6219,-5.6219,-5.6219,-5.6219,-5.6219,-5.6219,-5.6219,-5.6219,-5.6219,-5.6219,-5.6219,-5.6219,-5.6194,-5.5666,-5.539,-5.539,-5.4838,-5.4587,-5.4536,-5.3959,-5.3708,-5.3658,-5.3155,-5.2929,-5.2929,-5.2929,-5.2929,-5.2929,-5.2929,-5.2929,-5.2929,-5.9483,-5.9483,-5.9483,-5.9483,-5.9483,-5.9483,-5.9483,-5.9483,-5.9483,-5.9483,-5.9483,-5.9483,-5.9483,-5.9483,-5.9483,-5.9483,-5.9483,-5.9483,-5.9483,-5.9483,-5.9483,-5.9483,-5.9483,-5.9483,-5.9483,-5.9483,-5.9483,-5.9483,-5.9483,-5.9483,-5.9483,-5.9483,-5.9483,-5.9483,-5.9483,-5.9483,-5.9483,-5.9483,-5.9483,-5.9483,-5.9483,-5.9483,-5.9483,-5.9483,-5.9483,-5.9483,-5.9483,-5.9483,-5.9483,-5.9483,-5.9483,-5.9483,-5.9483,-5.9483,-5.9483,-5.9483,-5.9483,-5.9483,-5.9483,-5.9483,-5.9483,-5.9483,-5.9483,-5.9483,-5.9483,-5.9483,-5.9483,-5.9483,-5.9382,-5.9156,-5.878,-5.8453,-5.7951,-5.7173,-5.6897,-5.6646,-5.6269,-5.6219,-5.6219,-5.6219,-5.6219,-5.6219,-5.6219,-5.6219,-5.6219,-5.6219,-5.6219,-5.6219,-5.6219,-5.6219,-5.6219,-5.6219,-5.6219,-5.6219,-5.6219,-5.6219,-5.6219,-5.6219,-5.6043,-5.5968,-5.5968,-5.5792,-5.5516,-5.5139,-5.4963,-5.4662,-5.426,-5.3708,-5.3457,-5.3432,-5.308,-5.2929,-5.2929,-5.2929,-5.2929,-5.2929,-5.9483,-5.9483,-5.9483,-5.9483,-5.9483,-5.9483,-5.9483,-5.9483,-5.9483,-5.9483,-5.9483,-5.9483,-5.9483,-5.9483,-5.9483,-5.9483,-5.9483,-5.9483,-5.9483,-5.9483,-5.9483,-5.9483,-5.9483,-5.9483,-5.9483,-5.9483,-5.9483,-5.9483,-5.9483,-5.9483,-5.9483,-5.9483,-5.9483,-5.9483,-5.9483,-5.9483,-5.9483,-5.9483,-5.9483,-5.9483,-5.9483,-5.9483,-5.9483,-5.9483,-5.9483,-5.9483,-5.9483,-5.9483,-5.9483,-5.9483,-5.9483,-5.9483,-5.9483,-5.9483,-5.9483,-5.9483,-5.9483,-5.9483,-5.9483,-5.9483,-5.9483,-5.9483,-5.9483,-5.9483,-5.9483,-5.9483,-5.9483,-5.9483,-5.9483,-5.9408,-5.9081,-5.8855,-5.8504,-5.7801,-5.7323,-5.6922,-5.657,-5.6344,-5.6219,-5.6219,-5.6219,-5.6219,-5.6219,-5.6219,-5.6219,-5.6219,-5.6219,-5.6219,-5.6219,-5.6219,-5.6219,-5.6219,-5.6219,-5.6219,-5.6219,-5.6219,-5.6219,-5.6219,-5.6219,-5.6219,-5.6219,-5.6219,-5.6018,-5.5691,-5.5491,-5.5189,-5.4838,-5.4285,-5.3909,-5.3658,-5.3356,-5.3105,-5.2929,-5.2929,-5.2929,-5.2929,-5.9483,-5.9483,-5.9483,-5.9483,-5.9483,-5.9483,-5.9483,-5.9483,-5.9483,-5.9483,-5.9483,-5.9483,-5.9483,-5.9483,-5.9483,-5.9483,-5.9483,-5.9483,-5.9483,-5.9483,-5.9483,-5.9483,-5.9483,-5.9483,-5.9483,-5.9483,-5.9483,-5.9483,-5.9483,-5.9483,-5.9483,-5.9483,-5.9483,-5.9483,-5.9483,-5.9483,-5.9483,-5.9483,-5.9483,-5.9483,-5.9483,-5.9483,-5.9483,-5.9483,-5.9483,-5.9483,-5.9483,-5.9483,-5.9483,-5.9483,-5.9483,-5.9483,-5.9483,-5.9483,-5.9483,-5.9483,-5.9483,-5.9483,-5.9483,-5.9483,-5.9483,-5.9483,-5.9483,-5.9483,-5.9483,-5.9483,-5.9483,-5.9483,-5.9483,-5.9483,-5.9483,-5.9106,-5.878,-5.873,-5.7851,-5.7173,-5.7123,-5.662,-5.6294,-5.6294,-5.6244,-5.6219,-5.6219,-5.6219,-5.6219,-5.6219,-5.6219,-5.6219,-5.6219,-5.6219,-5.6219,-5.6219,-5.6219,-5.6219,-5.6219,-5.6219,-5.6219,-5.6219,-5.6219,-5.6219,-5.6219,-5.6219,-5.6219,-5.6194,-5.5666,-5.5465,-5.5415,-5.4863,-5.4336,-5.3858,-5.3808,-5.3457,-5.3005,-5.3005,-5.298,-5.2929,-5.9483,-5.9483,-5.9483,-5.9483,-5.9483,-5.9483,-5.9483,-5.9483,-5.9483,-5.9483,-5.9483,-5.9483,-5.9483,-5.9483,-5.9483,-5.9483,-5.9483,-5.9483,-5.9483,-5.9483,-5.9483,-5.9483,-5.9483,-5.9483,-5.9483,-5.9483,-5.9483,-5.9483,-5.9483,-5.9483,-5.9483,-5.9483,-5.9483,-5.9483,-5.9483,-5.9483,-5.9483,-5.9483,-5.9483,-5.9483,-5.9483,-5.9483,-5.9483,-5.9483,-5.9483,-5.9483,-5.9483,-5.9483,-5.9483,-5.9483,-5.9483,-5.9483,-5.9483,-5.9483,-5.9483,-5.9483,-5.9483,-5.9483,-5.9483,-5.9483,-5.9483,-5.9483,-5.9483,-5.9483,-5.9483,-5.9483,-5.9483,-5.9483,-5.9483,-5.9483,-5.9483,-5.9408,-5.9207,-5.878,-5.8529,-5.8202,-5.7775,-5.7223,-5.6846,-5.6846,-5.647,-5.6219,-5.6219,-5.6219,-5.6219,-5.6219,-5.6219,-5.6219,-5.6219,-5.6219,-5.6219,-5.6219,-5.6219,-5.6219,-5.6219,-5.6219,-5.6219,-5.6219,-5.6219,-5.6219,-5.6219,-5.6219,-5.6219,-5.6194,-5.6093,-5.6043,-5.5993,-5.544,-5.5139,-5.4988,-5.4536,-5.4034,-5.3532,-5.3532,-5.3281,-5.2929,-5.9483,-5.9483,-5.9483,-5.9483,-5.9483,-5.9483,-5.9483,-5.9483,-5.9483,-5.9483,-5.9483,-5.9483,-5.9483,-5.9483,-5.9483,-5.9483,-5.9483,-5.9483,-5.9483,-5.9483,-5.9483,-5.9483,-5.9483,-5.9483,-5.9483,-5.9483,-5.9483,-5.9483,-5.9483,-5.9483,-5.9483,-5.9483,-5.9483,-5.9483,-5.9483,-5.9483,-5.9483,-5.9483,-5.9483,-5.9483,-5.9483,-5.9483,-5.9483,-5.9483,-5.9483,-5.9483,-5.9483,-5.9483,-5.9483,-5.9483,-5.9483,-5.9483,-5.9483,-5.9483,-5.9483,-5.9483,-5.9483,-5.9483,-5.9483,-5.9483,-5.9483,-5.9483,-5.9483,-5.9483,-5.9483,-5.9483,-5.9483,-5.9483,-5.9483,-5.9483,-5.9483,-5.9483,-5.9408,-5.9131,-5.888,-5.8629,-5.8328,-5.7801,-5.7349,-5.7072,-5.6771,-5.6495,-5.6244,-5.6219,-5.6219,-5.6219,-5.6219,-5.6219,-5.6219,-5.6219,-5.6219,-5.6219,-5.6219,-5.6219,-5.6219,-5.6219,-5.6219,-5.6219,-5.6219,-5.6219,-5.6219,-5.6219,-5.6219,-5.6219,-5.6219,-5.6219,-5.6194,-5.5892,-5.5616,-5.5365,-5.5064,-5.4612,-5.4084,-5.3808,-5.3381,-5.2929,-5.9483,-5.9483,-5.9483,-5.9483,-5.9483,-5.9483,-5.9483,-5.9483,-5.9483,-5.9483,-5.9483,-5.9483,-5.9483,-5.9483,-5.9483,-5.9483,-5.9483,-5.9483,-5.9483,-5.9483,-5.9483,-5.9483,-5.9483,-5.9483,-5.9483,-5.9483,-5.9483,-5.9483,-5.9483,-5.9483,-5.9483,-5.9483,-5.9483,-5.9483,-5.9483,-5.9483,-5.9483,-5.9483,-5.9483,-5.9483,-5.9483,-5.9483,-5.9483,-5.9483,-5.9483,-5.9483,-5.9483,-5.9483,-5.9483,-5.9483,-5.9483,-5.9483,-5.9483,-5.9483,-5.9483,-5.9483,-5.9483,-5.9483,-5.9483,-5.9483,-5.9483,-5.9483,-5.9483,-5.9483,-5.9483,-5.9483,-5.9483,-5.9483,-5.9483,-5.9483,-5.9483,-5.9483,-5.9483,-5.9483,-5.9131,-5.8855,-5.8855,-5.8378,-5.7851,-5.7374,-5.7148,-5.6846,-5.6394,-5.6269,-5.6219,-5.6219,-5.6219,-5.6219,-5.6219,-5.6219,-5.6219,-5.6219,-5.6219,-5.6219,-5.6219,-5.6219,-5.6219,-5.6219,-5.6219,-5.6219,-5.6219,-5.6219,-5.6219,-5.6219,-5.6219,-5.6219,-5.6219,-5.6219,-5.5942,-5.5541,-5.5541,-5.5189,-5.4637,-5.3959,-5.3432,-5.3055,-5.9483,-5.9483,-5.9483,-5.9483,-5.9483,-5.9483,-5.9483,-5.9483,-5.9483,-5.9483,-5.9483,-5.9483,-5.9483,-5.9483,-5.9483,-5.9483,-5.9483,-5.9483,-5.9483,-5.9483,-5.9483,-5.9483,-5.9483,-5.9483,-5.9483,-5.9483,-5.9483,-5.9483,-5.9483,-5.9483,-5.9483,-5.9483,-5.9483,-5.9483,-5.9483,-5.9483,-5.9483,-5.9483,-5.9483,-5.9483,-5.9483,-5.9483,-5.9483,-5.9483,-5.9483,-5.9483,-5.9483,-5.9483,-5.9483,-5.9483,-5.9483,-5.9483,-5.9483,-5.9483,-5.9483,-5.9483,-5.9483,-5.9483,-5.9483,-5.9483,-5.9483,-5.9483,-5.9483,-5.9483,-5.9483,-5.9483,-5.9483,-5.9483,-5.9483,-5.9483,-5.9483,-5.9483,-5.9483,-5.9483,-5.9433,-5.9382,-5.9382,-5.893,-5.8579,-5.8504,-5.7625,-5.6997,-5.6922,-5.6495,-5.6219,-5.6219,-5.6219,-5.6219,-5.6219,-5.6219,-5.6219,-5.6219,-5.6219,-5.6219,-5.6219,-5.6219,-5.6219,-5.6219,-5.6219,-5.6219,-5.6219,-5.6219,-5.6219,-5.6219,-5.6219,-5.6219,-5.6219,-5.6219,-5.6168,-5.6093,-5.6093,-5.5767,-5.5139,-5.4084,-5.3658,-5.3532,-5.9483,-5.9483,-5.9483,-5.9483,-5.9483,-5.9483,-5.9483,-5.9483,-5.9483,-5.9483,-5.9483,-5.9483,-5.9483,-5.9483,-5.9483,-5.9483,-5.9483,-5.9483,-5.9483,-5.9483,-5.9483,-5.9483,-5.9483,-5.9483,-5.9483,-5.9483,-5.9483,-5.9483,-5.9483,-5.9483,-5.9483,-5.9483,-5.9483,-5.9483,-5.9483,-5.9483,-5.9483,-5.9483,-5.9483,-5.9483,-5.9483,-5.9483,-5.9483,-5.9483,-5.9483,-5.9483,-5.9483,-5.9483,-5.9483,-5.9483,-5.9483,-5.9483,-5.9483,-5.9483,-5.9483,-5.9483,-5.9483,-5.9483,-5.9483,-5.9483,-5.9483,-5.9483,-5.9483,-5.9483,-5.9483,-5.9483,-5.9483,-5.9483,-5.9483,-5.9483,-5.9483,-5.9483,-5.9483,-5.9483,-5.9483,-5.9483,-5.9483,-5.9307,-5.9056,-5.8755,-5.8001,-5.7524,-5.7524,-5.6997,-5.6671,-5.6671,-5.6394,-5.6219,-5.6219,-5.6219,-5.6219,-5.6219,-5.6219,-5.6219,-5.6219,-5.6219,-5.6219,-5.6219,-5.6219,-5.6219,-5.6219,-5.6219,-5.6219,-5.6219,-5.6219,-5.6219,-5.6219,-5.6219,-5.6219,-5.6219,-5.6219,-5.5867,-5.534,-5.4838,-5.4461,-5.411]},{"header":{"parameterUnit":"m.s-1","parameterCategory":1,"la1":30.6,"la2":28.766,"lo1":-90.7593,"lo2":-88.6598,"dy":0.0162,"dx":0.0183,"nx":116,"ny":114,"refTime":"2024-04-22T12:00:00:Z","depth":0,"parameterNumber":3,"parameterNumberName":"V-component_of_WINDS"},"data":[0.0,0.0,0.0,0.0,0.0,0.0,0.0,0.0,0.0,0.0,0.0,0.0,0.0,0.0,0.0,0.0,0.0,0.0,0.0,0.0,0.0,0.0,0.0,0.0,0.0,0.0,0.0,0.0,0.0,0.0,0.0,0.0,0.0,0.0,0.0,0.0,0.0,0.0,0.0,0.0,0.0,0.0,0.0,0.0,0.0,0.0,0.0,0.0,0.0,0.0,0.0,0.0,0.0,0.0,0.0,0.0,0.0,0.0,0.0,0.0,0.0,0.0,0.0,0.0,0.0,0.0,0.0,0.0,0.0,0.0,0.0,0.0,0.0,0.0,0.0,0.0,0.0,0.0,0.0,0.0,0.0,0.0,0.0,0.0,0.0,0.0,0.0,0.0,0.0,0.0,0.0,0.0,0.0,0.0,0.0,0.0,0.0,0.0,0.0,0.0,0.0,0.0,0.0,0.0,0.0,0.0,0.0,0.0,0.0,0.0,0.0,0.0,0.0,0.0,0.0,0.0,0.0,0.0,0.0,0.0,0.0,0.0,0.0,0.0,0.0,0.0,0.0,0.0,0.0,0.0,0.0,0.0,0.0,0.0,0.0,0.0,0.0,0.0,0.0,0.0,0.0,0.0,0.0,0.0,0.0,0.0,0.0,0.0,0.0,0.0,0.0,0.0,0.0,0.0,0.0,0.0,0.0,0.0,0.0,0.0,0.0,0.0,0.0,0.0,0.0,0.0,0.0,0.0,0.0,0.0,0.0,0.0,0.0,0.0,0.0,0.0,0.0,0.0,0.0,0.0,0.0,0.0,0.0,0.0,0.0,0.0,0.0,0.0,0.0,0.0,0.0,0.0,0.0,0.0,0.0,0.0,0.0,0.0,0.0,0.0,0.0,0.0,0.0,0.0,0.0,0.0,0.0,0.0,0.0,0.0,0.0,0.0,0.0,0.0,0.0,0.0,0.0,0.0,0.0,0.0,0.0,0.0,0.0,0.0,0.0,0.0,0.0,0.0,0.0,0.0,0.0,0.0,0.0,0.0,0.0,0.0,0.0,0.0,0.0,0.0,0.0,0.0,0.0,0.0,0.0,0.0,0.0,0.0,0.0,0.0,0.0,0.0,0.0,0.0,0.0,0.0,0.0,0.0,0.0,0.0,0.0,0.0,0.0,0.0,0.0,0.0,0.0,0.0,0.0,0.0,0.0,0.0,0.0,0.0,0.0,0.0,0.0,0.0,0.0,0.0,0.0,0.0,0.0,0.0,0.0,0.0,0.0,0.0,0.0,0.0,0.0,0.0,0.0,0.0,0.0,0.0,0.0,0.0,0.0,0.0,0.0,0.0,0.0,0.0,0.0,0.0,0.0,0.0,0.0,0.0,0.0,0.0,0.0,0.0,0.0,0.0,0.0,0.0,0.0,0.0,0.0,0.0,0.0,0.0,0.0,0.0,0.0,0.0,0.0,0.0,0.0,0.0,0.0,0.0,0.0,0.0,0.0,0.0,0.0,0.0,0.0,0.0,0.0,0.0,0.0,0.0,0.0,0.0,0.0,0.0,0.0,0.0,0.0,0.0,0.0,0.0,0.0,0.0,0.0,0.0,0.0,0.0,0.0,0.0,0.0,0.0,0.0,0.0,0.0,0.0,0.0,0.0,0.0,0.0,0.0,0.0,0.0,0.0,0.0,0.0,0.0,0.0,0.0,0.0,0.0,0.0,0.0,0.0,0.0,0.0,0.0,0.0,0.0,0.0,0.0,0.0,0.0,0.0,0.0,0.0,0.0,0.0,0.0,0.0,0.0,0.0,0.0,0.0,0.0,0.0,0.0,0.0,0.0,0.0,0.0,0.0,0.0,0.0,0.0,0.0,0.0,0.0,0.0,0.0,0.0,0.0,0.0,0.0,0.0,0.0,0.0,0.0,0.0,0.0,0.0,0.0,0.0,0.0,0.0,0.0,0.0,0.0,0.0,0.0,0.0,0.0,0.0,0.0,0.0,0.0,0.0,0.0,0.0,0.0,0.0,0.0,0.0,0.0,0.0,0.0,0.0,0.0,0.0,0.0,0.0,0.0,0.0,0.0,0.0,0.0,0.0,0.0,0.0,0.0,0.0,0.0,0.0,0.0,0.0,0.0,0.0,0.0,0.0,0.0,0.0,0.0,0.0,0.0,0.0,0.0,0.0,0.0,0.0,0.0,0.0,0.0,0.0,0.0,0.0,0.0,0.0,0.0,0.0,0.0,0.0,0.0,0.0,0.0,0.0,0.0,0.0,0.0,0.0,0.0,0.0,0.0,0.0,0.0,0.0,0.0,0.0,0.0,0.0,0.0,0.0,0.0,0.0,0.0,0.0,0.0,0.0,0.0,0.0,0.0,0.0,0.0,0.0,0.0,0.0,0.0,0.0,0.0,0.0,0.0,0.0,0.0,0.0,0.0,0.0,0.0,0.0,0.0,0.0,0.0,0.0,0.0,0.0,0.0,0.0,0.0,0.0,0.0,0.0,0.0,0.0,0.0,0.0,0.0,0.0,0.0,0.0,0.0,0.0,0.0,0.0,0.0,0.0,0.0,0.0,0.0,0.0,0.0,0.0,0.0,0.0,0.0,0.0,0.0,0.0,0.0,0.0,0.0,0.0,0.0,0.0,0.0,0.0,0.0,0.0,0.0,0.0,0.0,0.0,0.0,0.0,0.0,0.0,0.0,0.0,0.0,0.0,0.0,0.0,0.0,0.0,0.0,0.0,0.0,0.0,0.0,0.0,0.0,0.0,0.0,0.0,0.0,0.0,0.0,0.0,0.0,0.0,0.0,0.0,0.0,0.0,0.0,0.0,0.0,0.0,0.0,0.0,0.0,0.0,0.0,0.0,0.0,0.0,0.0,0.0,0.0,0.0,0.0,0.0,0.0,0.0,0.0,0.0,0.0,0.0,0.0,0.0,0.0,0.0,0.0,0.0,0.0,0.0,0.0,0.0,0.0,0.0,0.0,0.0,0.0,0.0,0.0,0.0,0.0,0.0,0.0,0.0,0.0,0.0,0.0,0.0,0.0,0.0,0.0,0.0,0.0,0.0,0.0,0.0,0.0,0.0,0.0,0.0,0.0,0.0,0.0,0.0,0.0,0.0,0.0,0.0,0.0,0.0,0.0,0.0,0.0,0.0,0.0,0.0,0.0,0.0,0.0,0.0,0.0,0.0,0.0,0.0,0.0,0.0,0.0,0.0,0.0,0.0,0.0,0.0,0.0,0.0,0.0,0.0,0.0,0.0,0.0,0.0,0.0,0.0,0.0,0.0,0.0,0.0,0.0,0.0,0.0,0.0,0.0,0.0,0.0,0.0,0.0,0.0,0.0,0.0,0.0,0.0,0.0,0.0,0.0,0.0,0.0,0.0,0.0,0.0,0.0,0.0,0.0,0.0,0.0,0.0,0.0,0.0,0.0,0.0,0.0,0.0,0.0,0.0,0.0,0.0,0.0,0.0,0.0,0.0,0.0,0.0,0.0,0.0,0.0,0.0,0.0,0.0,0.0,0.0,0.0,0.0,0.0,0.0,0.0,0.0,0.0,0.0,0.0,0.0,0.0,0.0,0.0,0.0,0.0,0.0,0.0,0.0,0.0,0.0,0.0,0.0,0.0,0.0,0.0,0.0,0.0,0.0,0.0,0.0,0.0,0.0,0.0,0.0,0.0,0.0,0.0,0.0,0.0,0.0,0.0,0.0,0.0,0.0,0.0,0.0,0.0,0.0,0.0,0.0,0.0,0.0,0.0,0.0,0.0,0.0,0.0,0.0,0.0,0.0,0.0,0.0,0.0,0.0,0.0,0.0,0.0,0.0,0.0,0.0,0.0,0.0,0.0,0.0,0.0,0.0,0.0,0.0,0.0,0.0,0.0,0.0,0.0,0.0,0.0,0.0,0.0,0.0,0.0,0.0,0.0,0.0,0.0,0.0,0.0,0.0,0.0,0.0,0.0,0.0,0.0,0.0,0.0,0.0,0.0,0.0,0.0,0.0,0.0,0.0,0.0,0.0,0.0,0.0,0.0,0.0,0.0,0.0,0.0,0.0,0.0,0.0,0.0,0.0,0.0,0.0,0.0,0.0,0.0,0.0,0.0,0.0,0.0,0.0,0.0,0.0,0.0,0.0,0.0,0.0,0.0,0.0,0.0,0.0,0.0,0.0,0.0,0.0,0.0,0.0,0.0,0.0,0.0,0.0,0.0,0.0,0.0,0.0,0.0,0.0,0.0,0.0,0.0,0.0,0.0,0.0,0.0,0.0,0.0,0.0,0.0,0.0,0.0,0.0,0.0,0.0,0.0,0.0,0.0,0.0,0.0,0.0,0.0,0.0,0.0,0.0,0.0,0.0,0.0,0.0,0.0,0.0,0.0,0.0,0.0,0.0,0.0,0.0,0.0,0.0,0.0,0.0,0.0,0.0,0.0,0.0,0.0,0.0,0.0,0.0,0.0,0.0,0.0,0.0,0.0,0.0,0.0,0.0,0.0,0.0,0.0,0.0,0.0,0.0,0.0,0.0,0.0,0.0,0.0,0.0,0.0,0.0,0.0,0.0,0.0,0.0,0.0,0.0,0.0,0.0,0.0,0.0,0.0,0.0,0.0,0.0,0.0,0.0,0.0,0.0,0.0,0.0,0.0,0.0,0.0,0.0,0.0,0.0,0.0,0.0,0.0,0.0,0.0,0.0,0.0,0.0,0.0,0.0,0.0,0.0,0.0,0.0,0.0,0.0,0.0,0.0,0.0,0.0,0.0,0.0,0.0,0.0,0.0,0.0,0.0,0.0,0.0,0.0,0.0,0.0,0.0,0.0,0.0,0.0,0.0,0.0,0.0,0.0,0.0,0.0,0.0,0.0,0.0,0.0,0.0,0.0,0.0,0.0,0.0,0.0,0.0,0.0,0.0,0.0,0.0,0.0,0.0,0.0,0.0,0.0,0.0,0.0,0.0,0.0,0.0,0.0,0.0,0.0,0.0,0.0,0.0,0.0,0.0,0.0,0.0,0.0,0.0,0.0,0.0,0.0,0.0,0.0,0.0,0.0,0.0,0.0,0.0,0.0,0.0,0.0,0.0,0.0,0.0,0.0,0.0,0.0,0.0,0.0,0.0,0.0,0.0,0.0,0.0,0.0,0.0,0.0,0.0,0.0,0.0,0.0,0.0,0.0,0.0,0.0,0.0,0.0,0.0,0.0,0.0,0.0,0.0,0.0,0.0,0.0,0.0,0.0,0.0,0.0,0.0,0.0,0.0,0.0,0.0,0.0,0.0,0.0,0.0,0.0,0.0,0.0,0.0,0.0,0.0,0.0,0.0,0.0,0.0,0.0,0.0,0.0,0.0,0.0,0.0,0.0,0.0,0.0,0.0,0.0,0.0,0.0,0.0,0.0,0.0,0.0,0.0,0.0,0.0,0.0,0.0,0.0,0.0,0.0,0.0,0.0,0.0,0.0,0.0,0.0,0.0,0.0,0.0,0.0,0.0,0.0,0.0,0.0,0.0,0.0,0.0,0.0,0.0,0.0,0.0,0.0,0.0,0.0,0.0,0.0,0.0,0.0,0.0,0.0,0.0,0.0,0.0,0.0,0.0,0.0,0.0,0.0,0.0,0.0,0.0,0.0,0.0,0.0,0.0,0.0,0.0,0.0,0.0,0.0,0.0,0.0,0.0,0.0,0.0,0.0,0.0,0.0,0.0,0.0,0.0,0.0,0.0,0.0,0.0,0.0,0.0,0.0,0.0,0.0,0.0,0.0,0.0,0.0,0.0,0.0,0.0,0.0,0.0,0.0,0.0,0.0,0.0,0.0,0.0,0.0,0.0,0.0,0.0,0.0,0.0,0.0,0.0,0.0,0.0,0.0,0.0,0.0,0.0,0.0,0.0,0.0,0.0,0.0,0.0,0.0,0.0,0.0,0.0,0.0,0.0,0.0,0.0,0.0,0.0,0.0,0.0,0.0,0.0,0.0,0.0,0.0,0.0,0.0,0.0,0.0,0.0,0.0,0.0,0.0,0.0,0.0,0.0,0.0,0.0,0.0,0.0,0.0,0.0,0.0,0.0,0.0,0.0,0.0,0.0,0.0,0.0,0.0,0.0,0.0,0.0,0.0,0.0,5.1105,5.1229,0.0,0.0,0.0,0.0,0.0,0.0,0.0,0.0,0.0,0.0,0.0,0.0,0.0,0.0,0.0,0.0,0.0,0.0,0.0,0.0,0.0,0.0,0.0,5.1229,5.1229,5.1229,5.1229,5.1229,5.1229,5.1229,0.0,0.0,0.0,0.0,0.0,0.0,5.0674,5.0674,5.0062,4.9583,4.9299,4.8566,4.8087,4.7758,0.0,0.0,0.0,0.0,0.0,0.0,0.0,0.0,0.0,0.0,0.0,0.0,0.0,0.0,0.0,0.0,0.0,0.0,0.0,0.0,0.0,0.0,0.0,0.0,0.0,0.0,0.0,0.0,0.0,0.0,0.0,0.0,0.0,0.0,0.0,0.0,0.0,0.0,0.0,0.0,0.0,0.0,0.0,0.0,0.0,0.0,0.0,0.0,0.0,0.0,0.0,0.0,0.0,0.0,0.0,0.0,0.0,0.0,0.0,0.0,0.0,0.0,0.0,0.0,0.0,0.0,0.0,0.0,0.0,0.0,5.1011,5.1011,0.0,0.0,0.0,0.0,0.0,0.0,0.0,0.0,0.0,0.0,0.0,0.0,0.0,0.0,0.0,0.0,0.0,0.0,0.0,0.0,0.0,5.1229,5.1229,5.1229,5.1229,5.1229,5.1229,5.1229,5.1229,5.1229,5.1229,5.1229,5.1229,5.1229,5.1229,5.1229,5.1229,5.1229,5.0644,5.0122,4.9659,4.9494,4.9134,4.8596,4.7938,0.0,0.0,0.0,0.0,0.0,0.0,0.0,0.0,0.0,0.0,0.0,0.0,0.0,0.0,0.0,0.0,0.0,0.0,0.0,0.0,0.0,0.0,0.0,0.0,0.0,0.0,0.0,0.0,0.0,0.0,0.0,0.0,0.0,0.0,0.0,0.0,0.0,0.0,0.0,0.0,0.0,0.0,0.0,0.0,0.0,0.0,0.0,0.0,0.0,0.0,0.0,0.0,0.0,0.0,0.0,0.0,0.0,0.0,0.0,0.0,0.0,0.0,0.0,5.0632,5.0728,5.0548,5.068,5.0822,5.0994,5.0822,5.0775,5.0917,5.1105,0.0,0.0,0.0,0.0,0.0,0.0,0.0,0.0,0.0,0.0,0.0,0.0,0.0,0.0,0.0,0.0,0.0,0.0,0.0,5.1229,5.1229,5.1229,5.1229,5.1229,5.1229,5.1229,5.1229,5.1229,5.1229,5.1229,5.1229,5.1229,5.1229,5.1229,5.1229,5.1229,5.1139,5.105,5.096,5.0315,5.0016,4.9897,4.9284,4.8686,4.8147,0.0,0.0,0.0,0.0,0.0,0.0,0.0,0.0,0.0,0.0,0.0,0.0,0.0,0.0,0.0,0.0,0.0,0.0,0.0,0.0,0.0,0.0,0.0,0.0,0.0,0.0,0.0,0.0,0.0,0.0,0.0,0.0,0.0,0.0,0.0,0.0,0.0,0.0,0.0,0.0,0.0,5.1229,5.1229,0.0,0.0,0.0,0.0,0.0,0.0,0.0,0.0,0.0,0.0,0.0,0.0,0.0,5.0728,5.0548,5.0548,5.0614,5.0728,5.0775,5.0822,5.0775,5.0614,5.0423,5.0279,5.0423,0.0,5.1152,5.1182,0.0,0.0,0.0,0.0,0.0,0.0,0.0,0.0,0.0,0.0,0.0,0.0,0.0,0.0,0.0,0.0,0.0,0.0,0.0,0.0,0.0,5.1229,5.1229,5.1229,5.1229,5.1229,5.1229,5.1229,5.1229,5.1229,5.1229,5.1229,5.1229,5.1229,5.1229,5.1229,5.1229,5.1229,5.1199,5.0883,5.0734,5.0734,5.0481,4.9793,4.888,4.888,0.0,0.0,0.0,0.0,0.0,0.0,0.0,0.0,0.0,0.0,0.0,0.0,0.0,0.0,0.0,0.0,0.0,0.0,0.0,0.0,0.0,0.0,0.0,0.0,0.0,0.0,0.0,0.0,0.0,0.0,0.0,0.0,0.0,0.0,0.0,0.0,0.0,0.0,0.0,5.1229,5.1105,5.1011,5.0964,5.0964,0.0,0.0,0.0,0.0,0.0,0.0,0.0,0.0,0.0,5.068,5.0775,5.0822,5.0899,5.0644,5.0821,5.1387,5.1387,5.1565,5.1921,5.166,5.1591,5.1611,5.1415,5.1562,5.1843,5.1387,5.1105,5.1011,0.0,0.0,0.0,0.0,5.1105,5.1011,0.0,0.0,0.0,0.0,0.0,0.0,0.0,0.0,0.0,0.0,0.0,0.0,5.1229,5.1229,5.1229,5.1229,5.1229,5.1229,5.1229,5.1229,5.1229,5.1229,5.1229,5.1229,5.1229,5.1229,5.1229,5.1229,5.1229,5.1229,5.1229,5.1229,5.1229,5.1229,5.1229,5.0571,4.9523,4.9523,4.9134,4.858,0.0,0.0,0.0,0.0,0.0,0.0,0.0,0.0,0.0,0.0,0.0,0.0,0.0,0.0,0.0,0.0,0.0,0.0,0.0,0.0,0.0,0.0,0.0,0.0,0.0,0.0,0.0,0.0,0.0,0.0,0.0,0.0,0.0,0.0,0.0,0.0,0.0,5.1229,5.1105,5.0917,5.0917,5.0917,0.0,0.0,0.0,0.0,0.0,0.0,5.0917,5.1018,5.106,5.1155,5.1334,5.1518,5.1708,5.1309,5.1402,5.207,5.207,5.2288,5.2714,5.2566,5.2566,5.2684,5.2338,5.2317,5.2457,5.1791,5.1423,5.1327,5.1518,5.1423,5.1232,5.1518,5.1595,5.15,0.0,0.0,0.0,0.0,0.0,0.0,0.0,0.0,0.0,0.0,0.0,5.1229,5.1229,5.1229,5.1229,5.1229,5.1229,5.1229,5.1229,5.1229,5.1229,5.1229,5.1229,5.1229,5.1229,5.1229,5.1229,5.1229,5.1229,5.1229,5.1229,5.1229,5.1229,5.1229,5.1229,5.0794,5.0136,5.0136,4.9823,4.9269,4.9269,0.0,0.0,0.0,0.0,0.0,0.0,0.0,0.0,0.0,0.0,0.0,0.0,0.0,0.0,0.0,0.0,0.0,0.0,0.0,0.0,0.0,0.0,0.0,0.0,0.0,0.0,0.0,0.0,0.0,0.0,0.0,0.0,0.0,0.0,0.0,0.0,0.0,0.0,5.1182,5.1182,0.0,0.0,0.0,0.0,5.1229,5.0964,5.0917,5.1182,5.1542,5.1869,5.2109,5.2755,5.3084,5.3084,5.2792,5.2723,5.2753,5.2753,5.2635,5.2417,5.2665,5.2635,5.2437,5.2635,5.2763,5.2763,5.2457,5.2477,5.2694,5.2694,5.2576,5.2378,5.2595,5.2576,5.2378,0.0,0.0,0.0,0.0,0.0,5.1229,5.1229,5.1229,5.1229,5.1229,5.1229,5.1229,5.1229,5.1229,5.1229,5.1229,5.1229,5.1229,5.1229,5.1229,5.1229,5.1229,5.1229,5.1229,5.1229,5.1229,5.1229,5.1229,5.1229,5.1229,5.1229,5.1229,5.1229,5.1229,5.1229,5.1079,5.0823,5.0823,5.0481,4.9883,4.9883,4.9643,0.0,0.0,0.0,0.0,0.0,0.0,0.0,0.0,0.0,0.0,0.0,0.0,0.0,0.0,0.0,0.0,0.0,0.0,0.0,0.0,0.0,0.0,0.0,0.0,0.0,0.0,0.0,0.0,0.0,0.0,0.0,0.0,0.0,0.0,0.0,0.0,0.0,5.0964,5.1058,0.0,5.0964,5.1494,5.1858,5.1858,5.2121,5.239,5.2486,5.2599,5.2748,5.2845,5.2908,5.3237,5.3832,5.3436,5.3802,5.4968,5.4582,5.4665,5.513,5.4893,5.4789,5.4893,5.4632,5.458,5.4818,5.4714,5.4022,5.3028,5.3028,5.2979,5.2911,5.2862,5.2763,5.2615,0.0,0.0,0.0,0.0,0.0,5.1229,5.1229,5.1229,5.1229,5.1229,5.1229,5.1229,5.1229,5.1229,5.1229,5.1229,5.1229,5.1229,5.1229,5.1229,5.1229,5.1229,5.1229,5.1229,5.1229,5.1229,5.1229,5.1229,5.1229,5.1229,5.1229,5.1229,5.1229,5.1229,5.1229,5.1229,5.1229,5.1229,5.096,5.0524,5.0524,5.0301,4.9972,0.0,0.0,0.0,0.0,0.0,0.0,0.0,0.0,0.0,0.0,0.0,0.0,0.0,0.0,0.0,0.0,0.0,0.0,0.0,0.0,0.0,0.0,0.0,0.0,0.0,0.0,0.0,0.0,0.0,0.0,0.0,0.0,0.0,0.0,5.1229,5.1195,5.1262,5.1434,5.1523,5.159,5.2181,5.2546,5.2546,5.2935,5.3174,5.3174,5.3623,5.3862,5.3862,5.4132,5.4529,5.5179,5.4845,5.524,5.6392,5.6288,5.6509,5.706,5.6917,5.7035,5.7196,5.6819,5.6765,5.7011,5.7011,5.6295,5.5149,5.457,5.4321,5.427,5.417,5.4119,5.4069,0.0,0.0,0.0,0.0,0.0,5.1229,5.1229,5.1229,5.1229,5.1229,5.1229,5.1229,5.1229,5.1229,5.1229,5.1229,5.1229,5.1229,5.1229,5.1229,5.1229,5.1229,5.1229,5.1229,5.1229,5.1229,5.1229,5.1229,5.1229,5.1229,5.1229,5.1229,5.1229,5.1229,5.1229,5.1229,5.1229,5.1229,5.1229,5.1229,5.1229,5.1229,5.1229,0.0,0.0,0.0,0.0,0.0,0.0,0.0,0.0,0.0,0.0,0.0,0.0,0.0,0.0,0.0,0.0,0.0,0.0,0.0,0.0,0.0,0.0,0.0,0.0,0.0,0.0,0.0,0.0,0.0,0.0,0.0,0.0,0.0,5.1349,5.1259,5.1498,5.2157,5.2217,5.2486,5.3114,5.3204,5.3234,5.3234,5.3264,5.3294,5.3294,5.4551,5.5239,5.5239,5.6466,5.7124,5.7154,5.7184,5.7109,5.6875,5.7743,5.8041,5.7827,5.8698,5.9105,5.9105,5.9105,5.9105,5.9105,5.9105,5.9105,5.8985,5.7375,5.6574,5.6362,5.6627,5.6704,5.6674,0.0,0.0,0.0,5.1229,5.1229,5.1229,5.1229,5.1229,5.1229,5.1229,5.1229,5.1229,5.1229,5.1229,5.1229,5.1229,5.1229,5.1229,5.1229,5.1229,5.1229,5.1229,5.1229,5.1229,5.1229,5.1229,5.1229,5.1229,5.1229,5.1229,5.1229,5.1229,5.1229,5.1229,5.1229,5.1229,5.1229,5.1229,5.1229,5.1229,5.1229,5.1229,5.1229,0.0,0.0,0.0,0.0,0.0,0.0,0.0,0.0,0.0,0.0,0.0,0.0,0.0,0.0,0.0,0.0,0.0,0.0,0.0,0.0,0.0,0.0,0.0,0.0,0.0,0.0,0.0,0.0,0.0,0.0,0.0,5.2785,5.2665,5.2037,5.2336,5.2695,5.2875,5.2905,5.2995,5.3174,5.3623,5.4132,5.461,5.5089,5.5538,5.5987,5.6376,5.6585,5.6585,5.7393,5.8082,5.856,5.9009,5.9463,5.9917,5.99,5.9878,5.9822,5.9889,5.9865,5.9865,5.9865,5.9753,5.9554,5.9809,5.9753,5.9492,5.8743,5.7994,5.7285,5.7178,5.653,5.585,0.0,0.0,0.0,5.1229,5.1229,5.1229,5.1229,5.1229,5.1229,5.1229,5.1229,5.1229,5.1229,5.1229,5.1229,5.1229,5.1229,5.1229,5.1229,5.1229,5.1229,5.1229,5.1229,5.1229,5.1229,5.1229,5.1229,5.1229,5.1229,5.1229,5.1229,5.1229,5.1229,5.1229,5.1229,5.1229,5.1229,5.1229,5.1229,5.1229,5.1229,5.1229,5.1229,5.1229,5.1229,5.1229,5.1229,5.1229,5.1229,5.1229,0.0,0.0,0.0,0.0,0.0,0.0,0.0,0.0,0.0,0.0,0.0,0.0,0.0,0.0,0.0,0.0,0.0,0.0,0.0,0.0,0.0,0.0,0.0,0.0,5.3414,5.3473,5.3084,5.3114,5.3294,5.3593,5.3623,5.3832,5.4371,5.479,5.5299,5.5927,5.6346,5.6825,5.7483,5.7782,5.8082,5.8351,5.9009,5.9493,5.9717,6.0271,6.0604,6.0681,6.0892,6.0983,6.0812,6.1108,6.1111,6.0996,6.1284,6.1226,6.0938,6.1284,6.1226,6.0848,0.0,0.0,0.0,0.0,5.8309,5.7625,0.0,0.0,5.1229,5.1229,5.1229,5.1229,5.1229,5.1229,5.1229,5.1229,5.1229,5.1229,5.1229,5.1229,5.1229,5.1229,5.1229,5.1229,5.1229,5.1229,5.1229,5.1229,5.1229,5.1229,5.1229,5.1229,5.1229,5.1229,5.1229,5.1229,5.1229,5.1229,5.1229,5.1229,5.1229,5.1229,5.1229,5.1229,5.1229,5.1229,5.1229,5.1229,5.1229,5.1229,5.1229,5.1229,5.1229,5.1229,5.1229,5.1229,0.0,0.0,0.0,0.0,0.0,0.0,0.0,0.0,0.0,0.0,0.0,0.0,0.0,0.0,0.0,0.0,0.0,0.0,0.0,0.0,0.0,0.0,0.0,0.0,5.3922,5.4311,5.4311,5.3862,5.3743,5.4371,5.4431,5.491,5.6166,5.6286,5.6555,5.7274,5.7334,5.7663,5.8411,5.9009,0.0,0.0,0.0,6.1055,6.08,6.1115,6.0975,6.0461,6.1312,6.1608,6.1349,6.2231,6.2498,6.2175,6.2847,6.2905,6.2556,6.2905,6.2847,6.2496,6.1161,6.0687,6.0714,6.0966,6.0823,6.0568,0.0,5.1229,5.1229,5.1229,5.1229,5.1229,5.1229,5.1229,5.1229,5.1229,5.1229,5.1229,5.1229,5.1229,5.1229,5.1229,5.1229,5.1229,5.1229,5.1229,5.1229,5.1229,5.1229,5.1229,5.1229,5.1229,5.1229,5.1229,5.1229,5.1229,5.1229,5.1229,5.1229,5.1229,5.1229,5.1229,5.1229,5.1229,5.1229,5.1229,5.1229,5.1229,5.1229,5.1229,5.1229,5.1229,5.1229,5.1229,5.1229,5.1229,5.1229,5.1229,5.1229,5.1229,0.0,0.0,0.0,0.0,0.0,0.0,0.0,0.0,0.0,0.0,0.0,0.0,0.0,0.0,0.0,0.0,0.0,0.0,0.0,5.473,5.491,5.4999,5.4999,5.5359,5.5709,5.5777,5.5777,5.6077,5.6825,5.6915,5.7423,5.862,5.871,5.9249,6.0475,6.0655,6.0775,6.0894,6.1553,6.1912,6.1768,6.2134,6.2402,6.2517,6.2463,0.0,6.2696,6.2903,6.2847,6.2556,6.2905,6.2789,6.2234,6.2556,6.2673,6.2467,6.1493,6.1254,6.1337,6.0889,6.0511,6.0371,0.0,5.1229,5.1229,5.1229,5.1229,5.1229,5.1229,5.1229,5.1229,5.1229,5.1229,5.1229,5.1229,5.1229,5.1229,5.1229,5.1229,5.1229,5.1229,5.1229,5.1229,5.1229,5.1229,5.1229,5.1229,5.1229,5.1229,5.1229,5.1229,5.1229,5.1229,5.1229,5.1229,5.1229,5.1229,5.1229,5.1229,5.1229,5.1229,5.1229,5.1229,5.1229,5.1229,5.1229,5.1229,5.1229,5.1229,5.1229,5.1229,5.1229,5.1229,5.1229,5.1229,5.1105,5.1011,0.0,0.0,0.0,0.0,0.0,0.0,0.0,0.0,0.0,0.0,0.0,0.0,0.0,0.0,5.3892,5.4581,0.0,5.482,5.5149,5.5179,5.5299,5.5628,5.5957,5.6218,5.6218,5.6436,5.6885,5.7543,5.7902,5.853,5.9518,5.9907,6.0535,6.1553,6.1613,6.1762,6.2091,6.2249,6.237,6.237,6.2524,6.2615,6.2585,6.2615,6.2615,6.2585,6.2789,6.2673,6.2351,6.2905,6.2847,6.2351,6.2556,6.2673,6.2817,6.2112,6.211,6.2281,6.1953,6.1662,6.1462,0.0,5.1229,5.1229,5.1229,5.1229,5.1229,5.1229,5.1229,5.1229,5.1229,5.1229,5.1229,5.1229,5.1229,5.1229,5.1229,5.1229,5.1229,5.1229,5.1229,5.1229,5.1229,5.1229,5.1229,5.1229,5.1229,5.1229,5.1229,5.1229,5.1229,5.1229,5.1229,5.1229,5.1229,5.1229,5.1229,5.1229,5.1229,5.1229,5.1229,5.1229,5.1229,5.1229,5.1229,5.1229,5.1229,5.1229,5.1229,5.1182,5.1105,5.1182,5.1182,5.0822,5.0822,5.0822,5.0555,5.0537,0.0,0.0,0.0,0.0,0.0,0.0,0.0,0.0,5.3188,5.3563,5.4251,5.4401,5.4551,5.5089,5.5179,5.5179,5.5179,5.5299,5.5568,5.6107,5.6376,5.6585,5.6735,5.7184,5.7752,5.8441,5.9099,5.9757,6.0416,6.0984,6.1583,6.2241,6.2301,6.254,6.3049,6.2847,6.2673,6.2673,6.2615,6.2498,6.2292,6.2498,6.2498,6.2292,6.2556,6.2556,6.2351,6.2905,6.2963,6.2673,6.2673,6.2847,6.3079,6.2789,6.2847,6.3079,6.3079,6.2905,6.2673,0.0,5.1229,5.1229,5.1229,5.1229,5.1229,5.1229,5.1229,5.1229,5.1229,5.1229,5.1229,5.1229,5.1229,5.1229,5.1229,5.1229,5.1229,5.1229,5.1229,5.1229,5.1229,5.1229,5.1229,5.1229,5.1229,5.1229,5.1229,5.1229,5.1229,5.1229,5.1229,5.1229,5.1229,5.1229,5.1229,5.1229,5.1229,5.1229,5.1229,5.1229,5.1229,5.1229,5.1229,5.1229,5.1229,5.1229,5.1229,5.1182,5.0917,5.1011,5.0964,4.9513,4.9999,5.0917,4.9727,5.0047,5.0822,5.1058,5.1601,5.1832,5.0984,5.1912,5.3185,0.0,5.3873,5.4281,5.494,5.5089,5.5089,5.5179,5.5179,5.5179,5.5179,5.5688,5.6077,5.6218,5.7184,5.8112,5.871,5.883,5.9129,5.9787,6.0475,6.1164,6.1822,6.1942,6.2271,6.2929,6.2959,6.2989,6.3079,6.3079,6.3021,6.3021,6.2731,6.2731,6.2963,6.2731,6.2731,6.3021,6.3021,6.3021,6.3021,6.3079,6.3079,6.3021,6.3021,6.3079,6.3079,6.3079,6.3079,6.3079,6.3079,6.3079,6.3021,0.0,5.1229,5.1229,5.1229,5.1229,5.1229,5.1229,5.1229,5.1229,5.1229,5.1229,5.1229,5.1229,5.1229,5.1229,5.1229,5.1229,5.1229,5.1229,5.1229,5.1229,5.1229,5.1229,5.1229,5.1229,5.1229,5.1229,5.1229,5.1229,5.1229,5.1229,5.1229,5.1229,5.1229,5.1229,5.1229,5.1229,5.1229,5.1229,5.1229,5.1229,5.1229,5.1229,5.1229,5.1229,5.1182,5.1011,5.068,0.0,5.0537,4.9931,4.919,4.964,4.9219,4.8717,4.9513,4.912,4.8581,4.9202,4.9896,5.0497,5.0815,5.1586,5.2559,5.3794,5.4357,5.4649,5.5119,5.5179,5.5179,5.5179,5.5508,5.5777,5.5777,5.6286,5.6855,5.7244,5.8112,5.8949,5.9608,6.0356,6.0805,6.0685,6.1283,6.1792,6.2061,6.245,6.278,6.3079,6.3079,6.3079,6.3079,6.2905,6.2905,6.3079,6.2789,6.2789,6.3079,6.2963,6.2963,6.3079,6.3079,6.3079,6.3079,6.3079,6.3079,6.3079,6.3079,6.3079,6.3079,6.3079,6.3079,6.3079,6.3079,6.3079,6.3079,0.0,5.1229,5.1229,5.1229,5.1229,5.1229,5.1229,5.1229,5.1229,5.1229,5.1229,5.1229,5.1229,5.1229,5.1229,5.1229,5.1229,5.1229,5.1229,5.1229,5.1229,5.1229,5.1229,5.1229,5.1229,5.1229,5.1229,5.1229,5.1229,5.1229,5.1229,5.1229,5.1229,5.1229,5.1229,5.1229,5.1229,5.1229,5.1229,5.1229,5.1229,5.1229,5.1229,5.1229,5.1229,5.1182,5.0964,5.0508,4.9931,5.0009,4.9071,4.8016,4.8724,4.7943,4.7047,4.8296,4.7953,4.7227,4.7755,4.8622,4.9546,5.0563,5.1321,5.2287,5.3824,5.4517,5.4854,5.5057,5.5278,5.5478,5.5478,5.5987,5.6436,5.6436,5.6974,5.7603,5.8291,5.8949,5.9697,6.0535,6.1493,6.1972,6.1672,6.2091,6.2361,6.2361,6.281,6.3079,6.3079,6.3079,6.3079,6.3079,6.2847,6.2847,6.3079,6.2847,6.2847,6.3079,6.3079,6.3079,6.3079,6.3079,6.3079,6.3079,6.3079,6.3079,6.3079,6.3079,6.3079,6.3079,6.3079,6.3079,6.3079,6.3079,6.3079,6.3079,0.0,0.0,5.1229,5.1229,5.1229,5.1229,5.1229,5.1229,5.1229,5.1229,5.1229,5.1229,5.1229,5.1229,5.1229,5.1229,5.1229,5.1229,5.1229,5.1229,5.1229,5.1229,5.1229,5.1229,5.1229,5.1229,5.1229,5.1229,5.1229,5.1229,5.1229,5.1229,5.1229,5.1229,5.1229,5.1229,5.1229,5.1229,5.1229,5.1229,5.1229,5.1229,5.1229,5.1229,5.1229,5.1229,5.1182,5.1011,5.0555,4.9288,4.8795,4.8346,4.5714,4.5899,4.6837,4.5555,4.6435,4.7831,4.7681,4.8619,4.9721,4.988,5.1181,5.2722,5.3681,5.4363,5.4803,5.4803,5.5564,5.6188,5.6188,5.6645,5.7064,5.7064,5.7633,5.8321,5.8979,5.9638,6.0535,6.1882,6.2061,6.2331,6.2959,6.3049,6.3049,6.3049,6.3079,6.3079,6.3079,6.3079,6.3079,6.3079,6.3079,6.3079,6.3079,6.3079,6.3079,6.3079,6.3079,6.3079,6.3079,6.3079,6.3079,6.3079,6.3079,6.3079,6.3079,6.3079,6.3079,6.3079,6.3079,6.3079,6.3079,6.3079,6.3079,6.3079,0.0,0.0,0.0,0.0,0.0,5.1229,5.1229,5.1229,5.1229,5.1229,5.1229,0.0,0.0,0.0,0.0,0.0,5.1229,5.1229,5.1229,5.1229,5.1229,5.1229,5.1229,5.1229,5.1229,5.1229,5.1229,5.1229,5.1229,5.1229,5.1229,5.1229,5.1229,5.1229,5.1229,5.1229,5.1229,5.1229,5.1229,5.1229,5.1229,5.1229,5.1229,5.1229,5.1229,5.1229,0.0,5.065,4.9805,4.8674,4.7536,4.6528,4.5926,4.5128,4.4396,4.448,4.6035,4.7522,4.672,4.7082,4.7916,4.8563,4.9164,5.0155,5.2244,5.2861,5.34,5.4841,5.5523,5.6028,5.6422,5.7206,5.7782,5.7782,5.871,5.9488,5.9727,6.0715,6.1583,6.2032,6.248,0.0,6.3049,6.3079,6.3079,6.3079,6.3079,6.3079,6.3079,6.3079,6.3079,6.3079,6.3079,6.3079,6.3079,6.3498,6.3677,6.3707,6.4156,6.4366,6.4366,6.4366,6.4366,6.4366,6.4366,6.4126,6.3677,6.3677,6.3438,6.3079,6.3079,6.3079,6.3079,6.3079,6.3079,6.3079,0.0,0.0,0.0,0.0,0.0,0.0,0.0,0.0,0.0,0.0,0.0,0.0,0.0,0.0,0.0,0.0,0.0,5.1229,5.1229,5.1229,5.1229,5.1229,5.1229,5.1229,5.1229,5.1229,5.1229,5.1229,5.1229,5.1229,5.1229,5.1229,5.1229,5.1229,5.1229,5.1229,5.1229,5.1229,5.1229,5.1229,5.1229,5.1229,5.1229,5.1229,5.1229,0.0,5.1058,5.0364,4.9239,4.8094,4.6632,4.5342,4.5182,4.4281,4.347,4.4592,4.5822,4.6759,4.6348,4.6382,4.684,4.7886,4.8094,4.8647,5.0851,5.1926,5.2724,5.364,5.5099,5.6291,5.6354,5.7433,5.8453,5.88,5.9548,6.0266,6.0745,6.1553,6.2181,6.2421,6.281,6.3079,0.0,6.3079,6.3079,6.3079,6.3079,6.3079,6.3079,6.3079,6.3079,6.3079,6.3288,6.3408,6.3408,6.4036,6.4366,6.4366,6.4814,6.5024,6.5024,6.5024,6.5024,6.5024,6.5024,6.4784,6.4366,6.4366,6.3977,6.3408,6.3408,6.3258,6.3079,6.3079,6.3079,6.3079,0.0,0.0,0.0,0.0,0.0,0.0,0.0,0.0,0.0,0.0,0.0,0.0,0.0,0.0,0.0,0.0,0.0,0.0,5.1229,5.1229,5.1229,5.1229,5.1229,5.1229,5.1229,5.1229,5.1229,5.1229,5.1229,5.1229,5.1229,5.1229,5.1229,5.1229,5.1229,5.1229,5.1229,5.1229,5.1229,5.1229,5.1229,5.1229,5.1229,5.1229,5.1229,5.1182,5.0917,5.0143,4.9014,4.7554,4.6135,4.4778,4.3432,4.3388,4.4123,4.5497,4.5733,4.5707,4.6534,4.6566,4.6601,4.771,4.8035,4.8326,4.9559,5.1405,5.2602,5.1508,5.4398,5.6841,5.6068,5.7452,5.9011,5.9912,6.0116,6.0595,6.1912,6.2121,6.2391,6.2989,6.3079,6.3079,6.3079,6.3079,6.3079,6.3079,6.3079,6.3079,6.3079,6.3079,6.3079,6.3139,6.3677,6.4006,6.4066,6.4725,6.5084,6.5114,6.5114,6.5114,6.5114,6.5114,6.5114,6.5114,6.5114,6.5054,6.5084,6.5084,6.4665,6.4036,6.4006,6.3647,6.3109,6.3079,6.3079,6.3079,0.0,0.0,0.0,0.0,0.0,0.0,0.0,0.0,0.0,0.0,0.0,0.0,0.0,0.0,0.0,0.0,0.0,0.0,5.1229,5.1229,5.1229,5.1229,5.1229,5.1229,5.1229,5.1229,5.1229,5.1229,5.1229,5.1229,5.1229,5.1229,5.1229,5.1229,5.1229,5.1229,5.1229,5.1229,5.1229,5.1229,5.1229,5.1229,5.1229,5.1229,5.1229,5.1182,5.1105,5.0268,4.8944,4.7327,4.5342,4.3538,4.3576,4.3966,4.4543,4.5389,4.5833,4.6125,4.6396,4.6386,4.6361,4.6695,4.6755,4.7215,4.8819,4.959,5.0725,5.3356,5.494,5.6126,5.74,5.8381,5.9145,5.9721,6.0424,6.1134,6.1972,6.251,6.2899,6.3049,6.3079,6.3079,6.3079,6.3079,6.3079,6.3079,6.3079,6.3079,6.3079,6.3079,6.3288,6.3737,6.3917,6.4246,6.4755,6.5413,6.6011,6.649,6.649,6.649,6.649,6.649,6.649,6.649,6.649,6.6221,6.5772,6.5772,6.5353,6.4725,6.4216,6.3917,6.3707,6.3258,6.3079,6.3079,0.0,0.0,0.0,0.0,0.0,0.0,0.0,0.0,0.0,0.0,0.0,0.0,0.0,0.0,0.0,0.0,0.0,0.0,0.0,5.1229,5.1229,5.1229,5.1229,5.1229,5.1229,5.1229,5.1229,5.1229,5.1229,5.1229,5.1229,5.1229,5.1229,5.1229,5.1229,5.1229,5.1229,5.1229,5.1229,0.0,0.0,5.1229,5.1229,5.1229,5.1229,5.1229,5.1229,4.995,4.8066,4.6449,4.48,4.3438,4.3991,4.4543,4.5121,4.5673,4.6075,4.6301,4.6301,4.6301,4.6301,4.6301,4.6502,4.6935,4.7914,4.8954,5.0352,5.2752,5.451,5.5993,5.7299,5.8305,5.921,6.0164,6.0753,0.0,6.2391,6.2839,6.3079,0.0,6.3079,0.0,6.3079,6.3079,6.3079,6.3079,6.3079,6.3199,6.3468,6.3468,6.3767,6.4425,6.4725,6.5203,6.5892,6.6251,6.664,6.6999,6.6999,6.6999,6.6999,6.6999,6.6999,6.6999,6.6999,6.6789,6.643,6.643,6.6041,6.5413,6.5024,6.4515,6.3947,6.3617,6.3318,6.3079,0.0,0.0,0.0,0.0,0.0,0.0,0.0,0.0,0.0,0.0,5.1229,5.1229,0.0,0.0,0.0,0.0,0.0,0.0,0.0,0.0,5.1229,5.1229,5.1229,5.1229,5.1229,5.1229,5.1229,5.1229,5.1229,5.1229,5.1229,5.1229,5.1229,5.1229,5.1229,5.1229,5.1229,5.1229,5.1229,5.1229,5.1229,5.1229,5.1229,0.0,5.1229,5.1229,5.1182,4.9533,4.7122,4.5821,4.4675,4.389,4.4443,4.502,4.5598,4.615,4.6301,4.6301,4.6301,4.6301,4.6326,4.6401,4.6778,4.7179,4.7551,4.9209,5.0953,5.1683,5.4027,5.6165,5.6908,5.8062,5.9423,6.0902,0.0,6.1672,6.2899,6.3079,6.3079,6.3079,6.3079,6.3079,6.3079,6.3079,6.3079,6.3079,6.3139,6.3438,6.3977,6.4096,6.4455,6.5144,6.5802,6.64,6.6999,6.6999,6.6999,6.6999,6.6999,6.6999,6.6999,6.6999,6.6999,6.6999,6.6999,6.6999,6.6999,6.6999,6.667,6.6131,6.6041,6.5233,6.4126,6.4036,6.3617,6.3079,0.0,0.0,0.0,0.0,0.0,0.0,0.0,0.0,0.0,0.0,5.1229,5.1229,0.0,0.0,0.0,0.0,0.0,0.0,0.0,0.0,0.0,5.1229,5.1229,5.1229,5.1229,5.1229,5.1229,5.1229,5.1229,5.1229,5.1229,5.1229,5.1229,5.1229,5.1229,5.1229,5.1229,5.1229,5.1229,5.1229,5.1229,5.1229,5.1229,5.1229,0.0,0.0,5.0964,4.9854,4.8352,4.7469,4.5647,4.389,4.4443,4.502,4.5598,4.615,4.6301,4.6301,4.6301,4.6301,4.6426,4.6878,4.7054,4.7724,5.0002,5.0612,0.0,5.4783,5.5878,5.6766,5.8481,5.9325,6.0245,6.1332,6.1741,6.2181,6.2959,6.3079,6.3079,0.0,6.3079,6.3079,6.3079,6.3079,6.3079,6.3079,6.3558,6.3887,6.4006,6.4545,6.5144,6.5832,6.649,6.6879,6.6999,6.6999,6.6999,6.6999,6.6999,6.6999,6.6999,6.6999,6.6999,6.6999,6.6999,6.6999,6.6999,6.6999,6.6939,6.6759,6.6221,6.5533,6.4784,6.4216,6.3617,6.3079,0.0,0.0,0.0,0.0,0.0,0.0,0.0,5.1229,5.1229,5.1229,5.1229,5.1229,5.1229,5.1229,5.1229,0.0,0.0,0.0,0.0,0.0,0.0,5.1229,5.1229,5.1229,5.1229,5.1229,5.1229,5.1229,0.0,5.1229,5.1229,5.1229,5.1229,5.1229,5.1229,5.1229,5.1229,5.1229,5.1229,5.1229,5.1229,5.1229,5.1229,5.1229,0.0,0.0,5.1058,5.0378,4.9338,4.8132,4.6918,4.5737,4.5203,4.5472,4.5974,4.6225,4.6301,4.6301,4.6301,4.6301,4.6451,4.7004,4.733,4.7918,4.96,0.0,0.0,5.4744,5.6133,5.7398,5.9333,6.019,6.0869,6.1741,6.1978,6.2331,6.2989,6.3079,6.3079,6.3079,6.3079,6.3079,6.3079,6.3079,6.3199,6.3528,6.4156,6.4545,6.4545,6.5503,6.6191,6.652,6.6819,6.6999,6.6999,6.6999,6.6999,6.6999,6.6999,6.6999,6.6999,6.6999,6.6999,6.6999,6.6999,6.6999,6.6999,6.6999,6.6999,6.6969,6.664,6.6131,6.5473,6.4784,6.4126,6.3498,0.0,0.0,0.0,0.0,0.0,0.0,5.1229,5.1229,5.1229,5.1229,5.1229,5.1229,5.1229,5.1229,5.1229,0.0,0.0,0.0,0.0,0.0,0.0,0.0,0.0,0.0,5.1229,0.0,0.0,5.1229,5.1229,0.0,0.0,0.0,0.0,0.0,5.1229,5.1229,5.1229,5.1229,5.1229,0.0,0.0,5.1229,0.0,0.0,0.0,0.0,0.0,5.0873,5.0219,4.8642,4.8029,4.7713,4.6188,4.5974,4.6301,4.6301,4.6301,4.6301,4.6301,4.6401,4.6627,4.7154,4.7707,4.8359,4.9292,5.0768,0.0,5.4386,5.6446,5.8289,5.9904,6.0809,6.1553,6.2211,6.2301,6.248,6.3019,6.3079,6.3079,0.0,6.3079,0.0,6.3079,6.3199,0.0,6.3947,6.4755,6.5293,6.5443,6.643,6.6999,6.6999,6.6999,6.6999,6.6999,6.6999,6.6999,6.6999,6.6999,6.6999,6.6999,6.6999,6.6999,6.6999,6.6999,6.6999,6.6999,6.6999,6.6999,6.6999,6.6999,6.658,6.5922,6.5263,6.4605,6.3917,0.0,0.0,0.0,0.0,0.0,0.0,5.1229,5.1229,5.1229,5.1229,5.1229,5.1229,5.1229,5.1229,5.1229,0.0,0.0,0.0,0.0,0.0,0.0,0.0,0.0,0.0,0.0,0.0,0.0,5.1229,5.1229,0.0,0.0,0.0,0.0,0.0,0.0,5.1229,5.1229,5.1229,0.0,0.0,0.0,0.0,0.0,0.0,0.0,0.0,0.0,5.1238,5.1032,4.933,4.8791,4.8557,4.6798,4.6276,4.6301,4.6301,4.6301,0.0,4.6301,4.6677,4.7179,4.7707,4.8259,4.9254,5.122,0.0,5.4149,5.5762,5.7938,5.9711,6.0416,6.1383,6.2211,6.2869,6.2989,6.3019,6.3079,6.3079,6.3079,6.3079,0.0,0.0,6.3079,6.3588,6.3947,6.4006,6.5203,6.6191,6.6789,6.6939,6.6999,6.6999,6.6999,6.6999,6.6999,6.6999,6.6999,6.6999,6.6999,6.6999,6.6999,6.6999,6.6999,6.6999,6.6999,6.6999,6.6999,6.6999,6.6999,6.6999,6.6999,6.658,6.5922,6.5263,6.4605,6.3917,0.0,0.0,0.0,0.0,0.0,0.0,5.1229,5.1229,5.1229,5.1229,5.1229,5.1229,5.1229,5.1229,5.1229,5.1229,0.0,0.0,0.0,0.0,0.0,0.0,0.0,0.0,0.0,0.0,5.1229,5.1229,5.1229,0.0,0.0,0.0,0.0,0.0,0.0,5.1229,5.1229,5.1229,0.0,0.0,0.0,0.0,0.0,0.0,0.0,0.0,0.0,0.0,5.229,5.0919,5.091,5.0957,4.8247,4.7475,4.7416,4.6541,4.6301,4.6376,4.6702,4.6979,4.733,4.8209,4.8611,4.9103,5.0308,0.0,5.4259,5.5451,5.8118,6.0446,6.11,6.1983,6.2722,6.2817,6.2963,6.3079,6.3079,6.3079,6.3079,6.3079,6.3079,6.3079,0.0,0.0,6.4336,6.5144,6.6071,6.67,6.6969,6.6999,6.6999,6.6999,6.6999,6.6999,6.6999,6.6999,6.6999,6.6999,6.6999,6.6999,6.6999,6.6999,6.6999,6.6999,6.6999,6.6999,6.6999,6.6999,6.6999,6.6999,6.6999,6.6819,6.646,6.5413,6.4844,6.4485,0.0,0.0,0.0,0.0,0.0,5.1229,5.1229,5.1229,5.1229,5.1229,5.1229,5.1229,5.1229,5.1229,5.1229,5.1229,5.1229,0.0,0.0,0.0,0.0,0.0,0.0,0.0,0.0,0.0,5.1229,5.1229,5.1229,5.1229,0.0,0.0,0.0,0.0,0.0,0.0,0.0,0.0,0.0,0.0,0.0,0.0,0.0,0.0,0.0,0.0,0.0,0.0,0.0,0.0,0.0,5.2295,4.9194,4.8358,4.821,4.6755,4.6301,4.6426,4.6918,4.7255,4.7581,4.8535,4.8887,4.924,0.0,0.0,5.4433,5.573,5.8552,6.0946,6.16,6.2515,6.3021,6.2789,6.2963,6.3079,6.3079,6.3079,6.3079,6.3079,0.0,6.3079,6.3079,6.3827,6.4844,6.6191,6.6729,6.6999,6.6999,6.6999,6.6999,6.6999,6.6999,6.6999,6.6999,6.6999,6.6999,6.6999,6.6999,6.6999,6.6999,6.6999,6.6999,6.6999,6.6999,6.6999,6.6999,6.6999,6.6999,6.6999,6.6999,6.6999,6.6819,6.5503,6.5024,6.4844,0.0,0.0,0.0,0.0,0.0,5.1229,5.1229,5.1229,5.1229,5.1229,5.1229,5.1229,5.1229,5.1229,5.1229,5.1229,5.1229,0.0,0.0,0.0,0.0,0.0,0.0,0.0,0.0,0.0,5.1229,5.1229,5.1229,5.1229,5.1229,5.1229,5.1229,5.1229,0.0,0.0,0.0,0.0,0.0,0.0,0.0,0.0,5.1229,0.0,0.0,0.0,0.0,0.0,0.0,0.0,0.0,0.0,0.0,4.8474,4.821,4.6755,4.6301,4.6426,4.6918,4.7506,4.8033,4.8636,4.9188,5.0014,0.0,5.3248,5.5026,5.7225,5.947,6.1313,6.1972,6.263,6.3079,6.3079,6.3079,6.3079,6.3079,6.3079,6.3079,0.0,6.3079,6.3079,6.3079,6.4246,6.5562,6.6879,6.6999,6.6999,6.6999,6.6999,6.6999,6.6999,6.6999,6.6999,6.6999,6.6999,6.6999,6.6999,6.6999,6.6999,6.6999,6.6999,6.6999,6.6999,6.6999,6.6999,6.6999,6.6999,6.6999,6.6999,6.6999,6.6999,6.6819,6.5503,6.5024,6.4844,0.0,0.0,0.0,0.0,0.0,0.0,5.1229,5.1229,5.1229,5.1229,5.1229,5.1229,5.1229,5.1229,5.1229,5.1229,5.1229,0.0,0.0,0.0,0.0,0.0,0.0,0.0,0.0,5.1229,5.1229,5.1229,5.1229,5.1229,5.1229,5.1229,5.1229,5.1229,5.1229,5.1229,0.0,0.0,0.0,0.0,0.0,5.1229,5.1259,0.0,0.0,0.0,0.0,0.0,0.0,0.0,0.0,0.0,0.0,0.0,0.0,4.83,4.7087,4.6502,4.7405,4.7782,4.8134,4.9088,5.0308,5.1079,5.0499,5.3281,5.6133,5.662,5.9045,6.1407,6.2283,6.2814,6.3021,6.2789,6.2963,6.3079,6.3079,6.3079,0.0,6.3079,6.3079,6.3438,6.4336,6.4784,6.5562,6.6879,6.6999,6.6999,6.6999,6.6999,6.6999,6.6999,6.6999,6.6999,6.6999,6.6999,6.6999,6.6999,6.6999,6.6999,6.6999,6.6999,6.6999,6.6999,6.6999,6.6999,6.6999,6.6999,6.6999,6.6999,6.6999,6.6999,6.6819,6.5503,6.5024,6.4844,0.0,0.0,0.0,0.0,0.0,0.0,5.1229,5.1229,5.1229,5.1229,5.1229,5.1229,5.1229,5.1229,5.1229,5.1229,5.1229,0.0,0.0,0.0,0.0,0.0,0.0,0.0,5.1229,5.1229,5.1229,5.1229,5.1229,5.1229,5.1229,5.1229,5.1229,5.1229,5.1229,5.1229,0.0,0.0,0.0,0.0,5.1498,5.1588,5.1648,0.0,0.0,0.0,0.0,0.0,0.0,0.0,0.0,0.0,0.0,0.0,0.0,0.0,4.8231,4.7718,4.8053,4.8395,4.8812,4.9556,5.0979,5.1927,5.0916,5.3987,5.7139,5.7375,5.9568,6.1765,6.2668,6.2963,6.3021,6.2847,6.2963,6.3079,6.3079,6.3079,6.3079,6.3079,6.3288,6.3857,6.4934,6.5263,6.5832,6.6909,6.6999,6.6999,6.6999,6.6999,6.6999,6.6999,6.6999,6.6999,6.6999,6.6999,6.6999,6.6999,6.6999,6.6999,6.6999,6.6999,6.6999,6.6999,6.6999,6.6999,0.0,6.6999,6.6999,6.6999,6.6999,6.6999,6.6819,6.5503,6.5024,6.4844,0.0,0.0,0.0,0.0,0.0,0.0,0.0,5.1229,5.1229,5.1229,5.1229,5.1229,5.1229,5.1229,5.1229,5.1229,5.1229,0.0,0.0,0.0,0.0,0.0,0.0,0.0,5.1229,5.1229,5.1229,5.1229,5.1229,5.1229,5.1229,5.1229,5.1229,5.1229,5.1229,5.1229,5.1229,5.1259,0.0,0.0,5.2007,5.2276,0.0,0.0,0.0,0.0,0.0,0.0,0.0,0.0,0.0,0.0,0.0,0.0,0.0,0.0,0.0,0.0,0.0,4.9234,5.0021,5.0333,5.1606,5.2788,5.2666,5.5392,0.0,5.9016,6.0699,6.2301,6.2959,6.3079,6.3079,6.3079,6.3079,6.3079,6.3079,6.3079,6.3079,6.3079,6.3617,6.4276,6.4964,6.5622,6.6281,6.6939,6.6999,6.6999,6.6999,6.6999,6.6999,6.6999,6.6999,6.6999,6.6999,6.6999,6.6999,6.6999,6.6999,6.6999,6.6999,6.6999,6.6999,6.6999,6.6999,6.6999,6.6999,6.6999,6.6999,6.6999,6.6999,6.6999,6.6819,6.5503,6.5024,6.4844,0.0,0.0,0.0,0.0,0.0,0.0,0.0,0.0,0.0,0.0,5.1229,5.1229,5.1229,5.1229,5.1229,0.0,0.0,0.0,0.0,0.0,0.0,0.0,0.0,0.0,5.1229,5.1229,5.1229,5.1229,5.1229,5.1229,5.1229,5.1229,5.1229,5.1229,5.1229,5.1229,5.1259,5.1768,0.0,0.0,5.2695,5.2935,0.0,0.0,0.0,0.0,5.479,5.5059,0.0,0.0,0.0,0.0,0.0,0.0,0.0,0.0,5.2399,5.2883,5.0559,0.0,5.1607,5.3018,5.4564,5.5385,0.0,5.6881,5.9428,5.89,6.0555,6.2301,6.2959,6.3079,6.3079,6.3079,6.3079,6.3079,6.3079,6.3079,6.3079,6.3079,6.3617,6.4276,6.4964,6.5622,6.6281,6.6939,6.6999,6.6999,6.6999,6.6999,6.6999,6.6999,6.6999,6.6999,6.6999,6.6999,6.6999,6.6999,6.6999,6.6999,6.6999,6.6999,6.6999,6.6999,6.6999,6.6999,6.6999,6.6999,6.6999,6.6999,6.6999,6.6999,6.6819,6.5503,6.5024,6.4844,0.0,0.0,0.0,0.0,0.0,0.0,0.0,0.0,0.0,0.0,5.1229,5.1229,5.1229,5.1229,5.1229,0.0,0.0,0.0,0.0,0.0,0.0,0.0,5.1229,5.1229,5.1229,5.1229,5.1229,5.1229,5.1229,5.1229,5.1229,5.1229,5.1229,5.1229,5.1528,5.1678,5.1708,5.2366,5.2665,5.2725,5.3384,0.0,0.0,0.0,0.0,0.0,5.5059,5.5179,0.0,5.5179,5.5179,5.5239,0.0,0.0,0.0,0.0,5.4487,5.5027,5.3598,5.3353,5.3494,5.3703,5.5327,5.6565,5.4976,5.7714,6.0235,5.9161,6.0878,6.266,6.3019,6.3079,6.3079,6.3079,6.3079,6.3079,6.3079,6.3079,6.3079,6.3079,6.3887,6.4605,6.4934,6.5892,6.661,6.6969,6.6999,6.6999,6.6999,6.6999,6.6999,6.6999,6.6999,6.6999,6.6999,6.6999,6.6999,6.6999,6.6999,6.6999,6.6999,6.6999,6.6999,6.6999,6.6999,6.6999,6.6999,6.6999,6.6999,6.6999,6.6999,6.6819,6.643,6.5413,6.4814,6.4425,0.0,0.0,0.0,0.0,0.0,0.0,0.0,0.0,0.0,0.0,0.0,0.0,0.0,0.0,0.0,0.0,0.0,0.0,0.0,0.0,0.0,5.1229,5.1229,5.1229,5.1229,5.1229,5.1229,5.1229,5.1229,5.1229,5.1229,5.1229,5.1259,5.1409,5.2067,5.2336,5.2396,5.3054,5.3324,5.3384,5.4072,0.0,0.0,0.0,0.0,0.0,0.0,0.0,0.0,5.5179,5.5269,5.5448,5.5987,0.0,0.0,0.0,0.0,0.0,5.6535,5.6108,5.5383,5.4204,5.5588,5.6905,5.582,5.8404,6.0794,5.9711,6.1404,6.3079,6.3079,6.3079,6.3079,6.3079,6.3079,6.3079,6.3079,6.3079,6.3079,6.3079,6.4246,6.5024,6.5024,6.6221,6.6999,6.6999,6.6999,6.6999,6.6999,6.6999,6.6999,6.6999,6.6999,6.6999,6.6999,6.6999,6.6999,6.6999,6.6999,6.6999,6.6999,6.6999,6.6999,6.6999,6.6999,6.6999,6.6999,6.6999,6.6999,6.6999,6.6999,6.658,6.5922,6.5263,6.4605,6.3917,0.0,0.0,0.0,0.0,0.0,0.0,0.0,0.0,0.0,0.0,0.0,0.0,0.0,0.0,0.0,0.0,0.0,0.0,0.0,0.0,0.0,5.1229,5.1229,5.1229,5.1229,5.1229,5.1229,5.1229,5.1229,5.1229,5.1229,5.1229,5.1498,5.2067,5.2725,5.3025,5.3084,5.3773,5.4042,5.4102,5.479,0.0,0.0,0.0,0.0,0.0,0.0,0.0,0.0,5.5179,5.5568,5.6047,5.6188,0.0,0.0,0.0,0.0,0.0,5.6165,5.6251,5.7104,5.8,5.7693,5.744,5.8276,5.984,6.1048,6.088,6.2037,6.3079,6.3079,6.3079,6.3079,6.3079,6.3079,6.3079,6.3079,6.3079,6.3079,6.3079,6.4246,6.5024,6.5024,6.6221,6.6999,6.6999,6.6999,6.6999,6.6999,6.6999,6.6999,6.6999,6.6999,6.6999,6.6999,6.6999,6.6999,6.6999,6.6999,6.6999,6.6999,6.6999,6.6999,6.6999,6.6999,6.6999,6.6999,6.6999,6.6999,6.6999,6.6999,6.658,6.5922,6.5263,6.4605,6.3917,0.0,0.0,0.0,0.0,0.0,0.0,0.0,0.0,0.0,0.0,0.0,0.0,0.0,0.0,0.0,0.0,0.0,0.0,0.0,5.1229,5.1229,5.1229,5.1229,5.1229,5.1229,5.1229,5.1229,5.1229,5.1229,5.1409,5.1768,5.2127,5.2456,5.2755,5.3443,5.3743,5.3773,5.4461,5.473,5.476,0.0,0.0,0.0,0.0,0.0,0.0,0.0,0.0,0.0,0.0,5.5927,5.6286,5.7004,0.0,0.0,0.0,0.0,0.0,5.7722,5.7272,5.7328,5.7915,5.7608,5.7416,5.8385,5.9885,6.0969,6.064,6.1902,6.3079,6.3079,6.3079,6.3079,6.3079,6.3079,6.3079,6.3079,6.3079,6.3079,6.3079,6.4246,6.5024,6.5024,6.6221,6.6999,6.6999,6.6999,6.6999,6.6999,6.6999,6.6999,6.6999,6.6999,6.6999,6.6999,6.6999,6.6999,6.6999,6.6999,6.6999,6.6999,6.6999,6.6999,6.6999,6.6999,6.6999,6.6999,6.6999,6.6999,6.6939,6.661,6.6071,6.5353,6.4336,6.3767,6.3468,0.0,0.0,0.0,0.0,0.0,0.0,0.0,0.0,0.0,0.0,0.0,0.0,0.0,0.0,0.0,0.0,0.0,0.0,0.0,5.1678,5.1678,5.1678,5.1678,5.1618,5.1439,5.1439,5.1528,5.1678,5.1678,5.1947,5.2456,5.3114,5.3414,5.3443,5.4132,5.4431,5.4461,5.497,5.5179,5.5179,0.0,0.0,0.0,0.0,0.0,0.0,0.0,0.0,0.0,0.0,0.0,0.0,0.0,0.0,0.0,5.8949,5.9099,5.9099,5.9099,5.8166,5.7272,5.7552,5.7216,5.6908,5.7513,5.9242,6.0546,6.0209,6.1673,6.3079,6.3079,6.3079,6.3079,6.3079,6.3079,6.3079,6.3079,6.3079,6.3079,6.3079,6.4246,6.5024,6.5024,6.6221,6.6999,6.6999,6.6999,6.6999,6.6999,6.6999,6.6999,6.6999,6.6999,6.6999,6.6999,6.6999,6.6999,6.6999,6.6999,6.6999,6.6999,6.6999,6.6999,6.6999,6.6999,6.6999,6.6999,6.6999,6.6999,6.6939,6.6251,6.5503,6.4635,6.3498,6.3079,6.3079,0.0,0.0,0.0,0.0,0.0,0.0,0.0,0.0,0.0,0.0,0.0,0.0,0.0,0.0,0.0,0.0,0.0,0.0,0.0,5.3025,5.3025,5.3025,5.3025,5.2755,5.2127,5.2127,5.2426,5.3025,5.3025,5.3054,5.3114,5.3803,5.4132,5.4162,5.482,5.5119,5.5119,5.5179,5.5179,5.5179,5.5179,0.0,0.0,0.0,0.0,0.0,0.0,0.0,0.0,0.0,0.0,0.0,0.0,0.0,5.9039,5.9099,5.9099,5.9099,5.9099,5.8166,5.7496,5.8689,5.7245,5.5669,5.6201,5.7884,5.951,5.9974,6.1673,6.3079,6.3079,6.3079,6.3079,6.3079,6.3079,6.3079,6.3079,6.3079,6.3079,6.3079,6.4246,6.5024,6.5024,6.6221,6.6999,6.6999,6.6999,6.6999,6.6999,6.6999,6.6999,6.6999,6.6999,6.6999,6.6999,6.6999,6.6999,6.6999,6.6999,6.6999,6.6999,6.6999,6.6999,6.6999,6.6999,6.6999,6.6999,6.6999,6.6999,6.6939,6.6251,6.5203,6.3977,6.3318,6.3079,6.3079,0.0,0.0,0.0,0.0,0.0,0.0,0.0,0.0,0.0,0.0,0.0,0.0,0.0,0.0,0.0,0.0,0.0,0.0,5.3174,5.3174,5.3174,5.3174,5.3174,5.3264,5.3443,5.3025,5.2935,5.3174,5.3623,5.3832,5.3832,5.4491,5.482,5.482,5.5089,5.5179,5.5179,5.5179,5.5179,5.5179,5.5179,5.5448,0.0,0.0,0.0,0.0,0.0,0.0,0.0,0.0,5.7902,5.8201,5.859,5.8919,5.9099,5.9099,5.9099,5.9099,5.9099,5.8743,5.8419,5.85,5.7826,5.7283,5.7855,5.8898,5.9739,5.9505,6.0091,6.0868,6.1703,6.2526,6.3079,6.3079,6.3079,6.3079,6.3079,6.3079,6.3079,6.3079,6.4246,6.5024,6.5024,6.6221,6.6999,6.6999,6.6999,6.6999,6.6999,6.6999,6.6999,6.6999,6.6999,6.6999,6.6999,6.6999,6.6999,6.6999,6.6999,6.6999,6.6999,6.6999,6.6999,6.6999,6.6999,6.6999,6.6999,6.6999,6.6759,6.6281,6.5173,6.4216,6.3408,6.3169,6.3079,6.3079,0.0,0.0,0.0,0.0,0.0,0.0,0.0,0.0,0.0,0.0,0.0,0.0,0.0,0.0,0.0,0.0,0.0,0.0,5.3803,5.3803,5.3803,5.3803,5.3803,5.4042,5.4521,5.4072,5.3803,5.3803,5.4281,5.4521,5.4521,5.497,5.5179,5.5179,5.5179,5.5179,5.5209,5.5418,5.5508,5.5508,5.5718,5.6047,0.0,0.0,0.0,0.0,0.0,0.0,0.0,0.0,5.8441,5.853,5.8949,5.9099,5.9099,5.9099,5.9099,5.9099,5.9099,5.9099,5.9031,5.885,5.8947,5.927,5.9915,6.0093,6.0027,5.9815,6.0079,6.0627,6.1584,6.2468,6.3079,6.3079,6.3079,6.3079,6.3079,6.3079,6.3079,6.3079,6.4246,6.5024,6.5024,6.6221,6.6999,6.6999,6.6999,6.6999,6.6999,6.6999,6.6999,6.6999,6.6999,6.6999,6.6999,6.6999,6.6999,6.6999,6.6999,6.6999,6.6999,6.6999,6.6999,6.6999,6.6999,6.6999,6.6969,6.6759,6.6161,6.5293,6.4366,6.3617,6.3079,6.3079,6.3079,6.3079,0.0,0.0,0.0,0.0,0.0,0.0,0.0,0.0,5.5179,5.5179,5.5179,0.0,0.0,0.0,0.0,0.0,0.0,0.0,5.5179,5.5179,5.5179,5.5179,5.5179,5.5179,5.5179,5.5179,5.5179,5.5179,5.5179,5.5179,5.5179,5.5179,5.5179,5.5179,5.5209,5.5209,5.5239,5.5897,5.6248,5.6278,5.6855,5.7094,5.7094,0.0,0.0,0.0,0.0,0.0,0.0,0.0,5.9099,5.9099,5.9099,5.9099,5.9099,5.9099,5.9099,5.9099,5.9129,5.9129,5.9279,5.9937,6.0625,6.1313,6.1972,6.1114,6.0352,6.0961,6.2145,6.3079,6.3079,6.3079,6.3079,6.3079,6.3079,6.3079,6.3079,6.3079,6.3079,6.3079,6.4246,6.5024,6.5024,6.6221,6.6999,6.6999,6.6999,6.6999,6.6999,6.6999,6.6999,6.6999,6.6999,6.6999,6.6999,6.6999,6.6999,6.6999,6.6999,6.6999,6.6999,6.6999,6.6999,6.6999,6.6999,6.6999,6.6939,6.6281,6.5203,6.4006,6.3977,6.3617,6.3079,6.3079,6.3079,6.3079,0.0,0.0,0.0,0.0,0.0,0.0,0.0,0.0,5.5179,5.5179,5.5179,0.0,0.0,0.0,0.0,0.0,0.0,0.0,5.5179,5.5179,5.5179,5.5179,5.5179,5.5179,5.5179,5.5179,5.5179,5.5179,5.5179,5.5179,5.5179,5.5179,5.5179,5.5209,5.5658,5.5867,5.5927,5.6555,5.6825,5.6825,5.7034,5.7393,5.7812,0.0,0.0,0.0,0.0,0.0,0.0,0.0,0.0,0.0,5.9099,5.9099,5.9099,5.9099,5.9099,5.9189,5.9668,5.9787,6.0057,6.1224,6.1642,6.1972,6.263,6.1792,6.0605,5.9839,6.0776,6.1703,6.1703,6.2468,6.3079,6.3079,6.3079,6.3079,6.3079,6.3079,6.3079,6.3079,6.4246,6.5024,6.5024,6.6221,6.6999,6.6999,6.6999,6.6999,6.6999,6.6999,6.6999,6.6999,6.6999,6.6999,6.6999,6.6999,6.6999,6.6999,6.6999,6.6999,6.6999,6.6999,6.6999,6.6999,6.6999,6.6999,6.6909,6.5772,6.4784,6.3947,6.3528,6.3228,6.3079,6.3079,6.3079,6.3079,0.0,0.0,0.0,0.0,0.0,0.0,0.0,0.0,5.5179,5.5179,5.5179,5.5179,0.0,0.0,0.0,5.5179,5.5179,0.0,5.5179,5.5179,5.5179,5.5179,5.5179,5.5179,5.5179,5.5179,5.5179,5.5179,5.5179,5.5179,5.5209,5.5448,5.5598,5.5598,5.6256,5.6526,5.6585,5.7244,5.7513,5.7513,5.7782,5.8141,5.853,0.0,0.0,0.0,0.0,0.0,0.0,0.0,0.0,0.0,5.9099,5.9099,5.9159,5.9428,5.9488,5.9638,6.0326,6.0505,6.0745,6.1822,6.2091,6.2271,6.2929,6.2468,6.1643,6.0868,6.1316,6.191,6.191,6.2585,6.3079,6.3079,6.3079,6.3079,6.3079,6.3079,6.3079,6.3079,6.3977,6.4725,6.4934,6.5981,6.67,6.6969,6.6999,6.6999,6.6999,6.6999,6.6999,6.6999,6.6999,6.6999,6.6999,6.6999,6.6999,6.6999,6.6999,6.6999,6.6999,6.6999,6.6999,6.6969,6.67,6.646,6.6131,6.5054,6.4216,6.3588,6.3228,6.3079,6.3079,6.3079,6.3079,6.3079,0.0,0.0,5.5179,5.5179,0.0,0.0,0.0,0.0,5.5179,5.5179,5.5179,5.5179,0.0,0.0,0.0,5.5179,5.5179,5.5179,5.5179,5.5179,5.5179,5.5179,5.5179,5.5209,5.5269,5.5269,5.5299,5.5359,5.5299,5.5269,5.5299,5.5957,5.6308,5.6286,5.6915,5.7184,5.7244,5.7932,5.8201,5.8261,5.886,5.9099,5.9099,5.9099,0.0,0.0,0.0,0.0,0.0,0.0,0.0,0.0,5.9279,5.9279,5.9398,5.9997,6.0176,6.0326,6.1014,6.1194,6.1373,6.2032,6.2181,6.2331,6.2929,6.3079,6.3079,6.3079,6.3079,6.3079,6.3079,6.3079,6.3079,6.3079,6.3079,6.3079,6.3079,6.3079,6.3079,6.3079,6.3617,6.4276,6.4964,6.5622,6.6281,6.6939,6.6999,6.6999,6.6999,6.6999,6.6999,6.6999,6.6999,6.6999,6.6999,6.6999,6.6999,6.6999,6.6999,6.6999,6.6999,6.6999,6.6969,6.6879,6.6251,6.5592,6.4874,6.4246,6.3617,6.3079,6.3079,6.3079,6.3079,6.3079,6.3079,6.3079,0.0,0.0,5.5179,5.5179,0.0,0.0,0.0,0.0,5.5179,5.5179,5.5179,5.5179,5.5179,5.5179,0.0,5.5179,5.5179,5.5179,5.5179,5.5179,5.5179,5.5179,5.5179,5.5448,5.5957,5.5957,5.6196,5.6675,5.6196,5.5957,5.5987,5.6615,5.6885,5.6915,5.7603,5.7902,5.7932,5.862,5.889,5.8919,5.9039,5.9099,5.9099,5.9099,5.9099,0.0,0.0,0.0,0.0,0.0,0.0,0.0,6.0505,6.0685,6.0715,6.0835,6.0894,6.1044,6.1702,6.1882,6.2061,6.269,6.2869,6.2899,6.3049,6.3079,6.3079,6.3079,6.3079,6.3079,6.3079,6.3079,6.3079,6.3079,6.3079,6.3079,6.3079,6.3079,6.3079,6.3079,6.3617,6.4276,6.4964,6.5622,6.6281,6.6939,6.6999,6.6999,6.6999,6.6999,6.6999,6.6999,6.6999,6.6999,6.6999,6.6999,6.6999,6.6999,6.6999,6.6999,6.6999,6.6999,6.67,6.6221,6.6071,6.5323,6.4216,6.4066,6.3617,6.3079,6.3079,6.3079,6.3079,6.3079,6.3079,6.3079,0.0,0.0,0.0,0.0,0.0,0.0,0.0,0.0,5.485,5.5149,5.5179,5.5179,5.5179,5.5179,0.0,0.0,5.5658,5.5777,5.6077,5.6107,5.6107,5.6107,5.6107,5.6256,5.6615,5.6615,5.6765,5.7094,5.7094,5.6944,5.6615,5.7274,5.7573,5.7633,5.8291,5.859,5.862,5.8949,5.9099,5.9129,5.9458,5.9578,5.9608,5.9937,6.0057,6.0057,6.0057,0.0,0.0,0.0,0.0,0.0,0.0,0.0,6.1164,6.1493,6.1583,6.1732,6.2391,6.257,6.266,6.2989,6.3079,6.3079,6.3079,6.3079,6.3079,6.3079,6.3079,6.3079,6.3079,6.3079,6.3079,6.3079,6.3079,6.3079,6.3079,6.3079,6.3079,6.3079,6.3378,6.3827,6.4485,6.5144,6.5802,6.646,6.6819,6.6999,6.6999,6.6999,6.6999,6.6999,6.6999,6.6999,6.6999,6.6999,6.6999,6.6999,6.6999,6.6999,6.6999,6.6999,6.664,6.5981,6.5682,6.4964,6.3977,6.3677,6.3378,6.3079,6.3079,6.3079,6.3079,6.3079,6.3079,6.3079,0.0,0.0,0.0,0.0,0.0,0.0,0.0,0.0,0.0,5.5119,5.5299,5.5359,5.5359,5.5448,5.5748,0.0,0.0,0.0,5.7064,5.7094,5.7094,5.7094,5.7094,5.7154,5.7274,5.7274,5.7334,5.7453,5.8022,5.7992,5.7453,5.8022,5.8291,5.8321,5.886,5.9099,5.9129,5.9219,5.9279,5.9338,5.9997,6.0266,6.0326,6.0894,6.1104,6.1104,6.1104,6.1104,6.1134,6.1253,0.0,0.0,0.0,0.0,6.1553,6.2121,6.2271,6.2391,6.2929,6.3079,6.3079,6.3079,6.3079,6.3079,6.3079,6.3079,6.3079,6.3079,6.3079,6.3079,6.3079,6.3079,6.3079,6.3079,6.3079,6.3079,6.3079,6.3079,6.3079,6.3079,6.3079,6.3318,6.3947,6.4515,6.5173,6.5951,6.652,6.6879,6.6999,6.6999,6.6999,6.6999,6.6999,6.6999,6.6999,6.6999,6.6999,6.6999,6.6999,6.6999,6.6999,6.6879,6.646,6.5802,6.5144,6.4455,6.3797,6.3288,6.3079,6.3079,6.3079,6.3079,6.3079,6.3079,6.3079,6.3079,0.0,0.0,0.0,0.0,0.0,0.0,0.0,0.0,0.0,0.0,5.5688,5.6098,5.6098,5.6526,5.6885,5.6974,5.6974,5.7004,5.7094,0.0,0.0,5.7094,5.7094,5.7363,5.7962,5.7992,5.8261,5.883,5.8919,5.8919,5.883,5.8919,5.8979,5.8979,5.9069,5.9099,5.9129,5.9727,5.9967,6.0027,6.0715,6.0984,6.0984,6.1074,6.1104,6.1104,6.1104,6.1104,6.1194,6.1762,6.1972,0.0,0.0,0.0,6.2839,6.2929,6.2959,6.2959,6.3049,6.3079,6.3079,6.3079,6.3079,6.3079,6.3079,6.3079,6.3079,6.3079,6.3079,6.3079,6.3079,6.3079,6.3079,6.3079,6.3079,6.3079,6.3079,6.3079,6.3079,6.3079,6.3079,6.3318,6.3947,6.4066,6.4665,6.5922,6.6101,6.64,6.6969,6.6999,6.6999,6.6999,6.6999,6.6999,6.6999,6.6999,6.6999,6.6999,6.6999,6.6999,6.6969,6.64,6.5772,6.5114,6.4425,6.3767,6.3199,6.3109,6.3079,6.3079,6.3079,6.3079,6.3079,6.3079,6.3079,6.3079,0.0,0.0,0.0,0.0,0.0,0.0,0.0,0.0,0.0,0.0,0.0,5.6675,5.6675,5.6944,5.7244,5.7633,5.7663,5.7812,5.8201,5.8231,5.8231,5.8231,5.8231,5.8351,5.865,5.868,5.88,5.9099,5.9099,5.9099,5.9099,5.9099,5.9099,5.9099,5.9099,5.9308,5.9668,5.9967,6.0326,6.0715,6.1403,6.1672,6.1702,6.2061,6.2211,6.2211,6.2211,6.2211,6.2271,6.254,6.266,6.269,6.2989,0.0,0.0,0.0,6.3079,6.3079,6.3079,6.3079,6.3079,6.3079,6.3079,6.3079,6.3079,6.3079,6.3079,6.3079,6.3079,6.3079,6.3079,6.3079,6.3079,6.3079,6.3079,6.3079,6.3079,6.3079,6.3079,6.3079,6.3079,6.3169,6.3468,6.3797,6.4246,6.4844,6.5592,6.6131,6.643,6.6789,6.6999,6.6999,6.6999,6.6999,6.6999,6.6999,6.6999,6.6999,6.6999,6.6789,6.643,6.5772,6.5293,6.4934,6.4306,6.3647,6.3079,6.3079,6.3079,6.3079,6.3079,6.3079,6.3079,6.3079,6.3079,6.3079,0.0,0.0,0.0,0.0,0.0,0.0,0.0,0.0,0.0,0.0,0.0,5.7363,5.7363,0.0,0.0,0.0,5.8381,5.859,5.9069,5.9099,5.9099,5.9099,5.9099,5.9099,5.9099,5.9099,5.9099,5.9099,5.9099,5.9189,5.9338,5.9338,5.9458,5.9608,5.9428,5.9727,6.0356,6.0535,6.0894,6.1433,6.2091,6.2331,6.2391,6.2899,6.3079,6.3079,6.3079,6.3079,6.3079,6.3079,6.3079,6.3079,6.3079,6.3079,0.0,0.0,0.0,6.3079,6.3079,6.3079,6.3079,6.3079,6.3079,6.3079,6.3079,6.3079,6.3079,6.3079,6.3079,6.3079,6.3079,6.3079,6.3079,6.3079,6.3079,6.3079,6.3079,6.3079,6.3079,6.3079,6.3079,6.3079,6.3079,6.3498,6.3827,6.3977,6.4934,6.5562,6.5742,6.637,6.6759,6.6759,6.6909,6.6999,6.6999,6.6999,6.6999,6.6999,6.6999,6.664,6.5981,6.5323,6.4934,6.4725,6.4066,6.3498,6.3079,6.3079,6.3079,6.3079,6.3079,6.3079,6.3079,6.3079,6.3079,6.3079,0.0,0.0,0.0,0.0,0.0,0.0,0.0,0.0,0.0,0.0,0.0,5.8082,5.8082,5.862,5.9009,5.9039,5.9069,5.9069,5.9099,5.9099,5.9099,5.9099,5.9099,0.0,5.9099,5.9099,5.9099,5.9099,5.9099,5.9428,6.0027,6.0027,6.0386,6.0984,6.0326,6.0416,6.1104,6.1732,6.2002,6.2121,6.275,6.3019,6.3019,6.3079,6.3079,6.3079,6.3079,6.3079,6.3079,6.3079,6.3079,6.3079,6.3079,6.3079,6.3079,0.0,0.0,0.0,6.3079,6.3079,6.3079,6.3079,6.3079,6.3079,6.3079,6.3079,6.3079,6.3079,6.3079,6.3079,6.3079,6.3079,6.3079,6.3079,6.3079,6.3079,6.3079,6.3079,6.3079,6.3079,6.3079,6.3079,6.3079,6.3109,6.3378,6.3947,6.4066,6.4395,6.5054,6.5712,6.6071,6.6071,6.667,6.6999,6.6999,6.6999,6.6999,6.6999,6.6999,6.664,6.5981,6.5323,6.4665,6.4006,6.3408,6.3109,6.3079,6.3079,6.3079,6.3079,6.3079,6.3079,6.3079,6.3079,6.3079,6.3079,0.0,0.0,0.0,0.0,0.0,0.0,0.0,0.0,0.0,0.0,0.0,0.0,0.0,5.8949,5.9099,5.9099,5.9099,5.9099,5.9099,5.9099,5.9099,5.9099,5.9099,5.9099,5.9099,5.9099,5.9308,5.9727,5.9727,6.0086,6.0745,6.0745,6.1104,6.1702,6.1044,6.1104,6.1762,6.2002,6.2331,6.275,6.2989,6.3079,6.3079,6.3079,6.3079,6.3079,6.3079,6.3079,6.3079,6.3079,6.3079,6.3079,6.3079,6.3079,6.3079,6.3079,6.3079,6.3079,6.3079,6.3079,6.3079,6.3079,6.3079,6.3079,6.3079,6.3079,6.3079,6.3079,6.3079,6.3079,6.3079,6.3079,6.3079,6.3079,6.3079,6.3079,6.3079,6.3079,6.3079,6.3079,6.3079,6.3079,6.3079,6.3079,6.3169,6.3378,6.3767,6.4096,6.4366,6.4994,6.5562,6.6011,6.6251,6.655,6.6999,6.6999,6.6999,6.6999,6.655,6.6011,6.5353,6.4665,6.4006,6.3408,6.3169,6.3079,6.3079,6.3079,6.3079,6.3079,6.3079,6.3079,6.3079,6.3079,6.3079,6.3079,0.0,0.0,0.0,5.7723,0.0,5.7932,5.8381,5.8471,5.862,5.9039,0.0,0.0,0.0,0.0,5.9099,5.9099,5.9099,5.9189,5.9428,5.9428,5.9548,5.9757,5.9787,5.9787,5.9787,5.9129,5.9308,6.0446,5.9757,6.0116,6.1433,6.1433,6.1792,6.2421,6.1972,6.2002,6.2421,6.2421,6.266,6.3079,6.3079,6.3079,6.3079,6.3079,6.3079,6.3079,6.3079,6.3079,6.3079,6.3079,6.3079,6.3079,0.0,6.3079,6.3079,6.3079,6.3079,6.3079,6.3079,6.3079,6.3079,6.3079,6.3079,6.3079,6.3079,6.3079,6.3079,6.3079,6.3079,6.3079,6.3079,6.3079,6.3079,6.3079,6.3079,6.3079,6.3079,6.3079,6.3079,6.3079,6.3079,6.3079,6.3079,6.3079,6.3079,6.3079,6.3468,6.3677,6.3677,6.4306,6.4994,6.5652,6.5892,6.6221,6.667,6.6879,6.6879,6.667,6.6221,6.5533,6.4665,6.4216,6.3647,6.3079,6.3079,6.3079,6.3079,6.3079,6.3079,6.3079,6.3079,6.3079,6.3079,6.3079,6.3079,6.3079,5.8022,5.8141,5.8351,5.9009,5.9099,5.9099,5.9099,5.9099,5.9099,5.9099,0.0,0.0,0.0,0.0,0.0,5.9159,5.9159,5.9428,6.0086,6.0116,6.0416,6.1074,6.1104,6.1104,6.1104,5.9219,5.9159,6.1134,5.9189,5.9578,6.2121,6.2121,6.248,6.3079,6.3079,6.3079,6.3079,6.3079,6.3079,6.3079,6.3079,6.3079,6.3079,6.3079,6.3079,6.3079,6.3079,6.3079,6.3079,6.3079,6.3079,6.3079,0.0,0.0,0.0,0.0,0.0,6.3079,0.0,0.0,0.0,6.3079,6.3079,6.3079,6.3079,6.3079,6.3079,6.3079,6.3079,6.3079,6.3079,6.3079,6.3079,6.3079,6.3079,6.3079,6.3079,6.3079,6.3079,6.3079,6.3079,6.3079,6.3079,6.3079,6.3079,6.3079,6.3079,6.3079,6.3079,6.3647,6.4306,6.4964,6.5652,6.5981,6.5981,6.661,6.661,6.5981,6.5951,6.5263,6.4006,6.3977,6.3647,6.3079,6.3079,6.3079,6.3079,6.3079,6.3079,6.3079,6.3079,6.3079,6.3079,6.3079,6.3079,6.3079,5.88,5.883,5.889,5.9069,5.9099,5.9099,5.9099,5.9099,5.9099,0.0,0.0,0.0,5.9099,5.9518,6.0027,6.0505,6.0565,6.0625,6.0805,6.0835,6.0924,6.1104,6.1104,6.1104,6.1104,6.0565,6.0805,6.1822,6.1283,6.1613,6.281,6.281,6.2899,6.3079,6.3079,6.3079,6.3079,6.3079,6.3079,6.3079,6.3079,6.3079,6.3079,6.3079,6.3079,6.3079,6.3079,6.3079,6.3079,6.3079,6.3079,6.3079,0.0,0.0,0.0,0.0,0.0,0.0,6.3079,0.0,0.0,0.0,0.0,0.0,6.3079,6.3079,6.3079,6.3079,6.3079,6.3079,6.3079,6.3079,6.3079,6.3079,6.3079,6.3079,6.3079,6.3079,6.3079,6.3079,6.3079,6.3079,6.3079,6.3079,6.3079,6.3079,6.3079,6.3079,6.3079,6.3647,6.4096,6.4276,6.4934,6.5293,6.5293,6.5473,6.5473,6.5293,6.4784,6.4366,6.3977,6.3528,6.3228,6.3079,6.3079,6.3079,6.3079,6.3079,6.3079,6.3079,6.3079,6.3079,6.3079,6.3079,6.3079,6.3079,5.9099,5.9099,5.9099,5.9099,5.9099,5.9099,5.9099,5.9099,5.9189,0.0,0.0,0.0,5.9907,6.0296,6.0685,6.1074,6.1104,6.1224,6.1493,6.1523,6.1642,6.1912,6.1942,6.1942,6.1942,6.1104,6.1283,6.251,6.1672,6.1882,6.3079,6.3079,6.3079,6.3079,6.3079,6.3079,6.3079,6.3079,6.3079,6.3079,6.3079,6.3079,6.3079,6.3079,6.3079,6.3079,6.3079,6.3079,6.3079,6.3079,6.3079,0.0,0.0,0.0,0.0,0.0,0.0,0.0,0.0,0.0,6.3079,6.3079,0.0,0.0,6.3079,6.3079,6.3079,6.3079,6.3079,6.3079,6.3079,6.3079,6.3079,6.3079,6.3079,6.3079,6.3079,6.3079,6.3079,6.3079,6.3079,6.3079,6.3079,6.3079,6.3079,6.3079,6.3079,6.3079,6.3079,6.3408,6.3617,6.3617,6.4246,6.4605,6.4605,6.4874,6.4874,6.4605,6.4186,6.3857,6.3588,6.3228,6.3079,6.3079,6.3079,6.3079,6.3079,6.3079,6.3079,6.3079,6.3079,6.3079,6.3079,6.3079,6.3079,6.3079,0.0,5.9159,5.9219,5.9219,5.9279,5.9338,5.9338,5.9338,5.9548,0.0,6.0206,6.0475,6.1134,6.1224,6.1253,6.1313,6.1343,6.1583,6.2181,6.2211,6.248,6.3049,6.3079,6.3079,6.3079,6.1343,6.1283,6.3079,6.1283,6.1343,6.3079,6.3079,6.3079,6.3079,6.3079,6.3079,6.3079,6.3079,6.3079,6.3079,6.3079,6.3079,6.3079,6.3079,6.3079,6.3079,6.3079,6.3079,6.3079,6.3079,6.3079,0.0,0.0,0.0,0.0,0.0,6.3079,0.0,0.0,0.0,0.0,0.0,6.3079,0.0,6.3079,6.3079,6.3079,6.3079,6.3079,6.3079,6.3079,6.3079,6.3079,6.3079,6.3079,6.3079,6.3079,6.3079,6.3079,6.3079,6.3079,6.3079,6.3079,6.3079,6.3079,6.3079,6.3079,6.3079,6.3079,6.3079,6.3079,6.3079,6.3617,6.3887,6.3887,6.4515,6.4515,6.3887,6.3887,6.3617,6.3079,6.3079,6.3079,6.3079,6.3079,6.3079,6.3079,6.3079,6.3079,6.3079,6.3079,6.3079,6.3079,6.3079,6.3079,6.3079,5.9099,5.9518,5.9877,5.9877,6.0356,6.0715,6.0715,6.0715,6.0775,6.0894,6.0894,6.1164,6.1822,6.1912,6.2121,6.266,6.269,6.275,6.2869,6.2869,6.2929,6.3079,6.3079,6.3079,6.3079,6.269,6.269,6.3079,6.269,6.269,6.3079,6.3079,6.3079,6.3079,6.3079,6.3079,6.3079,6.3079,6.3079,6.3079,6.3079,6.3079,6.3079,6.3079,6.3079,6.3079,6.3079,6.3079,6.3079,6.3079,6.3079,6.3079,0.0,0.0,0.0,6.3079,0.0,0.0,0.0,0.0,0.0,0.0,0.0,0.0,6.3079,6.3079,6.3079,6.3079,6.3079,6.3079,6.3079,6.3079,6.3079,6.3079,6.3079,6.3079,6.3079,6.3079,6.3079,6.3079,6.3079,6.3079,6.3079,6.3079,6.3079,6.3079,6.3079,6.3079,6.3079,6.3079,6.3079,6.3079,6.3199,6.3258,6.3258,6.3378,6.3378,6.3258,6.3258,6.3199,6.3079,6.3079,6.3079,6.3079,6.3079,6.3079,6.3079,6.3079,6.3079,6.3079,6.3079,6.3079,6.3079,6.3079,6.3079,6.3079,6.0116,6.0386,6.0595,6.0595,6.0894,6.1104,6.1104,6.1104,6.1224,6.1553,6.1882,6.2211,6.254,6.26,6.272,6.3049,6.3079,6.3079,6.3079,6.3079,6.3079,6.3079,6.3079,6.3079,6.3079,6.3079,6.3079,6.3079,6.3079,6.3079,6.3079,6.3079,6.3079,6.3079,6.3079,6.3079,6.3079,6.3079,6.3079,6.3079,6.3079,6.3079,6.3079,6.3079,6.3079,6.3079,6.3079,6.3079,6.3079,6.3079,6.3079,0.0,6.3079,6.3079,6.3079,0.0,6.3079,6.3079,0.0,0.0,0.0,6.3079,0.0,0.0,0.0,6.3079,6.3079,6.3079,6.3079,6.3079,6.3079,6.3079,6.3079,6.3079,6.3079,6.3079,6.3079,6.3079,6.3079,6.3079,6.3079,6.3079,6.3079,6.3079,6.3079,6.3079,6.3079,6.3079,6.3079,6.3079,6.3079,6.3079,6.3079,6.3079,6.3079,6.3079,6.3079,6.3079,6.3079,6.3079,6.3079,6.3079,6.3079,6.3079,6.3079,6.3079,6.3079,6.3079,6.3079,6.3079,6.3079,6.3079,6.3079,6.3079,6.3079,6.3079,6.1164,6.1224,6.1313,6.1313,6.1403,6.1493,6.1493,6.1493,6.1672,6.2211,6.275,6.3079,6.3079,6.3079,6.3079,6.3079,6.3079,6.3079,6.3079,6.3079,6.3079,6.3079,6.3079,6.3079,6.3079,6.3079,6.3079,6.3079,6.3079,6.3079,6.3079,6.3079,6.3079,6.3079,6.3079,6.3079,6.3079,6.3079,6.3079,6.3079,6.3079,6.3079,6.3079,6.3079,6.3079,6.3079,6.3079,6.3079,6.3079,6.3079,6.3079,6.3079,6.3079,6.3079,0.0,0.0,0.0,0.0,0.0,0.0,0.0,0.0,0.0,6.3079,0.0,0.0,0.0,6.3079,0.0,0.0,0.0,0.0,6.3049,6.2899,6.2989,0.0,0.0,6.2989,0.0,6.3079,6.3079,6.3079,6.3079,6.3079,6.3079,6.3079,6.3079,6.3079,6.3079,6.3079,6.3079,6.3079,6.3079,6.3079,6.3079,6.3079,6.3079,6.3079,6.3079,6.3079,6.3079,6.3079,6.3079,6.3079,6.3079,6.3079,6.3079,6.3079,6.3079,6.3079,6.3079,6.3079,6.3079,6.3079,6.3079,6.3079,6.1343,6.1583,6.2002,6.2002,6.248,6.2839,6.2839,6.2839,6.2869,6.2959,6.3019,6.3079,6.3079,6.3079,6.3079,6.3079,6.3079,6.3079,6.3079,6.3079,6.3079,6.3079,6.3079,6.3079,6.3079,6.3079,6.3079,6.3079,6.3079,6.3079,6.3079,6.3079,6.3079,6.3079,6.3079,6.3079,6.3079,6.3079,6.3079,6.3079,6.3079,6.3079,6.3079,6.3079,6.3079,6.3079,6.3079,6.3079,6.3079,0.0,6.3079,6.3079,0.0,6.3079,6.3079,6.3079,0.0,0.0,0.0,0.0,0.0,0.0,6.3079,0.0,0.0,0.0,6.3079,6.3079,0.0,0.0,0.0,0.0,0.0,6.2301,6.269,0.0,6.2301,6.272,6.3079,6.3079,6.3079,6.3079,6.3079,6.3079,6.3079,6.3079,6.3079,6.3079,6.3079,6.3079,6.3079,6.3079,6.3079,6.3079,6.3079,6.3079,6.3079,6.3079,6.3079,6.3079,6.3079,6.3079,6.3079,6.3079,6.3079,6.3079,6.3079,6.3079,6.3079,6.3079,6.3079,6.3079,6.3079,6.3079,6.3079,6.3079,6.2361,6.248,6.266,6.266,6.2899,6.3079,6.3079,6.3079,6.3079,6.3079,6.3079,6.3079,6.3079,6.3079,6.3079,6.3079,6.3079,6.3079,6.3079,6.3079,6.3079,6.3079,6.3079,6.3079,6.3079,6.3079,6.3079,6.3079,6.3079,6.3079,6.3079,6.3079,6.3079,6.3079,6.3079,6.3079,6.3079,6.3079,6.3079,6.3079,6.3079,6.3079,6.3079,6.3079,6.3079,6.3079,6.3079,6.3079,6.3079,0.0,6.3079,0.0,0.0,0.0,0.0,0.0,0.0,0.0,0.0,0.0,0.0,0.0,0.0,0.0,6.3079,0.0,6.3079,0.0,0.0,0.0,0.0,0.0,0.0,0.0,6.2899,6.2989,0.0,0.0,6.3079,6.3079,6.3079,6.3079,6.3079,6.3079,6.3079,6.3079,6.3079,6.3079,6.3079,6.3079,6.3079,6.3079,6.3079,6.3079,6.3079,6.3079,6.3079,6.3079,6.3079,6.3079,6.3079,6.3079,6.3079,6.3079,6.3079,6.3079,6.3079,6.3079,6.3079,6.3079,6.3079,6.3079,6.3079,6.3079,6.3079,6.3079,6.3079,6.3079,6.3079,6.3079,6.3079,6.3079,6.3079,6.3079,6.3079,6.3079,6.3079,6.3079,6.3079,6.3079,6.3079,6.3079,6.3079,6.3079,6.3079,6.3079,6.3079,6.3079,6.3079,0.0,6.3079,6.3079,6.3079,6.3079,6.3079,6.3079,6.3079,6.3079,6.3079,6.3079,6.3079,6.3079,6.3079,6.3079,6.3079,6.3079,6.3258,6.3438,6.3588,6.3408,6.3438,6.3617,6.3617,6.3617,6.3617,6.3617,6.3617,6.3588,6.3378,6.3318,0.0,0.0,0.0,0.0,6.3079,0.0,0.0,0.0,0.0,0.0,0.0,0.0,0.0,0.0,0.0,0.0,0.0,0.0,0.0,6.2839,0.0,6.3019,0.0,6.2959,0.0,0.0,0.0,6.3079,6.3079,6.3079,6.3079,6.3079,6.3079,6.3079,6.3079,6.3079,6.3079,6.3079,6.3079,6.3079,6.3079,6.3079,6.3079,6.3079,6.3079,6.3079,6.3079,6.3079,6.3079,6.3079,6.3079,6.3079,6.3079,6.3079,6.3079,6.3079,6.3079,6.3079,6.3079,6.3079,6.3079,6.3079,6.3079,6.3079,6.3079,6.3079,6.3079,6.3079,6.3079,6.3079,6.3079,6.3079,6.3079,6.3079,6.3079,6.3079,6.3079,6.3079,6.3079,6.3079,6.3079,6.3079,6.3079,6.3079,0.0,6.3079,0.0,6.3079,6.3079,6.3079,6.3079,6.3079,6.3079,6.3079,6.3079,6.3079,6.3079,6.3079,6.3079,6.3079,6.3079,6.3139,6.3737,6.4366,6.4904,6.4216,6.4395,6.4964,6.4964,6.4964,6.4964,6.4964,6.4964,6.4844,6.4186,6.3977,0.0,0.0,0.0,0.0,0.0,0.0,0.0,6.3079,0.0,0.0,0.0,0.0,6.3079,0.0,0.0,0.0,0.0,0.0,0.0,6.2241,6.266,0.0,0.0,0.0,0.0,0.0,0.0,0.0,0.0,6.3079,6.3079,6.3079,6.3079,6.3079,6.3079,6.3079,6.3079,6.3079,6.3079,6.3079,6.3079,6.3079,6.3079,6.3079,6.3079,6.3079,6.3079,6.3079,6.3079,6.3079,6.3079,6.3079,6.3079,6.3079,6.3079,6.3079,6.3079,6.3079,6.3079,6.3079,6.3079,6.3079,6.3079,6.3079,6.3079,6.3079,6.3079,6.3079,6.3079,6.3079,6.3079,6.3079,6.3079,6.3079,6.3079,6.3079,6.3079,6.3079,6.3079,6.3079,6.3079,6.3079,0.0,0.0,0.0,6.3079,0.0,0.0,0.0,6.3079,6.3079,6.3079,6.3079,6.3079,6.3079,6.3079,6.3079,6.3079,6.3079,6.3079,6.3318,6.3737,6.4425,6.5084,6.5592,6.4934,6.4814,6.5024,6.5024,6.5024,6.5024,6.5024,6.5024,6.4994,6.4755,6.4695,6.4635,6.4425,6.4036,6.3677,6.3677,6.3378,6.3079,6.3079,0.0,0.0,0.0,0.0,0.0,0.0,0.0,0.0,0.0,0.0,6.3019,6.278,6.2929,0.0,0.0,0.0,0.0,0.0,0.0,0.0,0.0,0.0,0.0,0.0,6.3079,6.3079,6.3079,6.3079,6.3079,6.3079,6.3079,6.3079,6.3079,6.3079,6.3079,6.3079,6.3079,6.3079,6.3079,6.3079,6.3079,6.3079,6.3079,6.3079,6.3079,6.3079,6.3079,6.3079,6.3079,6.3079,6.3079,6.3079,6.3079,6.3079,6.3079,6.3079,6.3079,6.3079,6.3079,6.3079,6.3079,6.3079,6.3079,6.3079,6.3079,6.3079,6.3079,6.3079,6.3079,6.3079,6.3079,6.3079,6.3079,6.3079,0.0,6.3079,6.3079,0.0,0.0,0.0,0.0,0.0,6.3079,6.3079,6.3079,6.3079,6.3079,6.3079,6.3079,6.3079,6.3079,6.3318,6.3617,6.4066,6.4994,6.5772,6.6311,6.5892,6.5712,6.5712,6.5712,6.5712,6.5712,6.5712,6.5712,6.5682,6.5443,6.5383,6.5323,6.5114,6.4695,6.4366,6.4366,6.3887,6.3408,6.3408,6.3228,0.0,6.3079,0.0,0.0,0.0,0.0,0.0,0.0,0.0,0.0,6.3079,6.3079,0.0,0.0,6.3079,0.0,0.0,0.0,0.0,0.0,0.0,0.0,0.0,0.0,0.0,0.0,6.3079,6.3079,6.3079,6.3079,6.3079,6.3079,6.3079,6.3079,6.3079,6.3079,6.3079,6.3079,6.3079,6.3079,6.3079,6.3079,6.3079,6.3079,6.3079,6.3079,6.3079,6.3079,6.3079,6.3079,6.3079,6.3079,6.3079,6.3079,6.3079,6.3079,6.3079,6.3079,6.3079,6.3079,6.3079,6.3079,6.3079,6.3079,6.3079,6.3079,6.3079,6.3079,6.3079,6.3079,6.3079,6.3079,6.3079,0.0,0.0,6.3079,6.3079,6.3079,0.0,0.0,0.0,0.0,6.3079,6.3079,6.3079,6.3079,6.3079,6.3079,6.3079,6.3169,6.3737,6.4036,6.4216,6.5533,6.643,6.6999,6.6999,6.6999,6.6999,6.6999,6.6999,6.6999,6.6999,6.6999,6.6879,6.6251,6.6071,6.5922,6.5323,6.5114,6.5084,6.5084,6.4575,6.4036,6.4036,6.3588,6.3109,0.0,0.0,6.3079,0.0,0.0,0.0,0.0,0.0,0.0,0.0,0.0,0.0,0.0,0.0,0.0,0.0,0.0,0.0,0.0,0.0,0.0,0.0,0.0,0.0,0.0,6.3079,6.3079,6.3079,6.3079,6.3079,6.3079,6.3079,6.3079,6.3079,6.3079,6.3079,6.3079,6.3079,6.3079,6.3079,6.3079,6.3079,6.3079,6.3079,6.3079,6.3079,6.3079,6.3079,6.3079,6.3079,6.3079,6.3079,6.3079,6.3079,6.3079,6.3079,6.3079,6.3079,6.3079,6.3079,6.3079,6.3079,6.3079,6.3079,6.3079,6.3079,6.3079,6.3079,6.3079,6.3079,0.0,0.0,0.0,6.3079,6.3079,6.3079,6.3079,6.3079,0.0,6.3079,0.0,6.3079,6.3079,6.3079,6.3079,6.3079,6.3079,6.3318,6.3767,6.3917,6.4575,6.5562,6.64,6.6849,6.6999,6.6999,6.6999,6.6999,6.6999,6.6999,6.6999,6.6999,6.6999,6.6969,6.6789,6.6729,6.67,6.655,6.6131,6.5742,6.5742,6.5263,6.4755,6.4755,6.4246,6.3767,6.3767,6.3408,0.0,0.0,0.0,0.0,0.0,0.0,0.0,0.0,0.0,0.0,0.0,0.0,0.0,6.3079,0.0,0.0,0.0,0.0,0.0,0.0,0.0,0.0,6.3079,6.3079,6.3079,6.3079,6.3079,6.3079,6.3079,6.3079,6.3079,6.3079,6.3079,6.3079,6.3079,6.3079,6.3079,6.3079,6.3079,6.3079,6.3079,6.3079,6.3079,6.3079,6.3079,6.3079,6.3079,6.3079,6.3079,6.3079,6.3079,6.3079,6.3079,6.3079,6.3079,6.3079,6.3079,6.3079,6.3079,6.3079,6.3079,6.3079,6.3079,6.3079,6.3079,6.3079,6.3079,6.3079,6.3079,0.0,0.0,6.3079,6.3079,6.3079,6.3079,6.3079,0.0,6.3079,0.0,6.3079,6.3079,6.3079,6.3079,6.3079,6.3378,6.3677,6.4036,6.4635,6.5473,6.646,6.6849,6.6999,0.0,6.6999,6.6999,6.6999,6.6999,6.6999,6.6999,6.6999,6.6999,6.6999,6.6999,6.6999,6.6999,6.6999,6.6729,6.643,6.643,6.5951,6.5473,6.5473,6.4934,6.4455,6.4455,6.3947,6.3468,6.3468,6.3258,6.3079,0.0,0.0,0.0,0.0,0.0,0.0,0.0,0.0,0.0,0.0,6.3079,0.0,0.0,0.0,0.0,0.0,0.0,0.0,6.3079,6.3079,6.3079,6.3079,6.3079,6.3079,6.3079,6.3079,6.3079,6.3079,6.3079,6.3079,6.3079,6.3079,6.3079,6.3079,6.3079,6.3079,6.3079,6.3079,6.3079,6.3079,6.3079,6.3079,6.3079,6.3079,6.3079,6.3079,6.3079,6.3079,6.3079,6.3079,6.3079,6.3079,6.3079,6.3079,6.3079,6.3079,6.3079,6.3079,6.3079,6.3079,6.3079,6.3079,6.3079,6.3079,6.3079,6.3079,6.3079,6.3079,6.3079,6.3079,6.3079,6.3079,0.0,0.0,0.0,6.3079,6.3079,6.3169,6.3199,6.3228,6.3857,6.4186,6.4336,6.5592,6.646,6.6999,6.6999,6.6999,6.6999,6.6999,6.7029,6.7119,6.7119,6.7059,6.6999,6.6999,6.6999,6.6999,6.6999,6.6999,6.6999,6.6999,6.6999,6.6999,6.6999,6.658,6.6131,6.6131,6.5652,6.5144,6.5144,6.4635,6.4126,6.4126,6.3617,6.3199,6.3199,0.0,0.0,0.0,0.0,0.0,0.0,0.0,0.0,0.0,0.0,0.0,0.0,0.0,0.0,0.0,6.3079,6.3079,6.3079,6.3079,6.3079,6.3079,6.3079,6.3079,6.3079,6.3079,6.3079,6.3079,6.3079,6.3079,6.3079,6.3079,6.3079,6.3079,6.3079,6.3079,6.3079,6.3079,6.3079,6.3079,6.3079,6.3079,6.3079,6.3079,6.3079,6.3079,6.3079,6.3079,6.3079,6.3079,6.3079,6.3079,6.3079,6.3079,6.3079,6.3079,6.3079,6.3079,6.3079,6.3079,6.3079,6.3079,6.3079,0.0,0.0,0.0,0.0,6.3079,6.3079,6.3079,6.3079,6.3079,6.3079,0.0,0.0,6.3079,6.3079,6.3588,6.3827,6.3857,6.4545,6.5144,6.5712,6.649,6.6879,6.6999,6.6999,6.6999,6.6999,6.6999,6.7328,6.7807,6.7807,6.7448,6.6999,6.6999,6.6999,6.6999,6.6999,6.6999,6.6999,6.6999,6.6999,6.6999,6.6999,6.6909,6.6819,6.6819,6.6311,6.5832,6.5832,6.5323,6.4844,6.4844,6.4306,6.3827,6.3827,6.3438,0.0,0.0,0.0,0.0,0.0,0.0,0.0,0.0,0.0,6.3079,0.0,0.0,0.0,0.0,0.0,6.3079,6.3079,6.3079,6.3079,6.3079,6.3079,6.3079,6.3079,6.3079,6.3079,6.3079,6.3079,6.3079,6.3079,6.3079,6.3079,6.3079,6.3079,6.3079,6.3079,6.3079,6.3079,6.3079,6.3079,6.3079,6.3079,6.3079,6.3079,6.3079,6.3079,6.3079,6.3079,6.3079,6.3079,6.3079,6.3079,6.3079,6.3079,6.3079,6.3348,6.3558,6.3558,6.3887,6.4096,6.4096,6.4096,6.4096,6.4096,6.4096,6.4096,6.4096,6.4096,6.4096,6.4096,6.4096,6.4096,6.4096,0.0,6.4096,6.4096,6.4395,6.4545,6.4575,6.5233,6.5892,0.0,6.6849,6.6999,6.6999,6.6999,6.7208,6.7508,6.7508,6.7926,6.8495,6.8495,6.8315,6.8046,6.8046,6.8046,6.7986,6.7597,6.7508,6.7418,6.7089,6.6999,6.6999,6.6999,6.6999,6.6999,6.6999,6.6759,6.652,6.652,6.6011,6.5533,6.5533,6.4994,6.4425,6.4066,6.3498,6.3079,0.0,0.0,0.0,0.0,0.0,0.0,0.0,0.0,0.0,0.0,0.0,0.0,0.0,0.0,6.3079,6.3079,6.3079,6.3079,6.3079,6.3079,6.3079,6.3079,6.3079,6.3079,6.3079,6.3079,6.3079,6.3079,6.3079,6.3079,6.3079,6.3079,6.3079,6.3079,6.3079,6.3079,6.3079,6.3079,6.3079,6.3079,6.3079,6.3079,6.3079,6.3079,6.3079,6.3079,6.3079,6.3199,6.3258,6.3258,6.3408,6.3438,6.3288,6.3707,6.4066,6.4216,6.4695,6.5024,6.5024,6.5024,6.5024,6.5024,6.5024,6.5024,6.5024,6.5024,6.5024,6.5024,6.5024,6.5024,0.0,0.0,0.0,6.4635,6.5054,6.5323,6.5473,6.5981,6.652,6.6999,6.6999,6.6999,6.6999,6.7148,6.7508,6.8048,6.8136,6.8615,6.9213,6.9213,6.9303,6.9393,6.9393,6.9213,6.8914,6.8375,6.8196,6.8046,6.7388,6.7208,6.7178,6.7029,6.6999,6.6999,6.6999,6.6999,6.6999,6.6999,6.658,6.6221,6.6221,6.5682,6.4994,6.4156,6.3588,6.3228,0.0,0.0,0.0,0.0,0.0,0.0,0.0,0.0,0.0,6.3079,0.0,0.0,0.0,6.3079,6.3079,6.3079,6.3079,6.3079,6.3079,6.3079,6.3079,6.3079,6.3079,6.3079,6.3079,6.3079,6.3079,6.3079,6.3079,6.3079,6.3079,6.3079,6.3079,6.3079,6.3079,6.3079,6.3079,6.3079,6.3079,6.3079,6.3079,6.3079,6.3079,6.3079,6.3079,6.3079,6.3079,6.3528,6.3917,6.3917,6.4455,6.4605,6.4006,6.3947,6.4246,6.4874,6.4934,6.5024,6.5024,6.5024,6.5024,6.5024,6.5024,6.5024,6.5024,6.5024,6.5024,6.5024,6.5024,6.5024,0.0,0.0,6.4425,6.3288,6.5084,6.6221,6.6819,6.6879,6.6939,6.6999,6.6999,6.6999,6.7029,6.7627,6.7926,6.8046,6.8675,6.9303,6.9901,6.9901,7.026,7.0709,7.0709,6.9961,6.9004,6.8914,6.8914,6.8764,6.8076,6.7897,6.7747,6.7148,6.6999,6.6999,6.6999,6.6999,6.6999,6.6999,6.6939,6.6909,6.6909,6.637,6.5533,6.4246,6.3947,6.3737,0.0,0.0,0.0,0.0,0.0,0.0,0.0,0.0,0.0,0.0,6.3079,0.0,0.0,6.3079,6.3079,6.3079,6.3079,6.3079,6.3079,6.3079,6.3079,6.3079,6.3079,6.3079,6.3079,6.3079,6.3079,6.3079,6.3079,6.3079,6.3079,6.3079,6.3079,6.3079,6.3079,6.3079,6.3079,6.3079,6.3079,6.3079,6.3079,6.3079,6.3079,6.3558,6.3617,6.3767,6.4186,6.4455,6.4605,6.4605,6.4844,6.5084,6.5203,6.5203,6.5293,6.5592,6.5981,6.6191,6.6191,6.6191,6.6191,6.6191,6.6191,6.6191,6.6191,6.6191,6.6191,6.6191,6.6191,6.6191,0.0,0.0,0.0,0.0,6.6221,6.6729,6.6999,6.6999,6.6999,6.6999,6.6999,6.7208,6.7597,6.7867,6.8465,6.9213,6.9482,6.9991,7.053,7.053,7.0709,7.0889,7.0889,7.056,7.0081,6.9692,6.9602,6.9453,6.8794,6.8585,6.8435,6.7777,6.7567,6.7478,6.7089,6.6999,6.6999,6.6999,6.6999,6.6999,6.6999,6.646,6.5832,6.5293,6.4874,6.4395,6.3737,0.0,0.0,0.0,0.0,0.0,0.0,0.0,0.0,0.0,0.0,0.0,0.0,6.3079,6.3079,6.3079,6.3079,6.3079,6.3079,6.3079,6.3079,6.3079,6.3079,6.3079,6.3079,6.3079,6.3079,6.3079,6.3079,6.3079,6.3079,6.3079,6.3079,6.3079,6.3079,6.3079,6.3079,6.3079,6.3079,6.3079,6.3079,6.3079,6.3079,6.4216,6.4306,6.4455,6.4934,6.5173,6.5323,6.5323,6.5473,6.5772,6.6251,6.6311,6.6311,6.6311,6.67,6.6999,6.6999,6.6999,6.6999,6.6999,6.6999,6.6999,6.6999,6.6999,0.0,6.6999,6.6999,6.6999,6.6999,6.6999,0.0,0.0,6.64,6.661,6.6999,6.6999,6.6999,6.6999,6.7208,6.7537,6.8016,6.8405,6.9123,6.9991,7.0201,7.053,7.0889,7.0889,7.0889,7.0889,7.0889,7.0889,7.0829,7.038,7.026,7.0141,6.9482,6.9303,6.9153,6.8465,6.8136,6.7867,6.7388,6.7148,6.6999,6.6999,6.6999,6.6999,6.6999,6.661,6.6251,6.6041,6.5622,6.5084,6.4425,0.0,0.0,0.0,0.0,0.0,0.0,6.3079,6.3079,6.3079,6.3079,0.0,0.0,6.3079,6.3079,6.3079,6.3079,6.3079,6.3079,6.3079,6.3079,6.3079,6.3079,6.3079,6.3079,6.3079,6.3079,6.3079,6.3079,6.3079,6.3079,6.3079,6.3079,6.3079,6.3079,6.3079,6.3079,6.3079,6.3079,6.3079,6.3079,6.3079,6.3079,6.5024,6.5024,6.5024,6.5024,6.5562,6.6011,6.6011,6.655,6.6969,6.6969,6.6969,6.6969,6.6969,6.6999,6.6999,6.6999,6.6999,6.6999,6.6999,6.6999,6.6999,0.0,0.0,6.6999,6.6999,6.6999,6.6999,6.6999,0.0,0.0,6.4994,6.4994,6.5742,6.6999,6.6999,6.6999,6.7029,6.7687,6.7956,6.8076,6.9423,6.9961,7.0051,7.0649,7.0889,7.0889,7.0889,7.0889,7.0889,7.0889,7.0889,7.0889,7.0889,7.0889,7.0769,7.0141,6.9961,6.9812,6.9183,6.8495,6.7956,6.7956,6.7478,6.6999,6.6999,6.6999,6.6999,6.6999,6.6969,6.6789,6.6131,6.6011,6.5772,6.5114,0.0,0.0,0.0,0.0,0.0,0.0,6.3079,6.3079,6.3079,6.3079,0.0,0.0,6.3079,6.3079,6.3079,6.3079,6.3079,6.3079,6.3079,6.3079,6.3079,6.3079,6.3079,6.3079,6.3079,6.3079,6.3079,6.3079,6.3079,6.3079,6.3079,6.3079,6.3079,6.3079,6.3079,6.3079,6.3079,6.3079,6.3079,6.3079,6.3079,6.3079,6.5592,6.5712,6.5832,6.6281,6.655,6.667,6.667,6.6849,6.6999,6.6999,6.6999,6.6999,6.6999,6.6999,6.6999,6.6999,6.6999,6.6999,6.6999,6.6999,6.6999,6.6999,6.6999,6.6999,6.6999,6.6999,6.6999,6.6999,6.6999,6.6789,6.637,6.637,6.658,6.6999,6.6999,6.7238,6.7687,6.7897,6.8495,6.9393,6.9812,7.0231,7.062,7.0829,7.0889,7.0889,7.0889,7.0889,7.0889,7.0889,7.0889,7.0889,7.0889,7.0889,7.0859,7.0679,7.062,7.047,6.9842,6.9512,6.9123,6.8196,6.7807,6.7537,6.7089,6.6999,6.6999,6.6999,6.6999,6.6939,6.6729,6.667,6.646,6.5802,6.5503,0.0,6.4126,0.0,0.0,0.0,6.3079,6.3079,6.3079,6.3079,0.0,6.3079,6.3079,6.3079,6.3079,6.3079,6.3079,6.3079,6.3079,6.3079,6.3079,6.3079,6.3079,6.3079,6.3079,6.3079,6.3079,6.3079,6.3079,6.3079,6.3079,6.3079,6.3079,6.3079,6.3079,6.3079,6.3079,6.3079,6.3079,6.3079,6.3079,6.3079,6.6281,6.637,6.652,6.6909,6.6999,6.6999,6.6999,6.7208,6.7358,6.7358,6.7597,6.7747,6.7747,6.7747,6.7537,6.7029,6.7208,6.7238,6.6999,6.6999,6.6999,6.6999,6.6999,6.6999,6.6999,6.6999,6.6999,6.6999,6.6999,6.6999,6.6999,6.6999,6.6999,6.6999,6.7238,6.7597,6.8016,6.8525,6.9213,6.9991,7.0231,7.056,7.0889,7.0889,7.0889,7.0889,7.0889,7.0889,7.0889,7.0889,7.0889,7.0889,7.0889,7.0889,7.0889,7.0889,7.0889,7.0829,7.044,7.0141,6.9782,6.8944,6.8345,6.7807,6.7148,6.6999,6.6999,6.6999,6.6999,6.6999,6.6999,6.6999,6.6849,6.643,6.6161,6.5712,6.4874,0.0,0.0,0.0,0.0,6.3318,6.3109,6.3079,6.3079,6.3079,6.3079,6.3079,6.3079,6.3079,6.3079,6.3079,6.3079,6.3079,6.3079,6.3079,6.3079,6.3079,6.3079,6.3079,6.3079,6.3079,6.3079,6.3079,6.3079,6.3079,6.3079,6.3079,6.3079,6.3079,6.3079,6.3079,6.3079,6.3079,6.3079,6.3079,6.6999,6.6999,6.6999,6.6999,6.7029,6.7059,6.7059,6.7627,6.8046,6.8046,6.8585,6.9004,6.9004,6.9034,6.8555,6.7238,6.7687,6.7777,6.7178,6.7119,6.7119,6.7059,6.7059,6.7029,6.6999,6.6999,6.6999,6.6999,6.6999,6.6999,6.6999,6.7029,6.7059,6.7089,6.7747,6.8076,6.8196,6.9453,6.9991,7.0051,7.0649,7.0889,7.0889,7.0889,7.0889,7.0889,7.0889,7.0889,7.0889,7.0889,7.0889,7.0889,7.0889,7.0889,7.0889,7.0889,7.0889,7.0889,7.0889,7.05,7.0021,6.9991,6.8974,6.7807,6.7208,6.7029,6.6999,6.6999,6.6999,6.6999,6.6999,6.6999,6.6999,6.6999,6.649,6.6071,6.6011,0.0,0.0,0.0,6.4036,6.3767,6.3199,6.3109,6.3079,6.3079,0.0,6.3079,6.3079,6.3079,6.3079,6.3079,6.3079,6.3079,6.3079,6.3079,6.3079,6.3079,6.3079,6.3079,6.3079,6.3079,6.3079,6.3079,6.3079,6.3079,6.3079,6.3079,6.3079,6.3079,6.3079,6.3079,6.3079,6.3079,6.3079,6.3079,6.6999,6.6999,6.6999,6.6999,6.7418,6.7747,6.7747,6.8315,6.8764,6.8764,6.8884,6.9004,6.9004,6.9453,6.9423,6.8585,6.8675,6.8704,6.8525,6.8525,6.8286,6.7777,6.7747,6.7508,6.6999,6.6999,6.6999,6.6999,6.6999,6.6999,6.6999,6.7508,6.7747,6.7777,6.8435,6.9034,6.9542,6.9842,7.026,7.0679,7.0829,7.0889,7.0889,7.0889,7.0889,7.0889,7.0889,7.0889,7.0889,7.0889,7.0889,7.0889,7.0889,7.0889,7.0889,7.0889,7.0889,7.0889,7.0889,7.0799,7.056,7.0111,6.8974,6.7926,6.7777,6.7358,6.6999,6.6999,6.6999,6.6999,6.6999,6.6999,6.6999,6.6999,6.6849,6.658,6.6071,6.5862,6.5533,0.0,6.4306,6.3947,6.3797,6.3348,6.3079,6.3079,0.0,6.3079,6.3079,6.3079,6.3079,6.3079,6.3079,6.3079,6.3079,6.3079,6.3079,6.3079,6.3079,6.3079,6.3079,6.3079,6.3079,6.3079,6.3079,6.3079,6.3079,6.3079,6.3079,6.3079,6.3079,6.3079,6.3079,6.3079,6.3079,6.3079,6.6999,6.7238,6.7448,6.7448,6.7986,6.8435,6.8435,6.9004,6.9453,6.9453,6.9692,6.9871,6.9871,7.0201,7.026,6.9901,6.9602,6.9333,6.9034,6.9004,6.8824,6.8465,6.8435,6.8286,6.7926,6.7897,6.7747,6.7448,6.7448,6.7448,6.7448,6.8136,6.8435,6.8465,6.9153,6.9662,6.9991,7.029,7.059,7.0889,7.0889,7.0889,7.0889,7.0889,7.0889,7.0889,7.0889,7.0889,7.0889,7.0889,7.0889,7.0889,7.0889,7.0889,7.0889,7.0889,7.0889,7.0889,7.0889,7.0889,7.0769,7.0141,6.9423,6.8734,6.8106,6.7687,6.7358,6.7059,6.6999,6.6999,6.6999,6.6999,6.6999,6.6999,6.6999,6.6879,6.652,6.646,6.6221,6.5562,6.5144,6.4784,6.4515,6.3887,6.3498,6.3498,6.3228,6.3079,6.3079,6.3079,6.3079,6.3079,6.3079,6.3079,6.3079,6.3079,6.3079,6.3079,6.3079,6.3079,6.3079,6.3079,6.3079,6.3079,6.3079,6.3079,6.3079,6.3079,6.3079,6.3079,6.3079,6.3079,6.3079,6.3079,6.3079,6.3079,6.7148,6.7657,6.8136,6.8136,6.8704,6.9153,6.9153,6.9692,7.0111,7.0111,7.059,7.0889,7.0889,7.0889,7.0889,7.0889,7.041,6.9871,6.9333,6.9303,6.9243,6.9153,6.9153,6.9093,6.9004,6.9004,6.8704,6.8136,6.8136,6.8136,6.8136,6.8824,6.9153,6.9183,6.9842,7.0111,7.0141,7.0679,7.0889,7.0889,7.0889,7.0889,7.0889,7.0889,7.0889,7.0889,7.0889,7.0889,7.0889,7.0889,7.0889,7.0889,7.0889,7.0889,7.0889,7.0889,7.0889,7.0889,7.0889,7.0889,7.0769,7.026,7.0051,6.9692,6.8525,6.8168,6.7807,6.7238,6.7059,6.6999,6.6999,6.6999,6.6999,6.6999,6.6999,6.6999,6.6999,0.0,6.6789,6.6221,6.6071,6.5802,6.5233,6.4545,6.4156,6.4156,6.3677,6.3378,6.3378,6.3258,6.3228,6.3228,6.3139,6.3079,6.3079,6.3079,6.3079,6.3079,6.3079,6.3079,6.3079,6.3079,6.3079,6.3079,6.3079,6.3079,6.3079,6.3079,6.3079,6.3079,6.3079,6.3079,6.3079,6.3079,6.3079,6.3079,6.7807,6.8375,6.8824,6.8824,6.9393,6.9842,6.9842,7.035,7.0769,7.0769,7.0829,7.0889,7.0889,7.0889,7.0889,7.0889,7.0799,7.0709,7.062,7.062,7.038,6.9842,6.9842,6.9572,6.9004,6.9004,6.8944,6.8824,6.8824,6.8824,6.8854,6.9512,6.9842,6.9842,7.05,7.0769,7.0769,7.0859,7.0889,7.0889,7.0889,7.0889,7.0889,7.0889,7.0889,7.0889,7.0889,7.0889,7.0889,7.0889,7.0889,7.0889,7.0889,7.0889,7.0889,7.0889,7.0889,7.0889,7.0889,7.0889,7.0889,7.0769,7.038,6.9931,6.9722,6.8794,6.7956,6.7837,6.7388,6.6999,6.6999,6.6999,6.6999,6.6999,6.6999,6.6999,6.6999,6.6999,6.6939,6.6849,6.634,6.5981,6.5862,6.5263,6.4874,6.4874,6.4784,6.4725,6.4725,6.4186,6.3857,6.3857,6.3348,6.3079,6.3079,6.3079,6.3079,6.3079,6.3079,6.3079,6.3079,6.3079,6.3079,6.3079,6.3079,6.3079,6.3079,6.3079,6.3079,6.3079,6.3079,6.3079,6.3079,6.3079,6.3079,6.3079,6.8525,6.9064,6.9542,6.9542,7.0051,7.047,7.047,7.0709,7.0889,7.0889,7.0889,7.0889,7.0889,7.0889,7.0889,7.0889,7.0889,7.0889,7.0889,7.0889,7.0769,7.05,7.047,7.035,7.0021,6.9692,6.9542,6.9542,6.9542,6.9542,6.9542,7.0171,7.047,7.05,7.0769,7.0889,7.0889,7.0889,7.0889,7.0889,7.0889,7.0889,7.0889,7.0889,7.0889,7.0889,7.0889,7.0889,7.0889,7.0889,7.0889,7.0889,7.0889,7.0889,7.0889,7.0889,7.0889,7.0889,7.0889,7.0889,7.0889,7.0889,7.0679,7.038,7.0051,6.9512,6.8854,6.8136,6.7717,6.7418,6.7059,6.6999,6.6999,6.6999,6.6999,6.6999,6.6999,6.6999,6.6999,6.6999,6.6729,6.655,6.655,6.5951,6.5562,6.5562,6.5233,6.5024,6.5024,6.4725,6.4545,6.4545,6.3588,6.3079,6.3079,6.3079,6.3079,6.3079,6.3079,6.3079,6.3079,6.3079,6.3079,6.3079,6.3079,6.3079,6.3079,6.3079,6.3079,6.3079,6.3079,6.3079,6.3079,6.3079,6.3079,6.3079,6.9243,6.9752,7.0201,7.0201,7.059,7.0889,7.0889,7.0889,7.0889,7.0889,7.0889,7.0889,7.0889,7.0889,7.0889,7.0889,7.0889,7.0889,7.0889,7.0889,7.0889,7.0889,7.0889,7.0889,7.0889,7.044,7.0201,7.0201,7.0201,7.0201,7.0201,7.0679,7.0889,7.0889,7.0889,7.0889,7.0889,7.0889,7.0889,7.0889,7.0889,7.0889,7.0889,7.0889,7.0889,7.0889,7.0889,7.0889,7.0889,7.0889,7.0889,7.0889,7.0889,7.0889,7.0889,7.0889,7.0889,7.0889,7.0889,7.0889,7.0889,7.0889,7.0889,7.0769,7.029,7.0081,6.9692,6.8645,6.8196,6.7807,6.7298,6.7089,6.6999,6.6999,6.6999,6.6999,6.6999,6.6999,6.6999,6.6999,6.6999,6.6999,6.6999,6.652,6.6251,6.6251,6.5772,6.5473,6.5473,6.5353,6.5173,6.5024,6.4066,6.3528,6.3528,6.3528,6.3528,6.3528,6.3378,6.3288,6.3288,6.3139,6.3079,6.3079,6.3079,6.3079,6.3079,6.3079,6.3079,6.3079,6.3079,6.3079,6.3079,6.3079,6.3079,6.3079,6.9901,7.041,7.0829,7.0829,7.0859,7.0889,7.0889,7.0889,7.0889,7.0889,7.0889,7.0889,7.0889,7.0889,7.0889,7.0889,7.0889,7.0889,7.0889,7.0889,7.0889,7.0889,7.0889,7.0889,7.0889,7.0859,7.0829,7.0829,7.0829,7.0829,7.0829,7.0889,7.0889,7.0889,7.0889,7.0889,7.0889,7.0889,7.0889,7.0889,7.0889,7.0889,7.0889,7.0889,7.0889,7.0889,7.0889,7.0889,7.0889,7.0889,7.0889,7.0889,7.0889,7.0889,7.0889,7.0889,7.0889,7.0889,7.0889,7.0889,7.0889,7.0889,7.0889,7.0889,7.0829,7.038,6.9961,6.9842,6.8824,6.7956,6.7897,6.7388,6.6999,6.6999,6.6999,6.6999,6.6999,6.6999,6.6999,6.6999,6.6999,6.6999,6.6999,6.6939,6.6909,6.6909,6.6879,6.6849,6.6849,6.6251,6.5652,6.4994,6.4934,6.4874,6.4874,6.4874,6.4874,6.4874,6.4246,6.3917,6.3917,6.3348,6.3079,6.3079,6.3079,6.3079,6.3079,6.3079,6.3079,6.3079,6.3079,6.3079,6.3079,6.3079,6.3079,6.3079,7.056,7.0739,7.0889,7.0889,7.0889,7.0889,7.0889,7.0889,7.0889,7.0889,7.0889,7.0889,7.0889,7.0889,7.0889,7.0889,7.0889,7.0889,7.0889,7.0889,7.0889,7.0889,7.0889,7.0889,7.0889,7.0889,7.0889,7.0889,7.0889,7.0889,7.0889,7.0889,7.0889,7.0889,7.0889,7.0889,7.0889,7.0889,7.0889,7.0889,7.0889,7.0889,7.0889,7.0889,7.0889,7.0889,7.0889,7.0889,7.0889,7.0889,7.0889,7.0889,7.0889,7.0889,7.0889,7.0889,7.0889,7.0889,7.0889,7.0889,7.0889,7.0889,7.0889,7.0889,7.0889,7.0709,7.044,7.0051,6.9572,6.8974,6.8136,6.7777,6.7478,6.7059,6.6999,6.6999,6.6999,6.6999,6.6999,6.6999,6.6999,6.6999,6.6999,6.6999,6.6999,6.6999,6.6999,6.6999,6.6999,6.6759,6.649,6.6251,6.6251,6.5862,6.5054,6.5024,6.5024,6.5024,6.4755,6.4635,6.4635,6.4395,6.4066,6.3647,6.3647,6.3438,6.3079,6.3079,6.3079,6.3079,6.3079,6.3079,6.3079,6.3079,6.3079,6.3079,7.0889,7.0889,7.0889,7.0889,7.0889,7.0889,7.0889,7.0889,7.0889,7.0889,7.0889,7.0889,7.0889,7.0889,7.0889,7.0889,7.0889,7.0889,7.0889,7.0889,7.0889,7.0889,7.0889,7.0889,7.0889,7.0889,7.0889,7.0889,7.0889,7.0889,7.0889,7.0889,7.0889,7.0889,7.0889,7.0889,7.0889,7.0889,7.0889,7.0889,7.0889,7.0889,7.0889,7.0889,7.0889,7.0889,7.0889,7.0889,7.0889,7.0889,7.0889,7.0889,7.0889,7.0889,7.0889,7.0889,7.0889,7.0889,7.0889,7.0889,7.0889,7.0889,7.0889,7.0889,7.0889,7.0889,7.0769,7.035,7.0111,6.9692,6.8764,6.8256,6.7837,6.7358,6.7119,6.6999,6.6999,6.6999,6.6999,6.6999,6.6999,6.6999,6.6999,6.6999,6.6999,6.6999,6.6999,6.6999,6.6999,6.6999,6.6999,6.6999,6.6999,6.655,6.5652,6.5652,6.5652,6.5652,6.5443,6.5323,6.5323,6.5114,6.4755,6.4306,6.4096,6.3767,6.3348,6.3169,6.3079,6.3079,6.3079,6.3079,6.3079,6.3079,6.3079,6.3079,7.0889,7.0889,7.0889,7.0889,7.0889,7.0889,7.0889,7.0889,7.0889,7.0889,7.0889,7.0889,7.0889,7.0889,7.0889,7.0889,7.0889,7.0889,7.0889,7.0889,7.0889,7.0889,7.0889,7.0889,7.0889,7.0889,7.0889,7.0889,7.0889,7.0889,7.0889,7.0889,7.0889,7.0889,7.0889,7.0889,7.0889,7.0889,7.0889,7.0889,7.0889,7.0889,7.0889,7.0889,7.0889,7.0889,7.0889,7.0889,7.0889,7.0889,7.0889,7.0889,7.0889,7.0889,7.0889,7.0889,7.0889,7.0889,7.0889,7.0889,7.0889,7.0889,7.0889,7.0889,7.0889,7.0889,7.0889,7.0889,7.041,6.9991,6.9991,6.8884,6.7986,6.7956,6.7418,6.6999,6.6999,6.6999,6.6999,6.6999,6.6999,6.6999,6.6999,6.6999,6.6999,6.6999,6.6999,6.6999,6.6999,6.6999,6.6999,6.6999,6.6999,6.6999,6.6999,6.6999,6.6999,6.6969,6.634,6.6011,6.6011,6.5353,6.5054,6.4994,6.4306,6.4006,6.3947,6.3348,6.3079,6.3079,6.3079,6.3079,6.3079,6.3079,6.3079,6.3079,7.0889,7.0889,7.0889,7.0889,7.0889,7.0889,7.0889,7.0889,7.0889,7.0889,7.0889,7.0889,7.0889,7.0889,7.0889,7.0889,7.0889,7.0889,7.0889,7.0889,7.0889,7.0889,7.0889,7.0889,7.0889,7.0889,7.0889,7.0889,7.0889,7.0889,7.0889,7.0889,7.0889,7.0889,7.0889,7.0889,7.0889,7.0889,7.0889,7.0889,7.0889,7.0889,7.0889,7.0889,7.0889,7.0889,7.0889,7.0889,7.0889,7.0889,7.0889,7.0889,7.0889,7.0889,7.0889,7.0889,7.0889,7.0889,7.0889,7.0889,7.0889,7.0889,7.0889,7.0889,7.0889,7.0889,7.0889,7.0889,7.0769,7.05,7.0051,6.9662,6.9064,6.8136,6.7807,6.7508,6.7059,6.6999,6.6999,6.6999,6.6999,6.6999,6.6999,6.6999,6.6999,6.6999,6.6999,6.6999,6.6999,6.6999,6.6999,6.6999,6.6999,6.6999,6.6999,6.6999,6.6999,6.6999,6.6789,6.67,6.67,6.649,6.6161,6.5712,6.5503,6.5144,6.4665,6.4006,6.3707,6.3677,6.3258,6.3079,6.3079,6.3079,6.3079,6.3079,7.0889,7.0889,7.0889,7.0889,7.0889,7.0889,7.0889,7.0889,7.0889,7.0889,7.0889,7.0889,7.0889,7.0889,7.0889,7.0889,7.0889,7.0889,7.0889,7.0889,7.0889,7.0889,7.0889,7.0889,7.0889,7.0889,7.0889,7.0889,7.0889,7.0889,7.0889,7.0889,7.0889,7.0889,7.0889,7.0889,7.0889,7.0889,7.0889,7.0889,7.0889,7.0889,7.0889,7.0889,7.0889,7.0889,7.0889,7.0889,7.0889,7.0889,7.0889,7.0889,7.0889,7.0889,7.0889,7.0889,7.0889,7.0889,7.0889,7.0889,7.0889,7.0889,7.0889,7.0889,7.0889,7.0889,7.0889,7.0889,7.0889,7.0799,7.041,7.0141,6.9722,6.8884,6.8315,6.7837,6.7418,6.7148,6.6999,6.6999,6.6999,6.6999,6.6999,6.6999,6.6999,6.6999,6.6999,6.6999,6.6999,6.6999,6.6999,6.6999,6.6999,6.6999,6.6999,6.6999,6.6999,6.6999,6.6999,6.6999,6.6999,6.6999,6.6759,6.637,6.6131,6.5772,6.5353,6.4695,6.4246,6.3947,6.3588,6.3288,6.3079,6.3079,6.3079,6.3079,7.0889,7.0889,7.0889,7.0889,7.0889,7.0889,7.0889,7.0889,7.0889,7.0889,7.0889,7.0889,7.0889,7.0889,7.0889,7.0889,7.0889,7.0889,7.0889,7.0889,7.0889,7.0889,7.0889,7.0889,7.0889,7.0889,7.0889,7.0889,7.0889,7.0889,7.0889,7.0889,7.0889,7.0889,7.0889,7.0889,7.0889,7.0889,7.0889,7.0889,7.0889,7.0889,7.0889,7.0889,7.0889,7.0889,7.0889,7.0889,7.0889,7.0889,7.0889,7.0889,7.0889,7.0889,7.0889,7.0889,7.0889,7.0889,7.0889,7.0889,7.0889,7.0889,7.0889,7.0889,7.0889,7.0889,7.0889,7.0889,7.0889,7.0889,7.0889,7.044,7.0051,6.9991,6.8944,6.8136,6.8076,6.7478,6.7089,6.7089,6.7029,6.6999,6.6999,6.6999,6.6999,6.6999,6.6999,6.6999,6.6999,6.6999,6.6999,6.6999,6.6999,6.6999,6.6999,6.6999,6.6999,6.6999,6.6999,6.6999,6.6999,6.6999,6.6999,6.6969,6.634,6.6101,6.6041,6.5383,6.4755,6.4186,6.4126,6.3707,6.3169,6.3169,6.3139,6.3079,7.0889,7.0889,7.0889,7.0889,7.0889,7.0889,7.0889,7.0889,7.0889,7.0889,7.0889,7.0889,7.0889,7.0889,7.0889,7.0889,7.0889,7.0889,7.0889,7.0889,7.0889,7.0889,7.0889,7.0889,7.0889,7.0889,7.0889,7.0889,7.0889,7.0889,7.0889,7.0889,7.0889,7.0889,7.0889,7.0889,7.0889,7.0889,7.0889,7.0889,7.0889,7.0889,7.0889,7.0889,7.0889,7.0889,7.0889,7.0889,7.0889,7.0889,7.0889,7.0889,7.0889,7.0889,7.0889,7.0889,7.0889,7.0889,7.0889,7.0889,7.0889,7.0889,7.0889,7.0889,7.0889,7.0889,7.0889,7.0889,7.0889,7.0889,7.0889,7.0799,7.056,7.0051,6.9752,6.9363,6.8854,6.8196,6.7747,6.7747,6.7298,6.6999,6.6999,6.6999,6.6999,6.6999,6.6999,6.6999,6.6999,6.6999,6.6999,6.6999,6.6999,6.6999,6.6999,6.6999,6.6999,6.6999,6.6999,6.6999,6.6999,6.6999,6.6999,6.6969,6.6849,6.6789,6.6729,6.6071,6.5712,6.5533,6.4994,6.4395,6.3797,6.3797,6.3498,6.3079,7.0889,7.0889,7.0889,7.0889,7.0889,7.0889,7.0889,7.0889,7.0889,7.0889,7.0889,7.0889,7.0889,7.0889,7.0889,7.0889,7.0889,7.0889,7.0889,7.0889,7.0889,7.0889,7.0889,7.0889,7.0889,7.0889,7.0889,7.0889,7.0889,7.0889,7.0889,7.0889,7.0889,7.0889,7.0889,7.0889,7.0889,7.0889,7.0889,7.0889,7.0889,7.0889,7.0889,7.0889,7.0889,7.0889,7.0889,7.0889,7.0889,7.0889,7.0889,7.0889,7.0889,7.0889,7.0889,7.0889,7.0889,7.0889,7.0889,7.0889,7.0889,7.0889,7.0889,7.0889,7.0889,7.0889,7.0889,7.0889,7.0889,7.0889,7.0889,7.0889,7.0799,7.047,7.0171,6.9871,6.9512,6.8884,6.8345,6.8016,6.7657,6.7328,6.7029,6.6999,6.6999,6.6999,6.6999,6.6999,6.6999,6.6999,6.6999,6.6999,6.6999,6.6999,6.6999,6.6999,6.6999,6.6999,6.6999,6.6999,6.6999,6.6999,6.6999,6.6999,6.6999,6.6999,6.6969,6.661,6.6281,6.5981,6.5622,6.5084,6.4455,6.4126,6.3617,6.3079,7.0889,7.0889,7.0889,7.0889,7.0889,7.0889,7.0889,7.0889,7.0889,7.0889,7.0889,7.0889,7.0889,7.0889,7.0889,7.0889,7.0889,7.0889,7.0889,7.0889,7.0889,7.0889,7.0889,7.0889,7.0889,7.0889,7.0889,7.0889,7.0889,7.0889,7.0889,7.0889,7.0889,7.0889,7.0889,7.0889,7.0889,7.0889,7.0889,7.0889,7.0889,7.0889,7.0889,7.0889,7.0889,7.0889,7.0889,7.0889,7.0889,7.0889,7.0889,7.0889,7.0889,7.0889,7.0889,7.0889,7.0889,7.0889,7.0889,7.0889,7.0889,7.0889,7.0889,7.0889,7.0889,7.0889,7.0889,7.0889,7.0889,7.0889,7.0889,7.0889,7.0889,7.0889,7.047,7.0141,7.0141,6.9572,6.8944,6.8375,6.8106,6.7747,6.7208,6.7059,6.6999,6.6999,6.6999,6.6999,6.6999,6.6999,6.6999,6.6999,6.6999,6.6999,6.6999,6.6999,6.6999,6.6999,6.6999,6.6999,6.6999,6.6999,6.6999,6.6999,6.6999,6.6999,6.6999,6.6999,6.667,6.6191,6.6191,6.5772,6.5114,6.4306,6.3677,6.3228,7.0889,7.0889,7.0889,7.0889,7.0889,7.0889,7.0889,7.0889,7.0889,7.0889,7.0889,7.0889,7.0889,7.0889,7.0889,7.0889,7.0889,7.0889,7.0889,7.0889,7.0889,7.0889,7.0889,7.0889,7.0889,7.0889,7.0889,7.0889,7.0889,7.0889,7.0889,7.0889,7.0889,7.0889,7.0889,7.0889,7.0889,7.0889,7.0889,7.0889,7.0889,7.0889,7.0889,7.0889,7.0889,7.0889,7.0889,7.0889,7.0889,7.0889,7.0889,7.0889,7.0889,7.0889,7.0889,7.0889,7.0889,7.0889,7.0889,7.0889,7.0889,7.0889,7.0889,7.0889,7.0889,7.0889,7.0889,7.0889,7.0889,7.0889,7.0889,7.0889,7.0889,7.0889,7.0829,7.0769,7.0769,7.0231,6.9812,6.9722,6.8675,6.7926,6.7837,6.7328,6.6999,6.6999,6.6999,6.6999,6.6999,6.6999,6.6999,6.6999,6.6999,6.6999,6.6999,6.6999,6.6999,6.6999,6.6999,6.6999,6.6999,6.6999,6.6999,6.6999,6.6999,6.6999,6.6999,6.6999,6.6939,6.6849,6.6849,6.646,6.5712,6.4455,6.3947,6.3797,7.0889,7.0889,7.0889,7.0889,7.0889,7.0889,7.0889,7.0889,7.0889,7.0889,7.0889,7.0889,7.0889,7.0889,7.0889,7.0889,7.0889,7.0889,7.0889,7.0889,7.0889,7.0889,7.0889,7.0889,7.0889,7.0889,7.0889,7.0889,7.0889,7.0889,7.0889,7.0889,7.0889,7.0889,7.0889,7.0889,7.0889,7.0889,7.0889,7.0889,7.0889,7.0889,7.0889,7.0889,7.0889,7.0889,7.0889,7.0889,7.0889,7.0889,7.0889,7.0889,7.0889,7.0889,7.0889,7.0889,7.0889,7.0889,7.0889,7.0889,7.0889,7.0889,7.0889,7.0889,7.0889,7.0889,7.0889,7.0889,7.0889,7.0889,7.0889,7.0889,7.0889,7.0889,7.0889,7.0889,7.0889,7.0679,7.038,7.0021,6.9123,6.8555,6.8555,6.7926,6.7537,6.7537,6.7208,6.6999,6.6999,6.6999,6.6999,6.6999,6.6999,6.6999,6.6999,6.6999,6.6999,6.6999,6.6999,6.6999,6.6999,6.6999,6.6999,6.6999,6.6999,6.6999,6.6999,6.6999,6.6999,6.6999,6.6999,6.658,6.5951,6.5353,6.4904,6.4485]}]]